[[{"header":{"parameterUnit":"m.s-1","parameterCategory":1,"la1":31.0,"la2":29.5877,"lo1":-88.7671,"lo2":-86.6584,"dy":0.0162,"dx":0.0185,"nx":115,"ny":88,"refTime":"2024-03-02T06:00:00:Z","depth":0,"parameterNumber":2,"parameterNumberName":"U-component_of_WINDS"},"data":[0.0,0.0,0.0,0.0,0.0,0.0,0.0,0.0,0.0,0.0,0.0,0.0,0.0,0.0,0.0,0.0,0.0,0.0,0.0,0.0,0.0,0.0,0.0,0.0,0.0,0.0,0.0,0.0,0.0,0.0,0.0,0.0,0.0,0.0,0.0,0.0,0.0,0.0,0.0,0.0,0.0,0.0,0.0,0.0,0.0,0.0,0.0,0.0,0.0,0.0,0.0,0.0,0.0,0.0,0.0,0.0,0.0,0.0,0.0,0.0,0.0,0.0,0.0,0.0,0.0,0.0,0.0,0.0,0.0,0.0,0.0,0.0,0.0,0.0,0.0,0.0,0.0,0.0,0.0,0.0,0.0,0.0,0.0,0.0,0.0,0.0,0.0,0.0,0.0,0.0,0.0,0.0,0.0,0.0,0.0,0.0,0.0,0.0,0.0,0.0,0.0,0.0,0.0,0.0,0.0,0.0,0.0,0.0,0.0,0.0,0.0,0.0,0.0,0.0,0.0,0.0,0.0,0.0,0.0,0.0,0.0,0.0,0.0,0.0,0.0,0.0,0.0,0.0,0.0,0.0,0.0,0.0,0.0,0.0,0.0,0.0,0.0,0.0,0.0,0.0,0.0,0.0,0.0,0.0,0.0,0.0,0.0,0.0,0.0,0.0,0.0,0.0,0.0,0.0,0.0,0.0,0.0,0.0,0.0,0.0,0.0,0.0,0.0,0.0,0.0,0.0,0.0,0.0,0.0,0.0,0.0,0.0,0.0,0.0,0.0,0.0,0.0,0.0,0.0,0.0,0.0,0.0,0.0,0.0,0.0,0.0,0.0,0.0,0.0,0.0,0.0,0.0,0.0,0.0,0.0,0.0,0.0,0.0,0.0,0.0,0.0,0.0,0.0,0.0,0.0,0.0,0.0,0.0,0.0,0.0,0.0,0.0,0.0,0.0,0.0,0.0,0.0,0.0,0.0,0.0,0.0,0.0,0.0,0.0,0.0,0.0,0.0,0.0,0.0,0.0,0.0,0.0,0.0,0.0,0.0,0.0,0.0,0.0,0.0,0.0,0.0,0.0,0.0,0.0,0.0,0.0,0.0,0.0,0.0,0.0,0.0,0.0,0.0,0.0,0.0,0.0,0.0,0.0,0.0,0.0,0.0,0.0,0.0,0.0,0.0,0.0,0.0,0.0,0.0,0.0,0.0,0.0,0.0,0.0,0.0,0.0,0.0,0.0,0.0,0.0,0.0,0.0,0.0,0.0,0.0,0.0,0.0,0.0,0.0,0.0,0.0,0.0,0.0,0.0,0.0,0.0,0.0,0.0,0.0,0.0,0.0,0.0,0.0,0.0,0.0,0.0,0.0,0.0,0.0,0.0,0.0,0.0,0.0,0.0,0.0,0.0,0.0,0.0,0.0,0.0,0.0,0.0,0.0,0.0,0.0,0.0,0.0,0.0,0.0,0.0,0.0,0.0,0.0,0.0,0.0,0.0,0.0,0.0,0.0,0.0,0.0,0.0,0.0,0.0,0.0,0.0,0.0,0.0,0.0,0.0,0.0,0.0,0.0,0.0,0.0,0.0,0.0,0.0,0.0,0.0,0.0,0.0,0.0,0.0,0.0,0.0,0.0,0.0,0.0,0.0,0.0,0.0,0.0,0.0,0.0,0.0,0.0,0.0,0.0,0.0,0.0,0.0,0.0,0.0,0.0,0.0,0.0,0.0,0.0,0.0,0.0,0.0,0.0,0.0,0.0,0.0,0.0,0.0,0.0,0.0,0.0,0.0,0.0,0.0,0.0,0.0,0.0,0.0,0.0,0.0,0.0,0.0,0.0,0.0,0.0,0.0,0.0,0.0,0.0,0.0,0.0,0.0,0.0,0.0,0.0,0.0,0.0,0.0,0.0,0.0,0.0,0.0,0.0,0.0,0.0,0.0,0.0,0.0,0.0,0.0,0.0,0.0,0.0,0.0,0.0,0.0,0.0,0.0,0.0,0.0,0.0,0.0,0.0,0.0,0.0,0.0,0.0,0.0,0.0,0.0,0.0,0.0,0.0,0.0,0.0,0.0,0.0,0.0,0.0,0.0,0.0,0.0,0.0,0.0,0.0,0.0,0.0,0.0,0.0,0.0,0.0,0.0,0.0,0.0,0.0,0.0,0.0,0.0,0.0,0.0,0.0,0.0,0.0,0.0,0.0,0.0,0.0,0.0,0.0,0.0,0.0,0.0,0.0,0.0,0.0,0.0,0.0,0.0,0.0,0.0,0.0,0.0,0.0,0.0,0.0,0.0,0.0,0.0,0.0,0.0,0.0,0.0,0.0,0.0,0.0,0.0,0.0,0.0,0.0,0.0,0.0,0.0,0.0,0.0,0.0,0.0,0.0,0.0,0.0,0.0,0.0,0.0,0.0,0.0,0.0,0.0,0.0,0.0,0.0,0.0,0.0,0.0,0.0,0.0,0.0,0.0,0.0,0.0,0.0,0.0,0.0,0.0,0.0,0.0,0.0,0.0,0.0,0.0,0.0,0.0,0.0,0.0,0.0,0.0,0.0,0.0,0.0,0.0,0.0,0.0,0.0,0.0,0.0,0.0,0.0,0.0,0.0,0.0,0.0,0.0,0.0,0.0,0.0,0.0,0.0,0.0,0.0,0.0,0.0,0.0,0.0,0.0,0.0,0.0,0.0,0.0,0.0,0.0,0.0,0.0,0.0,0.0,0.0,0.0,0.0,0.0,0.0,0.0,0.0,0.0,0.0,0.0,0.0,0.0,0.0,0.0,0.0,0.0,0.0,0.0,0.0,0.0,0.0,0.0,0.0,0.0,0.0,0.0,0.0,0.0,0.0,0.0,0.0,0.0,0.0,0.0,0.0,0.0,0.0,0.0,0.0,0.0,0.0,0.0,0.0,0.0,0.0,0.0,0.0,0.0,0.0,0.0,0.0,0.0,0.0,0.0,0.0,0.0,0.0,0.0,0.0,0.0,0.0,0.0,0.0,0.0,0.0,0.0,0.0,0.0,0.0,0.0,0.0,0.0,0.0,0.0,0.0,0.0,0.0,0.0,0.0,0.0,0.0,0.0,0.0,0.0,0.0,0.0,0.0,0.0,0.0,0.0,0.0,0.0,0.0,0.0,0.0,0.0,0.0,0.0,0.0,0.0,0.0,0.0,0.0,0.0,0.0,0.0,0.0,0.0,0.0,0.0,0.0,0.0,0.0,0.0,0.0,0.0,0.0,0.0,0.0,0.0,0.0,0.0,0.0,0.0,0.0,0.0,0.0,0.0,0.0,0.0,0.0,0.0,0.0,0.0,0.0,0.0,0.0,0.0,0.0,0.0,0.0,0.0,0.0,0.0,0.0,0.0,0.0,0.0,0.0,0.0,0.0,0.0,0.0,0.0,0.0,0.0,0.0,0.0,0.0,0.0,0.0,0.0,0.0,0.0,0.0,0.0,0.0,0.0,0.0,0.0,0.0,0.0,0.0,0.0,0.0,0.0,0.0,0.0,0.0,0.0,0.0,0.0,0.0,0.0,0.0,0.0,0.0,0.0,0.0,0.0,0.0,0.0,0.0,0.0,0.0,0.0,0.0,0.0,0.0,0.0,0.0,0.0,0.0,0.0,0.0,0.0,0.0,0.0,0.0,0.0,0.0,0.0,0.0,0.0,0.0,0.0,0.0,0.0,0.0,0.0,0.0,0.0,0.0,0.0,0.0,0.0,0.0,0.0,0.0,0.0,0.0,0.0,0.0,0.0,0.0,0.0,0.0,0.0,0.0,0.0,0.0,0.0,0.0,0.0,0.0,0.0,0.0,0.0,0.0,0.0,0.0,0.0,0.0,0.0,0.0,0.0,0.0,0.0,0.0,0.0,0.0,0.0,0.0,0.0,0.0,0.0,0.0,0.0,0.0,0.0,0.0,0.0,0.0,0.0,0.0,0.0,0.0,0.0,0.0,0.0,0.0,0.0,0.0,0.0,0.0,0.0,0.0,0.0,0.0,0.0,0.0,0.0,0.0,0.0,0.0,0.0,0.0,0.0,0.0,0.0,0.0,0.0,0.0,0.0,0.0,0.0,0.0,0.0,0.0,0.0,0.0,0.0,0.0,0.0,0.0,0.0,0.0,0.0,0.0,0.0,0.0,0.0,0.0,0.0,0.0,0.0,0.0,0.0,0.0,0.0,0.0,0.0,0.0,0.0,0.0,0.0,0.0,0.0,0.0,0.0,0.0,0.0,0.0,0.0,0.0,0.0,0.0,0.0,0.0,0.0,0.0,0.0,0.0,0.0,-2.3509,0.0,0.0,0.0,0.0,0.0,0.0,0.0,0.0,0.0,0.0,0.0,0.0,0.0,0.0,0.0,0.0,0.0,0.0,0.0,0.0,0.0,0.0,0.0,0.0,0.0,0.0,0.0,0.0,0.0,0.0,0.0,0.0,0.0,0.0,0.0,0.0,0.0,0.0,0.0,0.0,0.0,0.0,0.0,0.0,0.0,0.0,0.0,0.0,0.0,0.0,0.0,0.0,0.0,0.0,0.0,0.0,0.0,0.0,0.0,0.0,0.0,0.0,0.0,0.0,0.0,0.0,0.0,0.0,0.0,0.0,0.0,0.0,0.0,0.0,0.0,0.0,0.0,0.0,0.0,0.0,0.0,0.0,0.0,0.0,0.0,0.0,0.0,0.0,0.0,0.0,0.0,0.0,0.0,0.0,0.0,0.0,0.0,0.0,0.0,0.0,0.0,0.0,0.0,0.0,0.0,0.0,0.0,0.0,0.0,0.0,-2.3282,-2.3282,-2.3282,-2.3304,-2.34,0.0,0.0,0.0,0.0,0.0,0.0,0.0,0.0,0.0,0.0,0.0,0.0,0.0,0.0,0.0,0.0,0.0,0.0,0.0,0.0,0.0,0.0,0.0,0.0,0.0,0.0,0.0,0.0,0.0,0.0,0.0,0.0,0.0,0.0,0.0,0.0,0.0,0.0,0.0,0.0,0.0,0.0,0.0,0.0,0.0,0.0,0.0,0.0,0.0,0.0,0.0,0.0,0.0,0.0,0.0,0.0,0.0,0.0,0.0,0.0,0.0,0.0,0.0,0.0,0.0,0.0,0.0,0.0,0.0,0.0,0.0,0.0,0.0,0.0,0.0,0.0,0.0,0.0,0.0,0.0,0.0,0.0,0.0,0.0,0.0,0.0,0.0,0.0,0.0,0.0,0.0,0.0,0.0,0.0,0.0,0.0,0.0,0.0,0.0,0.0,0.0,0.0,0.0,0.0,0.0,0.0,0.0,0.0,0.0,0.0,0.0,0.0,-2.3179,-2.3201,-2.3268,0.0,0.0,0.0,0.0,0.0,0.0,0.0,0.0,0.0,0.0,0.0,0.0,0.0,0.0,0.0,0.0,0.0,0.0,0.0,0.0,0.0,0.0,0.0,0.0,0.0,0.0,0.0,0.0,0.0,0.0,0.0,0.0,0.0,0.0,0.0,0.0,0.0,0.0,0.0,0.0,0.0,0.0,0.0,0.0,0.0,0.0,0.0,0.0,0.0,0.0,0.0,0.0,0.0,0.0,0.0,0.0,0.0,0.0,0.0,0.0,0.0,0.0,0.0,0.0,0.0,0.0,0.0,0.0,0.0,0.0,0.0,0.0,0.0,0.0,0.0,0.0,0.0,0.0,0.0,0.0,0.0,0.0,0.0,0.0,0.0,0.0,0.0,0.0,0.0,0.0,0.0,0.0,0.0,0.0,0.0,0.0,0.0,0.0,0.0,0.0,0.0,0.0,0.0,0.0,0.0,0.0,0.0,0.0,0.0,0.0,-2.2684,-2.2684,-2.2781,0.0,-2.309,0.0,0.0,0.0,0.0,0.0,0.0,0.0,0.0,0.0,0.0,0.0,0.0,0.0,0.0,0.0,0.0,0.0,0.0,0.0,0.0,0.0,0.0,0.0,0.0,0.0,0.0,0.0,0.0,0.0,0.0,0.0,0.0,0.0,0.0,0.0,0.0,0.0,0.0,0.0,0.0,0.0,0.0,0.0,0.0,0.0,0.0,0.0,0.0,0.0,0.0,0.0,0.0,0.0,0.0,0.0,0.0,0.0,0.0,0.0,0.0,0.0,0.0,0.0,0.0,0.0,0.0,0.0,0.0,0.0,0.0,0.0,0.0,0.0,0.0,0.0,0.0,0.0,0.0,0.0,0.0,0.0,0.0,0.0,0.0,0.0,0.0,0.0,0.0,0.0,0.0,0.0,0.0,0.0,0.0,0.0,0.0,0.0,0.0,0.0,0.0,0.0,0.0,0.0,0.0,0.0,0.0,0.0,0.0,0.0,0.0,-2.2615,-2.2615,-2.2735,-2.2872,0.0,0.0,0.0,0.0,0.0,0.0,0.0,0.0,0.0,0.0,0.0,0.0,0.0,0.0,0.0,0.0,0.0,0.0,0.0,0.0,0.0,0.0,0.0,0.0,0.0,0.0,0.0,0.0,0.0,0.0,0.0,0.0,0.0,0.0,0.0,0.0,0.0,0.0,0.0,0.0,0.0,0.0,0.0,0.0,0.0,0.0,0.0,0.0,0.0,0.0,0.0,0.0,0.0,0.0,0.0,0.0,0.0,0.0,0.0,0.0,0.0,0.0,0.0,0.0,0.0,0.0,0.0,0.0,0.0,0.0,0.0,0.0,0.0,0.0,0.0,0.0,0.0,0.0,0.0,0.0,0.0,0.0,0.0,0.0,0.0,0.0,0.0,0.0,0.0,0.0,0.0,0.0,0.0,0.0,0.0,0.0,0.0,0.0,0.0,0.0,0.0,0.0,0.0,0.0,0.0,0.0,0.0,0.0,0.0,0.0,-2.2356,-2.2431,-2.25,-2.2598,-2.2684,-2.2888,0.0,0.0,0.0,0.0,0.0,0.0,0.0,0.0,0.0,0.0,0.0,0.0,0.0,0.0,0.0,0.0,0.0,0.0,0.0,0.0,0.0,0.0,0.0,0.0,0.0,0.0,0.0,0.0,0.0,0.0,0.0,0.0,0.0,0.0,0.0,0.0,0.0,0.0,0.0,0.0,0.0,0.0,0.0,0.0,0.0,0.0,0.0,0.0,0.0,0.0,0.0,0.0,0.0,0.0,0.0,0.0,0.0,0.0,0.0,0.0,0.0,0.0,0.0,0.0,0.0,0.0,0.0,0.0,0.0,0.0,0.0,0.0,0.0,0.0,0.0,0.0,0.0,0.0,0.0,0.0,0.0,0.0,0.0,0.0,0.0,0.0,0.0,0.0,0.0,0.0,0.0,0.0,0.0,0.0,0.0,0.0,0.0,0.0,0.0,0.0,0.0,0.0,0.0,0.0,0.0,0.0,0.0,0.0,-2.1841,-2.1841,-2.1959,-2.2222,-2.2217,-2.2408,0.0,0.0,0.0,0.0,0.0,0.0,0.0,0.0,0.0,0.0,0.0,0.0,0.0,0.0,0.0,0.0,0.0,0.0,0.0,0.0,0.0,0.0,0.0,0.0,0.0,0.0,0.0,0.0,0.0,0.0,0.0,0.0,0.0,0.0,0.0,0.0,0.0,0.0,0.0,0.0,0.0,0.0,0.0,0.0,0.0,0.0,0.0,0.0,0.0,0.0,0.0,0.0,0.0,0.0,0.0,0.0,0.0,0.0,0.0,0.0,0.0,0.0,0.0,0.0,0.0,0.0,0.0,0.0,0.0,0.0,0.0,0.0,0.0,0.0,0.0,0.0,0.0,0.0,0.0,0.0,0.0,0.0,0.0,0.0,0.0,0.0,0.0,0.0,0.0,0.0,0.0,0.0,0.0,0.0,0.0,0.0,0.0,0.0,0.0,0.0,0.0,0.0,0.0,0.0,0.0,0.0,0.0,0.0,0.0,-2.1821,-2.218,-2.2616,-2.3078,-2.2892,-2.2865,0.0,0.0,0.0,0.0,0.0,0.0,0.0,0.0,0.0,0.0,0.0,0.0,0.0,0.0,0.0,0.0,0.0,0.0,0.0,0.0,0.0,0.0,0.0,0.0,0.0,0.0,0.0,0.0,0.0,0.0,0.0,0.0,0.0,0.0,0.0,0.0,0.0,0.0,0.0,0.0,0.0,0.0,0.0,0.0,0.0,0.0,0.0,0.0,0.0,0.0,0.0,0.0,0.0,0.0,0.0,0.0,0.0,0.0,0.0,0.0,0.0,0.0,0.0,0.0,0.0,0.0,0.0,0.0,0.0,0.0,0.0,0.0,0.0,0.0,0.0,0.0,0.0,0.0,0.0,0.0,0.0,0.0,0.0,0.0,0.0,0.0,0.0,0.0,0.0,0.0,0.0,0.0,0.0,0.0,0.0,0.0,0.0,0.0,0.0,0.0,0.0,0.0,0.0,0.0,0.0,0.0,0.0,0.0,0.0,-2.218,0.0,-2.2922,-2.3383,-2.3232,-2.3103,0.0,0.0,0.0,0.0,0.0,0.0,0.0,0.0,0.0,0.0,0.0,0.0,0.0,0.0,0.0,0.0,0.0,0.0,0.0,0.0,0.0,0.0,0.0,0.0,0.0,0.0,0.0,0.0,0.0,0.0,0.0,0.0,0.0,0.0,0.0,0.0,0.0,0.0,0.0,0.0,0.0,0.0,0.0,0.0,0.0,0.0,0.0,0.0,0.0,0.0,0.0,0.0,0.0,0.0,0.0,0.0,0.0,0.0,0.0,0.0,0.0,0.0,0.0,0.0,0.0,0.0,0.0,0.0,0.0,0.0,0.0,0.0,0.0,0.0,0.0,0.0,0.0,0.0,0.0,0.0,0.0,0.0,0.0,0.0,0.0,0.0,0.0,0.0,0.0,0.0,0.0,0.0,0.0,0.0,0.0,0.0,0.0,0.0,0.0,0.0,0.0,0.0,0.0,0.0,0.0,0.0,0.0,0.0,-2.2581,-2.299,-2.2911,-2.2991,-2.3044,-2.3203,-2.3166,0.0,0.0,0.0,0.0,0.0,0.0,0.0,0.0,0.0,0.0,0.0,0.0,0.0,0.0,0.0,0.0,0.0,0.0,0.0,0.0,0.0,0.0,0.0,0.0,0.0,0.0,0.0,0.0,0.0,0.0,0.0,0.0,0.0,0.0,0.0,0.0,0.0,0.0,0.0,0.0,0.0,0.0,0.0,0.0,0.0,0.0,0.0,0.0,0.0,0.0,0.0,0.0,0.0,0.0,0.0,0.0,0.0,0.0,0.0,0.0,0.0,0.0,0.0,0.0,0.0,0.0,0.0,0.0,0.0,0.0,0.0,0.0,0.0,0.0,0.0,0.0,0.0,0.0,0.0,0.0,0.0,0.0,0.0,0.0,0.0,0.0,0.0,0.0,0.0,0.0,0.0,0.0,0.0,0.0,0.0,0.0,0.0,0.0,0.0,0.0,0.0,0.0,0.0,0.0,0.0,0.0,0.0,0.0,0.0,-2.3917,-2.42,-2.4566,-2.4823,-2.4317,-2.4091,0.0,0.0,0.0,0.0,0.0,0.0,0.0,0.0,0.0,0.0,0.0,0.0,0.0,0.0,0.0,0.0,0.0,0.0,0.0,0.0,0.0,0.0,0.0,0.0,0.0,0.0,0.0,0.0,0.0,0.0,0.0,0.0,0.0,0.0,0.0,0.0,0.0,0.0,0.0,0.0,0.0,0.0,0.0,0.0,0.0,0.0,0.0,0.0,0.0,0.0,0.0,0.0,0.0,0.0,0.0,0.0,0.0,0.0,0.0,0.0,0.0,0.0,0.0,0.0,0.0,0.0,0.0,0.0,0.0,0.0,0.0,0.0,0.0,0.0,0.0,0.0,0.0,0.0,0.0,0.0,0.0,0.0,0.0,0.0,0.0,0.0,0.0,0.0,0.0,0.0,0.0,0.0,0.0,0.0,0.0,0.0,0.0,0.0,0.0,0.0,0.0,0.0,0.0,0.0,0.0,0.0,0.0,0.0,0.0,-2.5323,-2.5272,-2.5306,-2.5512,-2.5128,-2.473,-2.4392,0.0,0.0,0.0,0.0,0.0,0.0,0.0,0.0,0.0,0.0,0.0,0.0,0.0,0.0,0.0,0.0,0.0,0.0,0.0,0.0,0.0,0.0,0.0,0.0,0.0,0.0,0.0,0.0,0.0,0.0,0.0,0.0,0.0,0.0,0.0,0.0,0.0,0.0,0.0,0.0,0.0,0.0,0.0,0.0,0.0,0.0,0.0,0.0,0.0,0.0,0.0,0.0,0.0,0.0,0.0,0.0,0.0,0.0,0.0,0.0,0.0,0.0,0.0,0.0,0.0,0.0,0.0,0.0,0.0,0.0,0.0,0.0,0.0,0.0,0.0,0.0,0.0,0.0,0.0,0.0,0.0,0.0,0.0,0.0,0.0,0.0,0.0,0.0,0.0,0.0,0.0,0.0,0.0,0.0,0.0,0.0,0.0,0.0,0.0,0.0,0.0,0.0,0.0,0.0,0.0,0.0,0.0,0.0,-2.719,-2.6217,-2.5617,-2.5364,-2.5636,-2.5224,0.0,0.0,0.0,0.0,0.0,0.0,0.0,0.0,0.0,0.0,0.0,0.0,0.0,0.0,0.0,0.0,0.0,0.0,0.0,0.0,0.0,0.0,0.0,0.0,0.0,0.0,0.0,0.0,0.0,0.0,0.0,0.0,0.0,0.0,0.0,0.0,0.0,0.0,0.0,0.0,0.0,0.0,0.0,0.0,0.0,0.0,0.0,0.0,0.0,0.0,0.0,0.0,0.0,0.0,0.0,0.0,0.0,0.0,0.0,0.0,0.0,0.0,0.0,0.0,0.0,0.0,0.0,0.0,0.0,0.0,0.0,0.0,0.0,0.0,0.0,0.0,0.0,0.0,0.0,0.0,0.0,0.0,0.0,0.0,0.0,0.0,0.0,0.0,0.0,0.0,0.0,0.0,0.0,0.0,0.0,0.0,0.0,0.0,0.0,0.0,0.0,0.0,0.0,0.0,0.0,0.0,0.0,0.0,0.0,-2.847,-2.8295,-2.7849,-2.7,-2.6697,-2.6267,0.0,0.0,0.0,0.0,0.0,0.0,0.0,0.0,0.0,0.0,0.0,0.0,0.0,0.0,0.0,0.0,0.0,0.0,0.0,0.0,0.0,0.0,0.0,0.0,0.0,0.0,0.0,0.0,0.0,0.0,0.0,0.0,0.0,0.0,0.0,0.0,0.0,0.0,0.0,0.0,0.0,0.0,0.0,0.0,0.0,0.0,0.0,0.0,0.0,0.0,0.0,0.0,0.0,0.0,0.0,0.0,0.0,0.0,0.0,0.0,0.0,0.0,0.0,0.0,0.0,0.0,0.0,0.0,0.0,0.0,0.0,0.0,0.0,0.0,0.0,0.0,0.0,0.0,0.0,0.0,0.0,0.0,0.0,0.0,0.0,0.0,0.0,0.0,0.0,0.0,0.0,0.0,0.0,0.0,0.0,0.0,0.0,0.0,0.0,0.0,0.0,0.0,0.0,0.0,0.0,0.0,0.0,0.0,-2.9413,-2.997,-3.0379,-3.0344,-2.9677,-2.8251,-2.7005,0.0,0.0,0.0,0.0,0.0,0.0,0.0,0.0,0.0,0.0,0.0,0.0,0.0,0.0,0.0,0.0,0.0,0.0,0.0,0.0,0.0,0.0,0.0,0.0,0.0,0.0,0.0,0.0,0.0,0.0,0.0,0.0,0.0,0.0,0.0,0.0,0.0,0.0,0.0,0.0,0.0,0.0,0.0,0.0,0.0,0.0,0.0,0.0,0.0,0.0,0.0,0.0,0.0,0.0,0.0,0.0,0.0,0.0,0.0,0.0,0.0,0.0,0.0,0.0,0.0,0.0,0.0,0.0,0.0,0.0,0.0,0.0,0.0,0.0,0.0,0.0,0.0,0.0,0.0,0.0,0.0,0.0,0.0,0.0,0.0,0.0,0.0,0.0,0.0,0.0,0.0,0.0,0.0,0.0,0.0,0.0,0.0,0.0,0.0,0.0,0.0,0.0,0.0,0.0,0.0,0.0,0.0,0.0,-3.0747,-3.1439,-3.2293,-3.2647,-3.2274,-2.9917,-2.7859,0.0,0.0,0.0,0.0,0.0,0.0,0.0,0.0,0.0,0.0,0.0,0.0,0.0,0.0,0.0,0.0,0.0,0.0,0.0,0.0,0.0,0.0,0.0,0.0,0.0,0.0,0.0,0.0,0.0,0.0,0.0,0.0,0.0,0.0,0.0,0.0,0.0,0.0,0.0,0.0,0.0,0.0,0.0,0.0,0.0,0.0,0.0,0.0,0.0,0.0,0.0,0.0,0.0,0.0,0.0,0.0,0.0,0.0,0.0,0.0,0.0,0.0,0.0,0.0,0.0,0.0,0.0,0.0,0.0,0.0,0.0,0.0,0.0,0.0,0.0,0.0,0.0,0.0,0.0,0.0,0.0,0.0,0.0,0.0,0.0,0.0,0.0,0.0,0.0,0.0,0.0,0.0,0.0,0.0,0.0,0.0,0.0,0.0,0.0,0.0,0.0,0.0,0.0,0.0,0.0,0.0,0.0,0.0,-3.2133,-3.2393,-3.3276,-3.2932,-3.1371,-3.0446,-2.9488,0.0,0.0,0.0,0.0,0.0,0.0,0.0,0.0,0.0,0.0,0.0,0.0,0.0,0.0,0.0,0.0,0.0,0.0,0.0,0.0,0.0,0.0,0.0,0.0,0.0,0.0,0.0,0.0,0.0,0.0,0.0,0.0,0.0,0.0,0.0,0.0,0.0,0.0,0.0,0.0,0.0,0.0,0.0,0.0,0.0,0.0,0.0,0.0,-2.7491,0.0,0.0,0.0,0.0,0.0,0.0,0.0,0.0,0.0,0.0,0.0,0.0,0.0,0.0,0.0,0.0,0.0,0.0,0.0,0.0,0.0,0.0,0.0,0.0,0.0,0.0,0.0,0.0,0.0,0.0,0.0,0.0,0.0,0.0,0.0,0.0,0.0,0.0,0.0,0.0,0.0,0.0,0.0,0.0,0.0,0.0,0.0,0.0,0.0,0.0,0.0,0.0,0.0,0.0,0.0,0.0,0.0,0.0,0.0,-3.311,-3.3796,-3.4674,-3.4626,-3.3576,-3.2484,-3.0793,0.0,0.0,0.0,0.0,0.0,0.0,0.0,0.0,0.0,0.0,0.0,0.0,0.0,0.0,0.0,0.0,0.0,0.0,0.0,0.0,0.0,0.0,0.0,0.0,0.0,0.0,0.0,0.0,0.0,0.0,0.0,0.0,0.0,0.0,0.0,0.0,0.0,0.0,0.0,0.0,0.0,0.0,0.0,0.0,0.0,0.0,0.0,0.0,0.0,0.0,0.0,0.0,0.0,0.0,0.0,0.0,0.0,0.0,0.0,0.0,0.0,0.0,0.0,0.0,0.0,0.0,0.0,0.0,0.0,0.0,0.0,0.0,0.0,0.0,0.0,0.0,0.0,0.0,0.0,0.0,0.0,0.0,0.0,0.0,0.0,0.0,0.0,0.0,0.0,0.0,0.0,0.0,0.0,0.0,0.0,0.0,0.0,0.0,0.0,0.0,0.0,0.0,0.0,0.0,0.0,0.0,0.0,-3.2423,-3.3854,-3.5046,-3.5923,-3.6235,-3.5893,-3.4304,-3.1631,-2.7921,0.0,0.0,0.0,0.0,0.0,0.0,0.0,0.0,0.0,0.0,0.0,0.0,0.0,0.0,0.0,0.0,0.0,0.0,0.0,0.0,0.0,0.0,0.0,0.0,0.0,0.0,0.0,0.0,0.0,0.0,0.0,0.0,0.0,0.0,0.0,0.0,0.0,0.0,-2.6429,-2.7797,0.0,0.0,0.0,0.0,0.0,0.0,0.0,0.0,-3.0703,0.0,0.0,0.0,0.0,0.0,0.0,0.0,0.0,0.0,0.0,0.0,0.0,0.0,0.0,0.0,0.0,0.0,0.0,0.0,0.0,0.0,0.0,0.0,0.0,0.0,0.0,0.0,0.0,0.0,0.0,0.0,0.0,0.0,0.0,0.0,0.0,0.0,0.0,0.0,0.0,0.0,0.0,0.0,0.0,0.0,0.0,0.0,0.0,0.0,0.0,0.0,0.0,0.0,0.0,0.0,0.0,-3.1698,-3.3123,-3.4356,-3.5399,-3.6078,-3.5578,-3.3873,-3.2999,-3.1283,-2.8585,0.0,0.0,0.0,0.0,0.0,0.0,0.0,0.0,0.0,0.0,0.0,0.0,0.0,0.0,0.0,0.0,0.0,0.0,0.0,0.0,0.0,0.0,0.0,0.0,0.0,0.0,0.0,0.0,0.0,0.0,0.0,0.0,0.0,0.0,0.0,0.0,0.0,0.0,0.0,-2.9247,-3.0126,0.0,0.0,0.0,0.0,0.0,0.0,0.0,0.0,-3.198,0.0,0.0,0.0,0.0,0.0,0.0,0.0,0.0,0.0,0.0,0.0,0.0,0.0,0.0,0.0,0.0,0.0,0.0,0.0,0.0,0.0,0.0,0.0,0.0,0.0,0.0,0.0,0.0,0.0,0.0,0.0,0.0,0.0,0.0,0.0,0.0,0.0,0.0,0.0,0.0,0.0,0.0,0.0,0.0,0.0,0.0,0.0,0.0,0.0,0.0,0.0,0.0,0.0,0.0,0.0,-3.2712,-3.3653,-3.4698,-3.5906,-3.6254,-3.5918,-3.4903,-3.3796,-3.2226,0.0,0.0,0.0,0.0,0.0,0.0,0.0,0.0,0.0,0.0,0.0,0.0,0.0,0.0,0.0,0.0,0.0,0.0,0.0,0.0,0.0,0.0,0.0,0.0,0.0,0.0,0.0,0.0,0.0,0.0,0.0,0.0,0.0,0.0,0.0,0.0,0.0,0.0,0.0,0.0,-3.0147,-3.1164,-3.2398,0.0,0.0,0.0,0.0,0.0,0.0,-3.3261,-3.3142,0.0,0.0,0.0,0.0,0.0,0.0,0.0,0.0,0.0,0.0,0.0,0.0,0.0,0.0,0.0,0.0,0.0,0.0,0.0,0.0,0.0,0.0,0.0,0.0,0.0,0.0,0.0,0.0,0.0,0.0,0.0,0.0,0.0,0.0,0.0,0.0,0.0,0.0,0.0,0.0,0.0,0.0,0.0,0.0,0.0,0.0,0.0,0.0,0.0,0.0,0.0,0.0,0.0,0.0,0.0,-3.3471,-3.3982,-3.49,-3.6329,-3.6405,-3.6307,-3.6063,-3.4575,-3.3071,0.0,0.0,0.0,0.0,0.0,0.0,0.0,0.0,0.0,0.0,0.0,0.0,0.0,0.0,0.0,0.0,0.0,0.0,0.0,0.0,0.0,0.0,0.0,0.0,0.0,0.0,0.0,0.0,0.0,0.0,0.0,0.0,0.0,0.0,0.0,0.0,0.0,0.0,0.0,0.0,0.0,-3.2419,-3.3312,-3.3504,0.0,0.0,0.0,0.0,-3.3962,-3.4425,0.0,0.0,0.0,0.0,0.0,0.0,0.0,0.0,0.0,0.0,0.0,0.0,0.0,0.0,0.0,0.0,0.0,0.0,0.0,0.0,0.0,0.0,0.0,0.0,0.0,0.0,0.0,0.0,0.0,0.0,0.0,0.0,0.0,0.0,0.0,0.0,0.0,0.0,0.0,0.0,0.0,0.0,0.0,0.0,0.0,0.0,0.0,0.0,0.0,0.0,0.0,0.0,0.0,0.0,0.0,0.0,-3.3335,-3.3965,-3.49,-3.6304,-3.6405,-3.5918,-3.4999,-3.3997,-3.2533,0.0,0.0,0.0,0.0,0.0,0.0,0.0,0.0,0.0,0.0,0.0,0.0,0.0,0.0,0.0,0.0,0.0,0.0,0.0,0.0,0.0,0.0,0.0,0.0,0.0,0.0,0.0,0.0,0.0,0.0,0.0,0.0,0.0,0.0,0.0,0.0,0.0,0.0,0.0,0.0,0.0,-3.4242,-3.4992,-3.5526,-3.5654,0.0,0.0,0.0,-3.5598,-3.6455,0.0,0.0,0.0,0.0,0.0,0.0,0.0,0.0,0.0,0.0,0.0,0.0,0.0,0.0,0.0,0.0,0.0,0.0,0.0,0.0,0.0,0.0,0.0,0.0,0.0,0.0,0.0,0.0,0.0,0.0,0.0,0.0,0.0,0.0,0.0,0.0,0.0,0.0,0.0,0.0,0.0,0.0,0.0,0.0,0.0,0.0,0.0,0.0,0.0,0.0,0.0,0.0,0.0,0.0,0.0,-3.1823,-3.3829,-3.4277,-3.5118,-3.6355,-3.6405,-3.6185,-3.5724,-3.4098,-3.2651,0.0,0.0,0.0,0.0,0.0,0.0,0.0,0.0,0.0,0.0,0.0,0.0,0.0,0.0,0.0,0.0,0.0,0.0,0.0,0.0,0.0,0.0,0.0,0.0,0.0,0.0,0.0,0.0,0.0,0.0,0.0,0.0,0.0,0.0,0.0,0.0,0.0,0.0,0.0,0.0,0.0,0.0,-3.5282,-3.5938,0.0,0.0,0.0,-3.6319,-3.6575,0.0,0.0,0.0,0.0,0.0,0.0,0.0,0.0,0.0,0.0,0.0,0.0,0.0,0.0,0.0,0.0,0.0,0.0,0.0,0.0,0.0,0.0,0.0,0.0,0.0,0.0,0.0,0.0,0.0,0.0,0.0,0.0,0.0,0.0,0.0,0.0,0.0,0.0,0.0,0.0,0.0,0.0,0.0,0.0,0.0,0.0,0.0,0.0,0.0,0.0,0.0,0.0,0.0,0.0,0.0,0.0,0.0,-3.4204,-3.4546,-3.5253,-3.6355,-3.6405,-3.6329,-3.6132,-3.4237,0.0,0.0,0.0,0.0,0.0,0.0,0.0,0.0,0.0,0.0,0.0,0.0,0.0,0.0,0.0,0.0,0.0,0.0,0.0,0.0,0.0,0.0,0.0,0.0,0.0,0.0,0.0,-2.3702,0.0,0.0,0.0,0.0,0.0,0.0,0.0,0.0,0.0,0.0,0.0,0.0,0.0,0.0,-3.5331,-3.5769,-3.6489,-3.696,0.0,0.0,-3.7134,-3.7337,-3.7558,-3.7523,0.0,0.0,0.0,0.0,0.0,0.0,0.0,0.0,0.0,0.0,0.0,0.0,0.0,0.0,0.0,0.0,0.0,0.0,0.0,0.0,0.0,0.0,0.0,0.0,0.0,0.0,0.0,0.0,0.0,0.0,0.0,0.0,0.0,0.0,0.0,0.0,0.0,0.0,0.0,0.0,0.0,0.0,0.0,0.0,0.0,0.0,0.0,0.0,0.0,0.0,0.0,0.0,0.0,0.0,0.0,-3.3953,-3.4458,-3.5253,-3.6355,-3.6405,-3.6132,-3.5533,-3.4167,-3.2962,0.0,0.0,0.0,0.0,0.0,0.0,0.0,0.0,0.0,0.0,0.0,0.0,0.0,0.0,0.0,0.0,0.0,0.0,0.0,0.0,0.0,0.0,0.0,0.0,0.0,0.0,0.0,0.0,0.0,0.0,0.0,0.0,0.0,0.0,0.0,0.0,0.0,0.0,0.0,0.0,0.0,-3.6921,-3.6996,-3.8005,-3.8517,0.0,0.0,-3.8542,-3.804,-3.922,-3.9499,-3.745,0.0,0.0,0.0,0.0,0.0,0.0,0.0,0.0,0.0,0.0,0.0,0.0,0.0,0.0,0.0,0.0,0.0,0.0,0.0,0.0,0.0,0.0,0.0,0.0,0.0,0.0,0.0,0.0,0.0,0.0,0.0,0.0,0.0,0.0,0.0,0.0,0.0,0.0,0.0,0.0,0.0,0.0,0.0,0.0,0.0,0.0,0.0,0.0,0.0,0.0,0.0,0.0,0.0,-3.2097,-3.3953,-3.4128,-3.4751,-3.578,-3.5529,-3.5253,-3.5006,-3.3859,-3.2752,0.0,0.0,0.0,0.0,0.0,0.0,0.0,0.0,0.0,0.0,0.0,0.0,0.0,0.0,0.0,0.0,0.0,0.0,0.0,0.0,0.0,0.0,0.0,0.0,0.0,0.0,0.0,0.0,-2.7405,-2.7874,-2.8232,0.0,0.0,0.0,0.0,0.0,0.0,0.0,0.0,0.0,0.0,-3.7387,-3.784,-3.8489,0.0,0.0,-3.8944,-3.8919,-3.9019,-3.8994,-3.8718,-3.8,-3.7147,0.0,0.0,0.0,0.0,0.0,0.0,0.0,0.0,0.0,0.0,0.0,0.0,0.0,0.0,0.0,0.0,0.0,0.0,0.0,0.0,0.0,0.0,0.0,0.0,0.0,0.0,0.0,0.0,0.0,0.0,0.0,0.0,0.0,0.0,0.0,0.0,0.0,0.0,0.0,0.0,0.0,0.0,0.0,0.0,0.0,0.0,0.0,0.0,0.0,0.0,0.0,0.0,-3.1941,-3.3663,-3.3824,-3.4349,-3.5232,-3.4881,-3.4605,-3.4449,-3.3571,-3.2626,0.0,0.0,0.0,0.0,0.0,0.0,0.0,0.0,0.0,0.0,0.0,0.0,0.0,0.0,0.0,0.0,0.0,0.0,0.0,0.0,0.0,0.0,0.0,0.0,0.0,0.0,0.0,0.0,-2.7814,-2.8291,-2.9,0.0,0.0,0.0,0.0,0.0,0.0,0.0,0.0,0.0,0.0,-3.7954,-3.8536,-3.8919,-3.927,-3.9647,-3.9371,-3.9296,-3.9622,-3.9019,-3.8517,-3.8638,0.0,0.0,0.0,0.0,0.0,0.0,0.0,0.0,0.0,0.0,0.0,0.0,0.0,0.0,0.0,0.0,0.0,0.0,0.0,0.0,0.0,0.0,0.0,0.0,0.0,0.0,0.0,0.0,0.0,0.0,-2.5364,0.0,0.0,0.0,0.0,0.0,0.0,0.0,0.0,0.0,0.0,0.0,0.0,0.0,0.0,0.0,0.0,0.0,0.0,0.0,0.0,0.0,0.0,-3.1707,-3.2905,-3.3561,-3.4173,-3.468,-3.468,-3.4449,-3.3947,-3.337,-3.2693,-3.1721,0.0,0.0,0.0,0.0,0.0,0.0,0.0,0.0,0.0,0.0,0.0,0.0,0.0,0.0,0.0,0.0,0.0,0.0,0.0,0.0,0.0,0.0,0.0,0.0,0.0,0.0,-2.7184,-2.7732,-2.8482,0.0,0.0,0.0,0.0,0.0,0.0,0.0,0.0,0.0,0.0,-3.7934,-3.8832,-3.9144,-3.9474,-3.9672,-3.9697,-3.9672,-3.9672,-3.9697,-3.9647,-3.9574,0.0,0.0,0.0,0.0,0.0,0.0,0.0,0.0,0.0,0.0,0.0,0.0,0.0,0.0,0.0,0.0,0.0,0.0,0.0,0.0,0.0,0.0,0.0,0.0,0.0,0.0,0.0,-2.6714,-2.8108,0.0,0.0,0.0,0.0,0.0,0.0,0.0,0.0,0.0,0.0,0.0,-3.1421,-3.2136,0.0,0.0,0.0,0.0,0.0,0.0,0.0,0.0,0.0,0.0,0.0,0.0,-3.1836,-3.2838,-3.3182,-3.3621,-3.4148,-3.3822,-3.3721,-3.3897,-3.3413,-3.2668,-3.1721,0.0,0.0,0.0,0.0,0.0,0.0,0.0,0.0,0.0,0.0,0.0,0.0,0.0,0.0,0.0,0.0,0.0,0.0,0.0,0.0,0.0,0.0,0.0,0.0,0.0,-2.7988,0.0,0.0,0.0,0.0,0.0,0.0,0.0,0.0,0.0,0.0,0.0,-3.6482,-3.7912,-3.8628,-3.917,-3.9474,-3.9623,-3.9697,0.0,0.0,0.0,0.0,0.0,0.0,0.0,0.0,0.0,0.0,0.0,0.0,0.0,0.0,-3.5634,-3.3569,-3.3071,-3.3053,-3.3442,0.0,0.0,0.0,0.0,0.0,0.0,0.0,0.0,0.0,0.0,0.0,0.0,0.0,0.0,0.0,0.0,-3.0995,0.0,0.0,0.0,0.0,0.0,0.0,0.0,0.0,-3.2484,-3.3039,-3.3024,-3.352,-3.37,0.0,-3.2338,-3.1185,0.0,0.0,0.0,0.0,0.0,0.0,0.0,0.0,-3.1755,-3.2475,-3.2861,-3.3287,-3.3571,-3.3312,-3.3244,-3.3596,-3.3068,-3.2701,-3.2458,-3.163,-3.0853,0.0,0.0,0.0,0.0,0.0,0.0,0.0,0.0,0.0,0.0,0.0,0.0,0.0,0.0,0.0,0.0,0.0,0.0,0.0,0.0,0.0,0.0,0.0,-2.8666,0.0,0.0,0.0,0.0,0.0,0.0,0.0,0.0,0.0,-3.5184,-3.6359,-3.7574,-3.8732,-3.9195,-3.9423,-3.9698,0.0,0.0,0.0,0.0,0.0,0.0,0.0,-3.9923,-4.045,-4.0406,-4.046,-4.1121,-4.0897,-4.044,-3.9854,0.0,0.0,-3.6097,-3.5519,-3.5532,-3.589,-3.6146,-3.6606,-3.768,-3.8063,-3.8347,0.0,0.0,0.0,0.0,0.0,0.0,0.0,0.0,-3.0871,-3.165,0.0,-3.2743,0.0,0.0,0.0,0.0,0.0,-3.2376,0.0,0.0,-3.347,-3.4079,-3.428,-3.4857,-3.4857,-3.4255,-3.3862,-3.3427,-3.2787,-3.0615,0.0,0.0,0.0,0.0,0.0,0.0,-3.1522,-3.1772,-3.2626,-3.3136,-3.3119,-3.3162,-3.3162,-3.3144,-3.2616,-3.2817,-3.3771,-3.2508,-3.1772,-3.1696,-3.0097,0.0,0.0,0.0,0.0,0.0,0.0,0.0,0.0,0.0,0.0,0.0,0.0,0.0,0.0,0.0,0.0,0.0,0.0,0.0,0.0,-2.849,0.0,0.0,0.0,0.0,0.0,0.0,0.0,0.0,0.0,0.0,-3.5973,-3.739,-3.8588,-3.9145,0.0,0.0,0.0,0.0,-3.9923,-4.0475,-4.0551,-4.0777,-4.1225,-4.1326,-4.1555,-4.2162,0.0,0.0,-4.327,-4.2946,-4.2413,-4.1881,-4.1375,-4.054,-3.9164,-3.8679,-3.8602,-3.8679,-3.9062,-3.9597,-3.9699,-4.0032,-4.0338,-3.0942,0.0,0.0,0.0,0.0,-3.0952,-3.2207,-3.3891,-3.4131,-3.4499,-3.4898,-3.5025,0.0,0.0,0.0,0.0,0.0,0.0,-3.4136,-3.4185,-3.499,-3.5259,-3.5123,-3.5722,-3.597,-3.5743,-3.481,-3.4527,-3.4609,-3.2482,-3.1303,-3.1073,0.0,0.0,0.0,0.0,-3.2209,-3.2288,-3.2802,-3.3312,-3.3646,-3.3671,-3.3872,-3.4248,-3.4098,-3.3972,-3.3897,-3.3488,-3.2945,-3.2263,-3.1411,0.0,0.0,0.0,0.0,0.0,0.0,0.0,0.0,0.0,0.0,0.0,0.0,0.0,0.0,0.0,0.0,0.0,0.0,0.0,-2.9193,-3.0267,-3.1071,0.0,0.0,0.0,0.0,0.0,0.0,0.0,0.0,0.0,-3.7096,-3.7676,-3.8466,0.0,0.0,-3.9823,-4.0224,-4.0275,-4.0475,-4.0974,0.0,0.0,0.0,-4.2258,-4.2685,-4.3237,-4.3664,-4.3966,-4.4174,-4.413,-4.3979,-4.3803,-4.335,-4.2796,-4.2347,-4.0711,-3.9676,-3.9903,-4.0156,-4.0534,-4.1294,-4.1622,-4.1771,-3.4459,-3.287,-3.1673,-3.173,-3.2632,-3.3414,-3.4612,-3.6062,-3.6142,-3.6333,-3.6579,-3.6525,-3.5871,-3.481,-3.481,0.0,0.0,0.0,-3.5644,-3.58,-3.6197,-3.6348,-3.6232,-3.6533,-3.6606,-3.638,-3.5479,-3.5282,-3.583,-3.4073,-3.3164,-3.2953,0.0,0.0,-3.2173,-3.2428,-3.2676,-3.3063,-3.3287,-3.3671,-3.4198,-3.4223,-3.4374,-3.47,-3.4525,-3.4449,-3.455,-3.4349,-3.3941,-3.3374,-3.2702,-3.1563,0.0,0.0,0.0,0.0,0.0,0.0,0.0,0.0,0.0,0.0,0.0,-2.6091,0.0,0.0,0.0,0.0,-2.8836,-2.9527,-3.0478,-3.1428,0.0,0.0,0.0,0.0,0.0,0.0,0.0,-3.6032,-3.7228,-3.8081,-3.8157,-3.8465,-3.9019,-3.9898,-4.0023,-4.0199,-4.0777,0.0,-4.1103,-4.1882,-4.2258,-4.269,-4.3062,-4.3413,-4.3815,-4.4367,-4.492,-4.5271,-4.5296,-4.5296,-4.5221,-4.497,-4.4493,-4.4066,-4.384,-4.2233,-4.1078,-4.143,-4.1505,-4.1806,-4.2635,-4.2866,-4.2961,-3.7825,-3.7464,-3.3816,-3.3105,-3.45,-3.5362,-3.6252,-3.7107,-3.7279,-3.7423,-3.7567,-3.7353,-3.7045,-3.6687,-3.6659,0.0,-3.5393,-3.6472,-3.7046,-3.7232,-3.7248,-3.726,-3.7236,-3.7236,-3.6985,-3.6531,-3.5931,-3.5931,-3.6405,-3.5328,-3.5031,-3.5458,-3.3164,-3.2456,-3.3343,-3.2921,-3.3089,-3.3872,-3.3947,-3.4223,-3.4776,-3.4826,-3.4826,-3.4801,-3.4299,-3.4455,-3.5382,-3.4981,-3.4776,-3.47,-3.3827,-3.2642,-3.1102,0.0,0.0,0.0,0.0,0.0,0.0,0.0,0.0,0.0,0.0,0.0,0.0,0.0,0.0,0.0,-3.0495,0.0,-3.1578,-3.2306,0.0,0.0,0.0,-3.4919,-3.5526,-3.6044,-3.6785,-3.7807,0.0,0.0,-3.9019,0.0,-3.9948,-4.0501,-4.0601,-4.0777,-4.1275,-4.1401,-4.1856,-4.2861,-4.3137,-4.3539,-4.4418,-4.4694,-4.492,-4.5397,-4.5974,-4.6225,-4.6225,-4.625,-4.6075,-4.5547,-4.5045,-4.4518,-4.3966,-4.3413,-4.3112,-4.3087,-4.3037,-4.3162,-4.3614,-4.3765,-4.394,-3.8405,-3.8282,-3.7337,-3.7133,-3.7385,-3.7597,-3.8113,-3.8725,-3.8797,-3.8597,-3.8163,-3.812,-3.7795,-3.7268,-3.7268,-3.7389,-3.7628,-3.7527,-3.778,-3.8314,-3.7925,-3.7752,-3.7789,-3.7814,-3.7739,-3.7588,-3.7061,-3.686,-3.6935,-3.5834,-3.5629,-3.6056,-3.472,-3.3935,-3.3809,-3.4042,-3.4092,-3.3897,-3.4324,-3.4756,-3.5307,-3.5755,-3.578,-3.5307,-3.5182,-3.5031,-3.4906,-3.5157,-3.5107,-3.4726,-3.4117,-3.3273,-3.2203,-3.0637,0.0,0.0,0.0,0.0,0.0,0.0,0.0,0.0,0.0,-2.817,-2.9155,0.0,-3.0124,0.0,-3.1792,-3.2802,-3.3269,-3.4218,0.0,0.0,-3.5745,-3.6472,-3.7241,-3.7613,-3.7975,-3.8229,-3.8817,-3.9146,-3.8995,-3.9774,-4.0526,-4.1025,-4.11,-4.1354,-4.1882,-4.2333,-4.2811,-4.3514,-4.4292,-4.497,-4.5221,-4.5648,-4.5924,-4.61,-4.6225,-4.6301,-4.6326,-4.6326,-4.6125,-4.5623,-4.5397,-4.507,-4.4543,-4.4317,-4.4217,-4.4217,-4.389,-4.3639,-4.379,-4.4141,-4.4468,-3.889,-3.8917,-3.8917,-3.8863,-3.883,-3.883,-3.8993,-3.9319,-3.9319,-3.9129,-3.883,-3.8803,-3.8477,-3.7919,-3.8163,-3.8342,-3.8407,-3.8434,-3.866,-3.8991,-3.8735,-3.8492,-3.836,-3.8385,-3.8212,-3.799,-3.7688,-3.7563,-3.7513,-3.6684,-3.6433,-3.6757,-3.5881,-3.5177,-3.463,-3.4655,-3.4801,-3.4977,-3.5303,-3.5604,-3.5906,-3.5956,-3.573,-3.5157,-3.4906,-3.4675,-3.4374,-3.465,-3.4675,-3.4374,-3.4073,-3.3438,-3.2416,-3.1458,-3.0509,0.0,0.0,0.0,0.0,0.0,0.0,0.0,0.0,0.0,0.0,0.0,-3.1578,-3.218,-3.3388,-3.4299,-3.46,-3.5629,-3.6329,-3.6471,-3.7203,-3.7857,-3.8307,-3.8715,-3.8969,-3.8969,-3.9423,-3.9572,-3.932,-4.0199,-4.0978,-4.125,-4.1756,-4.2183,-4.2484,-4.2986,-4.3539,-4.4091,-4.492,-4.5598,-4.5799,-4.61,-4.6326,-4.6326,-4.6326,-4.6326,-4.6326,-4.6326,-4.62,-4.5899,-4.5673,-4.5397,-4.507,-4.4769,-4.4618,-4.4618,-4.4593,-4.4543,-4.4568,-4.4794,-4.5045,-3.9319,-3.9319,-3.9319,-3.9319,-3.9319,-3.9319,-3.9319,-3.9319,-3.9319,-3.9319,-3.9319,-3.9319,-3.902,-3.8559,-3.9074,-3.902,-3.857,-3.9122,-3.9401,-3.9415,-3.947,-3.9254,-3.8874,-3.8923,-3.8679,-3.8212,-3.8114,-3.8063,-3.7988,-3.7536,-3.7262,-3.7161,-3.6832,-3.6332,-3.5809,-3.5378,-3.5529,-3.6405,-3.6405,-3.6405,-3.6405,-3.5906,-3.5307,-3.4751,-3.4324,-3.4048,-3.3897,-3.3972,-3.4022,-3.3997,-3.3947,-3.3445,-3.2491,-3.2003,-3.1367,0.0,-3.0663,0.0,0.0,0.0,0.0,0.0,0.0,0.0,0.0,-3.2138,-3.3093,-3.4123,-3.5152,-3.5734,-3.5809,-3.6784,-3.7412,-3.7412,-3.8341,-3.8969,-3.9045,-3.9396,-3.9697,-3.9697,-3.9697,-3.9697,-3.9722,-4.0651,-4.1275,-4.1351,-4.2233,-4.2861,-4.3011,-4.3489,-4.4066,-4.4568,-4.5171,-4.5799,-4.6175,-4.6301,-4.6326,-4.6326,-4.6326,-4.6326,-4.6326,-4.6326,-4.6276,-4.615,-4.5849,-4.5598,-4.5522,-4.5121,-4.4895,-4.4861,-4.5271,-4.5497,-4.5422,-4.5397,-4.5673,-3.9319,-3.9319,-3.9319,-3.9319,-3.9319,-3.9319,-3.9319,-3.9319,-3.9319,-3.9319,-3.9319,-3.9319,-3.9237,-3.9156,-3.9237,-3.9237,-3.9156,-3.9284,-3.9347,-3.9389,-3.9402,-3.9412,-3.9355,-3.9381,-3.9332,-3.9188,-3.8825,-3.8375,-3.7916,-3.7884,-3.7613,-3.7211,-3.7538,-3.7638,-3.7538,0.0,0.0,0.0,-3.6405,-3.6405,-3.6405,-3.6304,-3.573,-3.4731,-3.5006,0.0,-3.3972,-3.4324,-3.4575,-3.4505,-3.4148,0.0,0.0,0.0,0.0,0.0,0.0,0.0,0.0,0.0,0.0,0.0,-3.3606,-3.353,-3.3571,-3.4363,-3.5177,-3.5877,-3.6508,-3.7061,-3.7513,-3.814,-3.8592,-3.8617,-3.9145,-3.9546,-3.9546,-3.9647,-3.9697,-3.9697,-3.9697,-3.9697,-3.9823,-4.0651,-4.1275,-4.1376,-4.2283,-4.2936,-4.2986,-4.379,-4.4468,-4.4669,-4.5472,-4.615,-4.6301,-4.6326,-4.6326,-4.6326,-4.6326,-4.6326,-4.6326,-4.6326,-4.6125,-4.5799,-4.5924,-4.5999,-4.5598,-4.5748,-4.5924,-4.5974,-4.605,-4.6024,-4.5598,-4.5497,-4.5648,-3.9319,0.0,-3.9319,-3.9319,0.0,-3.9319,-3.9319,-3.9319,-3.9319,-3.9319,-3.9319,-3.9319,-3.9319,-3.9319,-3.9319,-3.9319,-3.9319,-3.9319,-3.932,-3.9347,-3.9347,-3.9394,-3.9438,-3.9438,-3.9475,-3.9499,-3.9236,-3.8994,-3.8725,-3.8507,-3.8261,-3.8015,-3.8015,-3.799,-3.799,-3.799,-3.7588,-3.6807,-3.6531,-3.6405,-3.6405,-3.6107,-3.568,-3.5107,0.0,0.0,0.0,0.0,0.0,0.0,0.0,0.0,0.0,0.0,0.0,-3.3197,-3.3579,-3.3672,-3.3419,-3.39,-3.4515,-3.5234,-3.5789,-3.5865,-3.5335,-3.5927,-3.6584,-3.7136,-3.7688,-3.819,-3.8417,-3.8944,-3.9321,-3.9295,-3.9521,-3.9697,-3.9697,-3.9697,-3.9823,-4.0023,-3.9848,-3.9873,-4.045,-4.0953,-4.1376,-4.1731,-4.2434,-4.2986,-4.3062,-4.3664,-4.4367,-4.4945,-4.5723,-4.6301,-4.6326,-4.6326,-4.6326,-4.6326,-4.6326,-4.6326,-4.6326,-4.6326,-4.62,-4.5974,-4.6125,-4.62,-4.5999,-4.6125,-4.6326,-4.6326,-4.6326,-4.625,-4.5949,-4.5899,-4.5874,-3.9319,-3.9319,-3.9319,-3.9319,-3.9319,-3.9319,-3.9319,-3.9319,0.0,0.0,0.0,-3.9319,-3.9319,-3.9319,-3.9319,-3.9319,-3.9319,-3.9319,-3.9319,-3.9319,-3.9319,-3.9339,-3.9413,-3.9367,-3.9422,-3.9449,-3.9459,-3.9455,-3.9429,-3.9079,-3.8912,-3.8868,-3.8466,-3.8291,-3.8291,-3.8216,-3.7939,-3.7487,-3.6883,-3.6505,-3.6405,-3.5931,-3.5583,-3.5508,-3.5056,-3.46,-3.4073,-3.4048,-3.3847,-3.3395,-3.337,-3.3571,-3.3997,-3.4148,-3.4198,-3.4198,-3.4801,-3.4926,-3.4399,-3.4951,-3.568,-3.6631,-3.7588,-3.7739,-3.6782,-3.7161,-3.7663,-3.8115,-3.8693,-3.907,-3.907,-3.9421,-3.9697,-3.9697,-3.9697,-3.9697,-3.9697,-3.9697,-3.9898,-4.035,-4.0124,-4.0199,-4.11,-4.1351,-4.163,-4.2162,-4.2665,-4.3037,-4.3162,-4.3664,-4.4367,-4.5271,-4.5924,-4.6326,-4.6326,-4.6326,-4.6326,-4.6326,-4.6326,-4.6326,-4.6326,-4.6326,-4.6326,-4.6276,-4.6301,-4.6301,-4.6301,-4.6301,-4.6326,-4.6326,-4.6326,-4.6326,-4.6326,-4.6301,-4.6125,-3.9319,-3.9319,-3.9319,-3.9319,-3.9319,-3.9319,-3.9319,-3.9319,-3.9319,-3.9319,-3.9319,-3.9319,-3.9319,-3.9319,-3.9319,-3.9319,-3.9319,-3.9319,-3.9319,0.0,-3.9319,-3.9301,-3.9338,-3.9293,-3.9347,-3.9321,-3.9394,-3.919,-3.8813,-3.9239,-3.9288,-3.8911,-3.9222,-3.9421,-3.9421,-3.8994,-3.8718,-3.8617,-3.7613,-3.6883,-3.643,-3.6329,-3.6006,-3.5533,-3.5433,-3.5132,-3.465,-3.458,-3.4575,-3.45,-3.45,-3.4525,-3.4625,-3.5006,-3.5282,-3.5332,-3.6282,-3.6584,-3.6128,-3.696,-3.7613,-3.7789,-3.8391,-3.8517,-3.7864,-3.8316,-3.8718,-3.8818,-3.9245,-3.9572,-3.9597,-3.9647,-3.9697,-3.9697,-3.9697,-3.9697,-3.9697,-3.9722,-3.9948,-4.0475,-4.0475,-4.0573,-4.125,-4.1756,-4.2087,-4.2263,-4.2715,-4.3137,-4.3614,-4.4166,-4.4744,-4.5372,-4.5949,-4.6276,-4.6326,-4.6326,-4.6326,-4.6326,-4.6326,-4.6326,-4.6326,-4.6326,-4.6326,-4.6326,-4.6326,-4.6326,-4.6326,-4.6326,-4.6326,-4.6326,-4.6326,-4.6326,-4.6301,-4.6301,-4.61,-3.9319,-3.9319,-3.9319,-3.9319,-3.9319,-3.9319,-3.9319,-3.939,-4.009,-3.9946,-3.9319,-3.9319,-3.9319,-3.9319,-3.9319,-3.9319,-3.9319,-3.9319,-3.9319,-3.9319,-3.9319,-3.9319,-3.9319,-3.9319,-3.9319,-3.9274,-3.9366,-3.9256,-3.907,-3.9318,-3.9377,-3.9239,-3.947,-3.9626,-3.9698,-3.9446,-3.9221,-3.8919,-3.804,-3.7362,-3.6883,-3.6857,-3.6533,-3.6006,-3.5981,-3.5881,-3.5629,-3.5629,-3.5629,-3.5629,-3.5604,-3.5755,-3.6031,-3.6006,-3.6132,-3.6408,-3.6609,-3.6759,-3.6857,-3.7839,-3.8492,-3.8492,-3.8994,-3.922,-3.8944,-3.917,-3.932,-3.932,-3.9546,-3.9697,-3.9697,-3.9697,-3.9697,-3.9697,-3.9697,-3.9697,-3.9722,-3.9998,-4.035,-4.0852,-4.0924,-4.1279,-4.2133,-4.2183,-4.2363,-4.259,-4.2916,-4.3187,-4.374,-4.4267,-4.4819,-4.5397,-4.5949,-4.6276,-4.6326,-4.6326,-4.6326,-4.6326,-4.6326,-4.6326,-4.6326,-4.6326,-4.6326,-4.6326,-4.6326,-4.6326,-4.6326,-4.6326,-4.6326,-4.6326,-4.6326,-4.6326,-4.6301,-4.61,-4.5673,-3.9699,-3.9699,-3.9563,-3.9427,-3.9319,-3.9454,-3.9598,-3.9847,-4.103,-4.0941,-4.0039,-3.9786,-3.983,-3.9895,-3.9516,-3.9373,-3.9481,-3.9509,-3.9427,-3.9319,-3.9454,-3.9427,-3.9319,-3.9319,-3.9319,-3.9319,-3.9319,-3.9312,-3.9379,-3.9401,-3.9447,-3.9525,-3.9535,-3.965,-3.9701,-3.9698,-3.9471,-3.912,-3.8617,-3.8065,-3.7412,-3.7387,-3.7159,-3.6631,-3.6606,-3.6581,-3.6533,-3.6458,-3.6508,-3.6757,-3.6656,-3.6832,-3.7312,-3.7134,-3.7159,-3.7462,-3.7335,-3.7335,-3.7739,-3.8492,-3.8969,-3.9069,-3.9446,-3.9697,-3.9697,-3.9697,-3.9697,-3.9697,-3.9697,-3.9697,-3.9697,-3.9697,-3.9697,-3.9697,-3.9697,-3.9772,-3.9898,-4.0249,-4.0802,-4.1354,-4.1505,-4.1907,-4.2635,-4.2665,-4.259,-4.2861,-4.3087,-4.3388,-4.3915,-4.4468,-4.502,-4.5573,-4.605,-4.6276,-4.6326,-4.6326,-4.6326,-4.6326,-4.6326,-4.6326,-4.6326,-4.6326,-4.6326,-4.6326,-4.6326,-4.6326,-4.6326,-4.6326,-4.6326,-4.6326,-4.6326,-4.6326,-4.6301,-4.6024,-4.5397,-4.0947,-4.0865,-4.0368,-3.978,-3.9499,-3.9961,-4.0584,-4.1202,-4.1892,-4.2043,-4.1959,-4.1385,-4.1469,-4.1657,-4.0093,-3.9662,-4.0051,-4.0106,-3.9834,-3.9427,-3.9861,-3.9834,-3.94,-3.9319,-3.9319,-3.9319,-3.9319,-3.9301,-3.9347,-3.9371,-3.9421,-3.9525,-3.9535,-3.9596,-3.9624,-3.9677,-3.9647,-3.9622,-3.9572,-3.9019,-3.8015,-3.7939,-3.7688,-3.7136,-3.7111,-3.7159,-3.7136,-3.6681,-3.6835,-3.7713,-3.7387,-3.7362,-3.7889,-3.8366,-3.8693,-3.8743,-3.9094,-3.9421,-3.9396,-3.9145,-3.9094,-3.9546,-3.9647,-3.9697,-3.9697,-3.9697,-3.9697,-3.9697,-3.9697,-3.9697,-3.9697,-3.9697,-3.9697,-3.9697,-3.9697,-3.9873,-4.0325,-4.0501,-4.0927,-4.2037,-4.2112,-4.2363,-4.2836,-4.2886,-4.2886,-4.2961,-4.3363,-4.3815,-4.4392,-4.4945,-4.5522,-4.6024,-4.6301,-4.6301,-4.6326,-4.6326,-4.6326,-4.6326,-4.6326,-4.6326,-4.6326,-4.6326,-4.6326,-4.6326,-4.6326,-4.6326,-4.6326,-4.6326,-4.6326,-4.6326,-4.6326,-4.6326,-4.6326,-4.6225,-4.5648,-4.2985,-4.2884,-4.1817,-4.1442,-4.1726,-4.2782,-4.3156,-4.3215,-4.4588,-4.5027,-4.471,-4.4768,-4.3647,-4.159,-4.1131,-4.0748,-4.026,-4.0567,-4.0404,-3.9916,-4.0458,-4.0621,-4.0377,-3.997,-3.9807,-3.978,-3.9481,-3.9319,-3.9301,-3.9339,-3.9379,-3.9453,-3.9507,-3.9582,-3.9596,-3.9651,-3.9697,-3.9697,-3.9697,-3.9471,-3.9019,-3.8693,-3.8241,-3.7739,-3.7663,-3.7839,-3.809,-3.7638,-3.7839,-3.8868,-3.8467,-3.8442,-3.8969,-3.8919,-3.8919,-3.8944,-3.9069,-3.9195,-3.9195,-3.9295,-3.9446,-3.9697,-3.9697,-3.9697,-3.9697,-3.9697,-3.9697,-3.9697,-3.9697,-3.9697,-3.9697,-3.9697,-3.9697,-3.9697,-3.9697,-3.9923,-4.045,-4.0774,-4.1329,-4.2112,-4.2489,-4.2766,-4.2911,-4.2986,-4.2986,-4.3037,-4.3463,-4.4016,-4.4568,-4.5121,-4.5698,-4.6175,-4.6326,-4.6326,-4.6326,-4.6326,-4.6326,-4.6326,-4.6326,-4.6326,-4.6326,-4.6326,-4.6326,-4.6326,-4.6326,-4.6326,-4.6326,-4.6326,-4.6326,-4.6326,-4.6326,-4.6326,-4.6326,-4.6326,-4.5698,-4.5075,-4.4869,-4.3754,-4.3487,-4.3888,-4.5035,-4.5401,-4.5322,-4.6865,-4.7252,-4.69,-4.7566,-4.5982,-4.3055,-4.2793,-4.2199,-4.1442,-4.1755,-4.1645,-4.1149,-4.17,-4.1755,-4.1379,-4.0968,-4.0659,-4.0395,-3.9834,-3.9563,-3.9536,-3.9536,-3.96,-3.96,-3.9728,-3.967,-3.9589,-3.9652,-3.9697,-3.9697,-3.9697,-3.9697,-3.9622,-3.9295,-3.8818,-3.8291,-3.8241,-3.8442,-3.8869,-3.8316,-3.8542,-3.9597,-3.917,-3.912,-3.9622,-3.9295,-3.9094,-3.9145,-3.9094,-3.9145,-3.9145,-3.9471,-3.9697,-3.9697,-3.9697,-3.9697,-3.9697,-3.9697,-3.9697,-3.9697,-3.9823,-3.9898,-3.9697,-3.9697,-3.9697,-3.9697,-3.9798,-4.0149,-4.0701,-4.1229,-4.1781,-4.2363,-4.2791,-4.2986,-4.2986,-4.2986,-4.3037,-4.3237,-4.3689,-4.4242,-4.4794,-4.5372,-4.5874,-4.625,-4.6301,-4.6326,-4.6326,-4.6326,-4.6326,-4.6326,-4.6326,-4.6326,-4.6326,-4.6326,-4.6326,-4.6326,-4.6326,-4.6326,-4.6326,-4.6326,-4.6326,-4.6326,-4.6326,-4.6326,-4.6326,-4.6326,-4.5999,-4.6947,-4.688,-4.6289,-4.5734,-4.5293,-4.6027,-4.6582,-4.7222,-4.7926,-4.816,-4.824,-4.8907,-4.8316,-4.6642,-4.5104,-4.4155,-4.3963,-4.3975,-4.3617,-4.3149,-4.3645,-4.3347,-4.2182,-4.2081,-4.1745,-4.1028,-4.0458,-4.016,-4.016,-4.0133,-4.016,-4.015,-4.0261,-4.0047,-3.9592,-3.9651,-3.9672,-3.9698,-3.9724,-3.9697,-3.9697,-3.9647,-3.9371,-3.8894,-3.8843,-3.8919,-3.8894,-3.8316,-3.8542,-3.9672,-3.917,-3.912,-3.9622,-3.9672,-3.9622,-3.9622,-3.9647,-3.9647,-3.9622,-3.9672,-3.9697,-3.9697,-3.9697,-3.9697,-3.9697,-3.9697,-3.9722,-3.9722,-4.0149,-4.0224,-3.9898,-3.9823,-3.9772,-3.9798,-4.0174,-4.0598,-4.12,-4.1731,-4.2308,-4.276,-4.2936,-4.2986,-4.2986,-4.2986,-4.3212,-4.3639,-4.4217,-4.4744,-4.5271,-4.5874,-4.62,-4.6276,-4.6301,-4.6301,-4.6301,-4.6301,-4.6301,-4.6336,-4.6311,-4.6276,-4.6301,-4.6326,-4.6276,-4.6326,-4.6326,-4.6326,-4.6326,-4.6326,-4.6326,-4.6326,-4.6326,-4.6326,-4.6326,-4.6326,-4.605,-4.86,-4.7876,-4.8517,-4.8383,-4.7864,-4.8899,-4.9314,-4.9218,-4.9842,-4.9872,-4.9634,-5.0209,-4.9994,-4.9009,-4.7965,-4.6515,-4.496,-4.5213,-4.4841,-4.3967,-4.3998,-4.3798,-4.3324,-4.2499,-4.1961,-4.1645,-4.1082,-4.0784,-4.073,-4.0404,-4.0187,-4.0286,-4.0674,-4.0399,-3.968,-3.9973,-4.0033,-3.9677,-3.9701,-3.9697,-3.9697,-3.9697,-3.9597,-3.9421,-3.9396,-3.9396,-3.9396,-3.8868,-3.8919,-3.9672,-3.917,-3.917,-3.9622,-3.9697,-3.9697,-3.9697,-3.9697,-3.9697,-3.9697,-3.9697,-3.9697,-3.9697,-3.9697,-3.9697,-3.9697,-3.9697,-3.9823,-4.0174,-4.0375,-4.0501,-4.0676,-4.0425,-4.0224,-4.0249,-4.04,-4.0902,-4.163,-4.2112,-4.2439,-4.2836,-4.2986,-4.2986,-4.2986,-4.2986,-4.3187,-4.3714,-4.4267,-4.4844,-4.5397,-4.5949,-4.6326,-4.6326,-4.6301,-4.6355,-4.655,-4.6399,-4.6336,-4.633,-4.6399,-4.6374,-4.6374,-4.6467,-4.6509,-4.6311,-4.6326,-4.6326,-4.6326,-4.6326,-4.6326,-4.6326,-4.6326,-4.6326,-4.6326,-4.6326,-4.6125,-5.0024,-4.9373,-5.013,-5.0262,-4.9917,-5.0756,-5.096,-5.0554,-5.102,-5.0913,-5.0644,-5.102,-5.0913,-5.0541,-5.0092,-4.883,-4.6932,-4.687,-4.6463,-4.5837,-4.5539,-4.5164,-4.4565,-4.3518,-4.2724,-4.2243,-4.1679,-4.1408,-4.1354,-4.0974,-4.0784,-4.0819,-4.1266,-4.092,-4.0012,-4.0392,-4.0411,-3.98,-3.9855,-3.9903,-3.9749,-3.9697,-3.9697,-3.9697,-3.9697,-3.9697,-3.9697,-3.9346,-3.9346,-3.9572,-3.9346,-3.932,-3.9647,-3.9697,-3.9697,-3.9697,-3.9697,-3.9697,-3.9697,-3.9697,-3.9697,-3.9697,-3.9697,-3.9697,-3.9697,-3.9848,-4.0149,-4.045,-4.0902,-4.1204,-4.1229,-4.1153,-4.0978,-4.0877,-4.0927,-4.1329,-4.2087,-4.2363,-4.264,-4.2886,-4.2986,-4.2986,-4.3011,-4.3162,-4.3514,-4.3991,-4.4543,-4.5121,-4.5673,-4.605,-4.6326,-4.6326,-4.6326,-4.6355,-4.6425,-4.6355,-4.6535,-4.6623,-4.6576,-4.6542,-4.6535,-4.663,-4.6623,-4.6399,-4.6326,-4.6326,-4.6326,-4.6326,-4.6326,-4.6326,-4.6326,-4.6326,-4.6326,-4.6326,-4.6175,-5.1122,-5.1063,-5.1229,-5.1092,-5.1046,-5.1152,-5.1152,-5.1169,-5.1199,-5.1169,-5.1109,-5.1229,-5.1169,-5.1139,-5.093,-5.0598,-4.9789,-4.876,-4.8358,-4.8491,-4.8164,-4.7102,-4.5712,-4.506,-4.4031,-4.2813,-4.2249,-4.1978,-4.2005,-4.1869,-4.1815,-4.1937,-4.2006,-4.1469,-4.0334,-4.0913,-4.0735,-4.0026,-4.0159,-4.0185,-3.98,-3.9697,-3.9697,-3.9697,-3.9697,-3.9697,-3.9697,-3.9672,-3.9647,-3.9672,-3.9672,-3.9672,-3.9672,-3.9697,-3.9697,-3.9697,-3.9697,-3.9697,-3.9697,-3.9697,-3.9697,-3.9594,-3.9645,-3.9594,-3.954,-3.9992,-4.037,-4.0621,-4.1404,-4.1932,-4.1605,-4.1831,-4.1856,-4.148,-4.1706,-4.2062,-4.2313,-4.269,-4.2961,-4.2986,-4.2986,-4.2986,-4.3087,-4.3388,-4.389,-4.4443,-4.502,-4.5573,-4.605,-4.6276,-4.6301,-4.6326,-4.6301,-4.6355,-4.6345,-4.6345,-4.6721,-4.6948,-4.6814,-4.6714,-4.6656,-4.6637,-4.6623,-4.6417,-4.6301,-4.6326,-4.6326,-4.6326,-4.6326,-4.6326,-4.6326,-4.6326,-4.6326,-4.6326,-4.6326,-5.1229,-5.1229,-5.1229,-5.1229,-5.1229,-5.1229,-5.1229,-5.1229,-5.1229,-5.1229,-5.1229,-5.1229,-5.1229,-5.1109,-5.078,-5.0644,-5.0794,-4.9956,-4.9012,-4.8086,-4.8158,-4.7015,-4.5176,-4.495,-4.4268,-4.2991,-4.2304,-4.2222,-4.2466,-4.2222,-4.2005,-4.2066,-4.2457,-4.201,-4.0945,-4.1453,-4.1281,-4.032,-4.036,-4.0236,-3.9749,-3.9697,-3.9697,-3.9697,-3.9697,-3.9697,-3.9697,-3.9697,-3.9697,-3.9697,-3.9697,-3.9697,-3.9697,-3.9697,-3.9697,-3.9697,-3.9697,-3.9697,-3.9697,-3.9645,-3.949,-3.9206,-3.905,-3.8893,-3.868,-3.9438,-4.012,-4.0521,-4.1513,-4.2158,-4.2434,-4.261,-4.2514,-4.1957,-4.2112,-4.2389,-4.269,-4.2916,-4.2961,-4.2986,-4.2986,-4.2986,-4.3087,-4.3489,-4.4066,-4.4593,-4.5171,-4.5723,-4.615,-4.6326,-4.6326,-4.6326,-4.6336,-4.638,-4.6399,-4.6408,-4.6616,-4.6913,-4.6917,-4.6783,-4.6734,-4.674,-4.6721,-4.6518,-4.638,-4.6326,-4.6326,-4.6326,-4.6326,-4.6326,-4.6326,-4.6326,-4.6326,-4.6326,-4.6326,-5.1229,-5.1229,-5.1229,-5.1229,-5.1229,-5.1229,-5.1229,-5.1229,-5.1229,-5.1229,-5.1229,-5.1229,-5.1229,-5.1139,-5.0734,-5.0794,-5.1122,-5.0734,-4.9588,-4.8223,-4.8643,-4.7748,-4.5874,-4.5172,-4.4629,-4.3657,-4.2773,-4.2521,-4.2846,-4.2548,-4.2358,-4.2439,-4.2711,-4.2412,-4.1551,-4.1995,-4.1848,-4.0886,-4.0785,-4.0542,-4.0083,-3.98,-3.9697,-3.9697,-3.9697,-3.9697,-3.9697,-3.9697,-3.9697,-3.9697,-3.9697,-3.9697,-3.9697,-3.9697,-3.9697,-3.9697,-3.9697,-3.9594,-3.9258,-3.9154,-3.905,-3.8684,-3.8473,-3.8421,-3.8388,-3.9067,-3.9634,-4.0498,-4.1315,-4.2218,-4.2836,-4.2986,-4.2866,-4.2564,-4.2514,-4.2665,-4.2936,-4.2986,-4.2986,-4.2986,-4.2986,-4.3062,-4.3338,-4.3765,-4.4317,-4.4869,-4.5422,-4.5849,-4.6225,-4.6301,-4.6326,-4.6326,-4.6301,-4.639,-4.6467,-4.6568,-4.6576,-4.6803,-4.7009,-4.6846,-4.6676,-4.6917,-4.7009,-4.656,-4.6301,-4.6326,-4.6326,-4.6326,-4.6326,-4.6326,-4.6326,-4.6326,-4.6326,-4.6326,-4.6326,-5.1229,-5.1229,-5.1229,-5.1229,-5.1229,-5.1229,-5.1229,-5.1229,-5.1229,-5.1229,-5.1229,-5.1229,-5.1229,-5.1229,-5.1092,-5.1169,-5.1199,-5.1169,-5.0453,-4.9698,-4.9779,-4.9432,-4.8054,-4.5957,-4.4809,-4.4373,-4.3327,-4.2922,-4.2873,-4.2819,-4.29,-4.2846,-4.2819,-4.2629,-4.2249,-4.2629,-4.2339,-4.1382,-4.1284,-4.0971,-4.044,-3.9955,-3.9697,-3.9697,-3.9697,-3.9697,-3.9697,-3.9697,-3.9697,-3.9697,-3.9697,-3.9697,-3.9697,-3.9697,-3.9542,-3.949,-3.9594,-3.905,-3.8502,-3.8344,-3.8238,-3.808,-3.7726,-3.7708,-3.8176,-3.8443,-3.9032,-3.9965,-4.0752,-4.1595,-4.2488,-4.2749,-4.2805,-4.2961,-4.2886,-4.2936,-4.2961,-4.2986,-4.2986,-4.2986,-4.3011,-4.3162,-4.3664,-4.4192,-4.4769,-4.5321,-4.5849,-4.62,-4.6276,-4.6326,-4.6326,-4.6326,-4.6326,-4.6311,-4.6382,-4.6425,-4.6493,-4.6576,-4.6803,-4.6746,-4.6656,-4.6872,-4.6948,-4.656,-4.6326,-4.6326,-4.6326,-4.6326,-4.6326,-4.6326,-4.6326,-4.6326,-4.6326,-4.6326,-4.6326,-5.1229,-5.1229,-5.1229,-5.1229,-5.1229,-5.1229,-5.1229,-5.1229,-5.1229,-5.1229,-5.1229,-5.1229,-5.1229,-5.1229,-5.1229,-5.1229,-5.1229,-5.1229,-5.1122,-5.0756,-5.082,-4.9587,-4.773,-4.5881,-4.4477,-4.3636,-4.3203,-4.29,-4.29,-4.29,-4.29,-4.29,-4.29,-4.2819,-4.2711,-4.2792,-4.255,-4.1879,-4.1465,-4.1071,-4.0542,-4.0006,-3.9697,-3.9697,-3.9697,-3.9697,-3.9697,-3.9697,-3.9697,-3.9697,-3.9697,-3.9697,-3.9542,-3.9102,-3.8788,-3.8684,-3.8238,-3.7737,-3.7548,-3.7441,-3.7281,-3.6897,-3.6622,-3.6457,-3.6541,-3.728,-3.7915,-3.8651,-3.9465,-4.055,-4.146,-4.1799,-4.2115,-4.2855,-4.2986,-4.2986,-4.2986,-4.2986,-4.2986,-4.2986,-4.2986,-4.3288,-4.379,-4.4342,-4.4895,-4.5447,-4.5924,-4.6326,-4.6326,-4.6326,-4.6326,-4.6326,-4.6326,-4.6326,-4.6311,-4.6355,-4.6364,-4.6399,-4.6535,-4.663,-4.6501,-4.6493,-4.6518,-4.6336,-4.6301,-4.6326,-4.6326,-4.6326,-4.6326,-4.6326,-4.6326,-4.6326,-4.6326,-4.6326,-4.6326,-5.1229,-5.1229,-5.1229,-5.1229,-5.1229,-5.1229,-5.1229,-5.1229,-5.1229,-5.1229,-5.1229,-5.1229,-5.1229,-5.1229,-5.1229,-5.1229,-5.1229,-5.1229,-5.1229,-5.1229,-5.1199,-4.9994,-4.8093,-4.6547,-4.514,-4.3815,-4.3155,-4.2949,-4.29,-4.29,-4.29,-4.29,-4.29,-4.29,-4.2873,-4.29,-4.2776,-4.236,-4.1918,-4.1372,-4.0846,-4.0287,-3.9903,-3.98,-3.9697,-3.9697,-3.9697,-3.9697,-3.9542,-3.9258,-3.9102,-3.8998,-3.8659,-3.8502,-3.8238,-3.7921,-3.7684,-3.7382,-3.6539,-3.642,-3.6258,-3.5904,-3.5593,-3.5549,-3.5813,-3.6273,-3.6782,-3.7729,-3.8453,-3.9554,-4.0658,-4.1335,-4.1885,-4.2494,-4.2849,-4.2986,-4.2986,-4.2986,-4.2986,-4.3011,-4.3187,-4.3514,-4.4091,-4.4618,-4.5196,-4.5723,-4.61,-4.6276,-4.6326,-4.6326,-4.6326,-4.6326,-4.6326,-4.6326,-4.638,-4.6433,-4.639,-4.633,-4.639,-4.6493,-4.6459,-4.632,-4.6336,-4.6301,-4.6301,-4.6326,-4.6326,-4.6326,-4.6326,-4.6326,-4.6326,-4.6326,-4.6326,-4.6326,-4.6326,-5.1229,-5.1229,-5.1229,-5.1229,-5.1229,-5.1229,-5.1229,-5.1229,-5.1229,-5.1229,-5.1229,-5.1229,-5.1229,-5.1229,-5.1229,-5.1229,-5.1229,-5.1229,-5.1229,-5.1229,-5.1122,-5.0283,-4.8898,-4.7472,-4.6138,-4.4781,-4.3533,-4.3024,-4.29,-4.29,-4.29,-4.29,-4.29,-4.29,-4.29,-4.29,-4.29,-4.2728,-4.2262,-4.1819,-4.1322,-4.0744,-4.0236,-3.9955,-3.9749,-3.9697,-3.9697,-3.9645,-3.9411,-3.8546,-3.8498,-3.8344,-3.7737,-3.8185,-3.7868,-3.7257,-3.7334,-3.6851,-3.5759,-3.5432,-3.5334,-3.5143,-3.4694,-3.4682,-3.5257,-3.5533,-3.5879,-3.6779,-3.7524,-3.8601,-4.0074,-4.1242,-4.1793,-4.2061,-4.2457,-4.2762,-4.293,-4.2986,-4.2986,-4.3062,-4.3539,-4.4016,-4.4644,-4.5171,-4.5673,-4.5974,-4.625,-4.6276,-4.6326,-4.6326,-4.6326,-4.6326,-4.6326,-4.6326,-4.6364,-4.6459,-4.6433,-4.6355,-4.6311,-4.6364,-4.6459,-4.6374,-4.6311,-4.6326,-4.6326,-4.6326,-4.6326,-4.6326,-4.6326,-4.6326,-4.6326,-4.6326,-4.6326,-4.6326,-4.6326,-5.1229,-5.1229,-5.1229,-5.1229,-5.1229,-5.1229,-5.1229,-5.1229,-5.1229,-5.1229,-5.1229,-5.1229,-5.1259,-5.1259,-5.1289,-5.1229,-5.1259,-5.1259,-5.1229,-5.1229,-5.1229,-5.0389,-4.908,-4.7788,-4.6395,-4.4988,-4.356,-4.2949,-4.29,-4.29,-4.29,-4.29,-4.29,-4.29,-4.29,-4.29,-4.29,-4.2852,-4.2387,-4.2065,-4.1769,-4.1047,-4.0517,-4.0287,-3.998,-3.9774,-3.9697,-3.9697,-3.9457,-3.9234,-3.9269,-3.9278,-3.868,-3.7969,-3.7411,-3.6827,-3.5982,-3.5357,-3.4821,-3.4696,-3.4553,-3.4477,-3.4176,-3.4102,-3.4547,-3.4637,-3.4812,-3.5435,-3.617,-3.7497,-3.9182,-4.0607,-4.1019,-4.1124,-4.1402,-4.1745,-4.2256,-4.2706,-4.3025,-4.3407,-4.3683,-4.4166,-4.5095,-4.5347,-4.5773,-4.62,-4.6326,-4.6326,-4.6326,-4.6326,-4.6326,-4.6326,-4.6326,-4.6326,-4.6311,-4.6433,-4.6364,-4.6345,-4.6336,-4.6301,-4.6399,-4.6408,-4.6311,-4.6326,-4.6326,-4.6326,-4.6326,-4.6326,-4.6326,-4.6326,-4.6326,-4.6326,-4.6326,-4.6326,-4.6326,-5.1229,-5.1229,-5.1229,-5.1229,-5.1229,-5.1229,-5.1229,-5.1229,-5.1229,-5.1229,-5.1289,-5.1528,-5.1678,-5.1678,-5.1678,-5.1678,-5.1588,-5.1349,-5.1229,-5.1229,-5.1182,-5.0567,-4.9615,-4.842,-4.7062,-4.5244,-4.4298,-4.3636,-4.3127,-4.2949,-4.29,-4.29,-4.29,-4.29,-4.29,-4.29,-4.29,-4.2873,-4.2631,-4.2387,-4.1967,-4.1597,-4.1077,-4.0901,-4.0618,-4.0487,-4.0475,-4.0475,-4.0414,-4.0301,-4.0283,-3.9668,-3.8698,-3.8365,-3.7675,-3.5995,-3.6342,-3.5324,-3.4836,-3.4325,-3.4239,-3.4049,-3.3821,-3.3801,-3.4004,-3.4085,-3.4308,-3.4622,-3.5285,-3.6282,-3.7565,-3.9174,-3.9721,-3.9579,-4.0212,-4.0856,-4.1263,-4.1809,-4.2362,-4.2953,-4.3382,-4.3879,-4.451,-4.5176,-4.5814,-4.618,-4.6301,-4.6326,-4.6326,-4.6326,-4.6326,-4.6326,-4.6326,-4.6326,-4.6326,-4.6336,-4.6311,-4.6276,-4.6301,-4.6326,-4.6345,-4.6311,-4.6301,-4.6326,-4.6326,-4.6326,-4.6326,-4.6326,-4.6326,-4.6326,-4.6326,-4.6326,-4.6326,-4.6326,-4.6326,-5.1229,-5.1229,-5.1229,-5.1259,-5.1349,-5.1289,-5.1379,-5.1558,-5.1409,-5.1528,-5.1618,-5.2127,-5.2336,-5.2336,-5.2336,-5.2336,-5.2187,-5.1738,-5.1498,-5.1738,-5.1528,-5.1226,-5.0589,-4.985,-4.8537,-4.5946,-4.5453,-4.4705,-4.3636,-4.3203,-4.3279,-4.3024,-4.29,-4.29,-4.29,-4.29,-4.29,-4.29,-4.2852,-4.2679,-4.2289,-4.2092,-4.176,-4.1261,-4.1182,-4.1123,-4.1134,-4.1125,-4.1171,-4.1114,-4.1114,-3.9467,-3.7997,-3.8154,-3.8351,-3.5024,-3.6115,-3.5781,-3.464,-3.4218,-3.4049,-3.3739,-3.3675,-3.3587,-3.3579,-3.3771,-3.4002,-3.4248,-3.4733,-3.5392,-3.5784,-3.7462,-3.8021,-3.7868,-3.8942,-3.9748,-4.0177,-4.0493,-4.0916,-4.2412,-4.31,-4.3566,-4.4284,-4.5031,-4.5629,-4.6059,-4.618,-4.624,-4.624,-4.6301,-4.624,-4.6301,-4.6326,-4.6326,-4.6326,-4.6326,-4.6326,-4.6326,-4.6326,-4.6326,-4.6326,-4.6326,-4.6326,-4.6326,-4.6326,-4.6326,-4.6326,-4.6326,-4.6326,-4.6326,-4.6326,-4.6326,-4.6326,-4.6326,-4.6326,-5.1229,-5.1229,-5.1229,-5.1528,-5.1887,-5.1468,-5.1858,-5.2665,-5.2247,-5.2366,-5.2785,-5.2965,-5.3025,-5.3025,-5.3025,-5.3025,-5.2785,-5.2336,-5.2276,-5.2516,-5.2306,-5.2025,-5.2089,-5.1672,-5.056,-4.9203,-4.7722,-4.6127,-4.4809,-4.4629,-4.3712,-4.3052,-4.29,-4.29,-4.29,-4.29,-4.29,-4.29,-4.29,-4.2803,-4.2631,-4.2364,-4.1963,-4.1544,-4.1491,-4.1457,-4.1411,-4.1326,-4.1006,-4.0305,-4.0251,-3.8919,-3.7405,-3.7691,-3.7214,-3.5924,-3.5332,-3.5185,-3.4402,-3.3992,-3.3841,-3.3676,-3.3627,-3.3532,-3.3461,-3.3524,-3.3776,-3.3985,-3.4669,-3.5542,-3.6234,-3.6924,-3.7138,-3.7141,-3.7434,-3.8062,-3.8613,-3.8905,-3.9775,-4.1905,-4.2651,-4.3156,-4.3844,-4.4439,-4.4951,-4.5428,-4.5671,-4.5817,-4.5939,-4.6059,-4.624,-4.624,-4.6326,-4.6326,-4.6326,-4.6326,-4.6326,-4.6326,-4.6326,-4.6326,-4.6326,-4.6326,-4.6326,-4.6326,-4.6326,-4.6326,-4.6326,-4.6326,-4.6326,-4.6326,-4.6326,-4.6326,-4.6326,-4.6326,-4.6326,-5.1229,-5.1229,-5.1229,-5.1588,-5.2067,-5.1887,-5.2276,-5.3054,-5.2845,-5.2875,-5.3204,-5.3533,-5.3713,-5.3713,-5.3713,-5.3533,-5.3144,-5.2905,-5.2905,-5.3054,-5.2875,-5.2573,-5.2783,-5.2621,-5.1824,-5.0671,-4.9436,-4.7452,-4.512,-4.4146,-4.3663,-4.3127,-4.29,-4.29,-4.29,-4.29,-4.29,-4.29,-4.29,-4.29,-4.29,-4.2582,-4.2369,-4.2189,-4.2112,-4.2155,-4.2196,-4.2183,-4.1648,-4.0765,-4.0501,-3.8967,-3.7553,-3.6777,-3.6594,-3.548,-3.5225,-3.4934,-3.4465,-3.4031,-3.3861,-3.3698,-3.3808,-3.3851,-3.3877,-3.3945,-3.4023,-3.425,-3.4438,-3.52,-3.5445,-3.6181,-3.6263,-3.609,-3.6406,-3.7061,-3.7442,-3.7397,-3.8979,-4.0941,-4.0904,-4.146,-4.3113,-4.3692,-4.4178,-4.4645,-4.5037,-4.5306,-4.5489,-4.5793,-4.5999,-4.624,-4.6326,-4.6326,-4.6326,-4.6326,-4.6326,-4.6326,-4.6326,-4.6326,-4.6326,-4.6326,-4.6326,-4.6326,-4.6326,-4.6326,-4.6326,-4.6326,-4.6326,-4.6326,-4.6326,-4.6326,-4.6326,-4.6326,-4.6326,-5.1229,-5.1229,-5.1229,-5.1678,-5.2306,-5.2247,-5.2755,-5.3443,-5.3473,-5.3503,-5.3653,-5.4132,-5.4401,-5.4401,-5.4261,-5.3992,-5.3237,-5.3019,-5.294,-5.306,-5.2881,-5.2556,-5.2585,-5.2724,-5.2634,-5.1297,-5.0211,-4.8816,-4.5982,-4.454,-4.3518,-4.3003,-4.29,-4.29,-4.29,-4.29,-4.29,-4.29,-4.29,-4.29,-4.29,-4.2906,-4.2919,-4.289,-4.2917,-4.2863,-4.287,-4.2861,-4.1867,-4.0825,-4.0074,-3.9149,-3.6893,-3.6319,-3.5848,-3.5141,-3.5711,-3.5316,-3.48,-3.436,-3.4268,-3.4161,-3.4295,-3.4338,-3.4295,-3.4414,-3.4629,-3.4707,-3.489,-3.4812,-3.5001,-3.5551,-3.5611,-3.5409,-3.589,-3.6547,-3.6674,-3.6887,-3.7365,-3.85,-3.8678,-3.9669,-4.1208,-4.2097,-4.2454,-4.313,-4.3529,-4.436,-4.4607,-4.5281,-4.5671,-4.612,-4.6326,-4.6326,-4.6326,-4.6326,-4.6326,-4.6326,-4.6326,-4.6326,-4.6326,-4.6326,-4.6326,-4.6326,-4.6326,-4.6326,-4.6326,-4.6326,-4.6326,-4.6326,-4.6326,-4.6326,-4.6326,-4.6326,-4.6326,-5.1229,-5.1229,-5.1229,-5.1917,-5.2875,-5.2456,-5.3294,-5.473,-5.4311,-5.4431,-5.479,-5.497,-5.4999,-5.4889,-5.4999,-5.4259,-5.3263,-5.2612,-5.2771,-5.3195,-5.2712,-5.2641,-5.2973,-5.3694,-5.3099,-5.1745,-5.0138,-4.8468,-4.6648,-4.563,-4.449,-4.3372,-4.309,-4.2955,-4.3172,-4.3172,-4.29,-4.2928,-4.2955,-4.2982,-4.3009,-4.3009,-4.3045,-4.3024,-4.3037,-4.3075,-4.3182,-4.3169,-4.2098,-3.9786,-3.9252,-3.7868,-3.5868,-3.536,-3.5646,-3.5555,-3.5481,-3.5093,-3.4986,-3.484,-3.4813,-3.4699,-3.4735,-3.4707,-3.4707,-3.4766,-3.4844,-3.4707,-3.5059,-3.5156,-3.5,-3.525,-3.5387,-3.5446,-3.5591,-3.5961,-3.6119,-3.6348,-3.6938,-3.7092,-3.755,-3.8121,-3.9257,-3.9996,-4.0688,-4.1418,-4.2184,-4.3028,-4.3989,-4.4792,-4.5342,-4.5793,-4.624,-4.6326,-4.6326,-4.6326,-4.6326,-4.6326,-4.6326,-4.6326,-4.6326,-4.6326,-4.6326,-4.6326,-4.6326,-4.6326,-4.6326,-4.6326,-4.6326,-4.6326,-4.6326,-4.6326,-4.6326,-4.6326,-4.6326,-5.1229,-5.1229,-5.1229,-5.1977,-5.3084,-5.2875,-5.3683,-5.488,-5.491,-5.491,-5.5149,-5.5179,-5.4768,-5.4196,-5.4768,-5.4357,-5.3157,-5.2544,-5.3221,-5.3617,-5.3141,-5.3141,-5.4128,-5.447,-5.3852,-5.2067,-5.0558,-4.8909,-4.7355,-4.5879,-4.4611,-4.4112,-4.3877,-4.3986,-4.3796,-4.3877,-4.3932,-4.3959,-4.3932,-4.3904,-4.3932,-4.3909,-4.3926,-4.3877,-4.3904,-4.3887,-4.3906,-4.3932,-4.3038,-4.1111,-4.0257,-3.8826,-3.7164,-3.6206,-3.5758,-3.5911,-3.6062,-3.5817,-3.5491,-3.5231,-3.5156,-3.516,-3.5125,-3.5242,-3.5351,-3.5391,-3.5391,-3.5449,-3.5625,-3.5605,-3.5469,-3.5625,-3.5703,-3.5742,-3.5684,-3.5781,-3.5937,-3.5976,-3.6248,-3.6268,-3.6403,-3.7059,-3.7662,-3.8308,-3.9453,-4.0817,-4.1546,-4.2333,-4.3529,-4.4853,-4.5281,-4.555,-4.5999,-4.6326,-4.6326,-4.6326,-4.6326,-4.6326,-4.6326,-4.6326,-4.6326,-4.6326,-4.6326,-4.6326,-4.6326,-4.6326,-4.6326,-4.6326,-4.6326,-4.6326,-4.6326,-4.6326,-4.6326,-4.6326,-4.6326,-5.1229,-5.1229,-5.1229,-5.1887,-5.2935,-5.3114,-5.3832,-5.488,-5.5089,-5.5179,-5.5069,-5.4768,-5.3786,-5.2917,-5.3326,-5.2946,-5.1809,-5.1918,-5.2836,-5.3245,-5.3296,-5.3267,-5.4086,-5.4598,-5.4119,-5.2214,-5.1142,-4.949,-4.7554,-4.604,-4.5149,-4.4746,-4.4529,-4.461,-4.4664,-4.4583,-4.4556,-4.4556,-4.4556,-4.4583,-4.461,-4.4637,-4.4627,-4.464,-4.4674,-4.4678,-4.4728,-4.4655,-4.3913,-4.2513,-4.0947,-3.9523,-3.8271,-3.6955,-3.6341,-3.6435,-3.6681,-3.6611,-3.6207,-3.5915,-3.5572,-3.5489,-3.5323,-3.5488,-3.5859,-3.5976,-3.5957,-3.5879,-3.5937,-3.5996,-3.6016,-3.5996,-3.5957,-3.5957,-3.5976,-3.6016,-3.6035,-3.6016,-3.6016,-3.6084,-3.6152,-3.6084,-3.6606,-3.6924,-3.8088,-3.9975,-4.1033,-4.1697,-4.2965,-4.4422,-4.4976,-4.5159,-4.555,-4.5999,-4.624,-4.624,-4.624,-4.624,-4.624,-4.6326,-4.6326,-4.6326,-4.6326,-4.6326,-4.6326,-4.6326,-4.6326,-4.6326,-4.6326,-4.6326,-4.6326,-4.6326,-4.6326,-4.6326,-4.6326,-5.1229,-5.1229,-5.1229,-5.1618,-5.2336,-5.2935,-5.3593,-5.4311,-5.491,-5.5149,-5.4988,-5.3816,-5.2537,-5.1488,-5.1299,-5.0761,-4.907,-4.891,-5.0331,-5.1138,-5.111,-5.2187,-5.3516,-5.4467,-5.4437,-5.288,-5.1728,-5.0218,-4.8499,-4.7053,-4.5874,-4.4881,-4.5044,-4.4827,-4.4854,-4.5017,-4.499,-4.499,-4.4963,-4.4936,-4.4908,-4.4881,-4.4885,-4.4858,-4.4756,-4.4687,-4.4757,-4.4884,-4.427,-4.2893,-4.1374,-3.9966,-3.8817,-3.7466,-3.6866,-3.7003,-3.7112,-3.7139,-3.6932,-3.6665,-3.6577,-3.635,-3.5996,-3.5625,-3.5957,-3.5664,-3.5664,-3.5976,-3.6016,-3.6035,-3.6035,-3.6035,-3.6035,-3.6035,-3.6035,-3.6035,-3.6035,-3.6035,-3.6016,-3.6035,-3.6035,-3.6035,-3.6035,-3.6423,-3.7059,-3.8816,-4.0322,-4.1055,-4.2229,-4.3553,-4.4299,-4.473,-4.5098,-4.555,-4.6059,-4.612,-4.5999,-4.612,-4.618,-4.624,-4.6326,-4.6326,-4.6326,-4.6326,-4.6326,-4.6326,-4.6326,-4.6326,-4.6326,-4.6326,-4.6326,-4.6326,-4.6326,-4.6326,-4.6326,-5.1229,-5.1229,-5.1229,-5.1588,-5.2217,-5.2456,-5.2965,-5.3623,-5.4281,-5.485,-5.5069,-5.3626,-5.2187,-5.111,-5.0732,-5.0006,-4.8722,-4.8614,-5.0034,-5.111,-5.1648,-5.2326,-5.3735,-5.4577,-5.4387,-5.3216,-5.2268,-5.0761,-4.8666,-4.7948,-4.7062,-4.6201,-4.5695,-4.5804,-4.5804,-4.5668,-4.5723,-4.575,-4.575,-4.5777,-4.5804,-4.5804,-4.5804,-4.5777,-4.5777,-4.5833,-4.5845,-4.5787,-4.4904,-4.3564,-4.2021,-4.0656,-3.9272,-3.791,-3.732,-3.733,-3.7374,-3.7374,-3.734,-3.7102,-3.6832,-3.6456,-3.6023,-3.582,-3.5976,-3.584,-3.584,-3.5976,-3.6035,-3.6035,-3.6035,-3.6035,-3.6035,-3.6035,-3.6035,-3.6035,-3.6035,-3.6035,-3.6035,-3.6035,-3.6035,-3.6035,-3.6035,-3.6016,-3.6742,-3.7642,-3.9101,-4.0538,-4.1655,-4.261,-4.3365,-4.4051,-4.4484,-4.4792,-4.5245,-4.5489,-4.5671,-4.5793,-4.5999,-4.6059,-4.612,-4.6326,-4.6326,-4.6326,-4.6326,-4.6326,-4.6326,-4.6326,-4.6326,-4.6326,-4.6326,-4.6326,-4.6326,-4.6326,-4.6326,-5.1229,-5.1229,-5.1229,-5.1468,-5.1917,-5.2127,-5.2456,-5.2965,-5.3593,-5.4281,-5.4719,-5.3128,-5.1838,-5.0841,-4.9658,-4.9042,-4.8187,-4.8482,-5.0143,-5.119,-5.1998,-5.2975,-5.4416,-5.5069,-5.4687,-5.3706,-5.2917,-5.1568,-4.9498,-4.8882,-4.7678,-4.6799,-4.6535,-4.6401,-4.6401,-4.6535,-4.6535,-4.6535,-4.6535,-4.6535,-4.648,-4.648,-4.6453,-4.6426,-4.6399,-4.6374,-4.6302,-4.6189,-4.5451,-4.413,-4.2593,-4.1111,-3.9658,-3.8408,-3.7539,-3.7374,-3.7374,-3.7374,-3.7384,-3.72,-3.6896,-3.6431,-3.6064,-3.5933,-3.5986,-3.5937,-3.5781,-3.6016,-3.6035,-3.6035,-3.6035,-3.6035,-3.6035,-3.6035,-3.6035,-3.6035,-3.6035,-3.6035,-3.6035,-3.6035,-3.6035,-3.6035,-3.6035,-3.6016,-3.6606,-3.724,-3.8109,-3.9561,-4.0948,-4.1847,-4.2546,-4.324,-4.3802,-4.4051,-4.436,-4.4669,-4.4976,-4.5159,-4.5367,-4.5732,-4.5914,-4.6059,-4.624,-4.6326,-4.6326,-4.6326,-4.6326,-4.6266,-4.6266,-4.6326,-4.6326,-4.6326,-4.6326,-4.6326,-4.6326,-5.1229,-5.1229,-5.1229,-5.1259,-5.1379,-5.1917,-5.2187,-5.2306,-5.2935,-5.3623,-5.3993,-5.2115,-5.1161,-5.0435,-4.8854,-4.7733,-4.7812,-4.8347,-4.9686,-5.119,-5.2348,-5.3706,-5.4658,-5.5099,-5.5018,-5.4798,-5.3926,-5.2486,-5.0732,-4.9578,-4.8187,-4.704,-4.6694,-4.6535,-4.6535,-4.6535,-4.6535,-4.6535,-4.6535,-4.6535,-4.6535,-4.6535,-4.6535,-4.6535,-4.6535,-4.6535,-4.6515,-4.6404,-4.5645,-4.4232,-4.2691,-4.1148,-3.9681,-3.8243,-3.7456,-3.7374,-3.7374,-3.7374,-3.7379,-3.72,-3.7002,-3.6521,-3.6096,-3.5917,-3.5936,-3.5781,-3.5684,-3.5996,-3.6035,-3.6035,-3.6035,-3.6035,-3.6035,-3.6035,-3.6035,-3.6035,-3.6035,-3.6035,-3.6035,-3.6035,-3.6035,-3.6035,-3.6035,-3.6152,-3.6539,-3.7059,-3.7441,-3.8573,-4.0105,-4.1229,-4.1934,-4.257,-4.32,-4.3389,-4.3615,-4.4051,-4.436,-4.4484,-4.473,-4.5159,-4.5428,-4.555,-4.5817,-4.612,-4.5939,-4.5611,-4.5939,-4.6266,-4.612,-4.5999,-4.624,-4.6326,-4.6326,-4.6326,-4.6326,-5.1229,-5.1229,-5.1229,-5.1229,-5.1259,-5.1439,-5.1558,-5.1648,-5.2276,-5.3144,-5.3694,-5.2302,-5.1918,-5.1235,-4.9578,-4.8347,-4.915,-4.8375,-4.9606,-5.2107,-5.2836,-5.3866,-5.4768,-5.5099,-5.5179,-5.5099,-5.4467,-5.3567,-5.2238,-5.0572,-4.9258,-4.8159,-4.6801,-4.6535,-4.6535,-4.6535,-4.6535,-4.6535,-4.6535,-4.6535,-4.6535,-4.6535,-4.6535,-4.6535,-4.6535,-4.6535,-4.6509,-4.6461,-4.566,-4.4275,-4.2769,-4.1282,-3.9756,-3.8265,-3.7561,-3.7456,-3.7396,-3.7549,-3.7855,-3.7941,-3.7678,-3.6903,-3.6308,-3.6036,-3.5957,-3.5918,-3.5937,-3.5976,-3.6016,-3.6035,-3.6035,-3.6035,-3.6035,-3.6035,-3.6035,-3.6035,-3.6035,-3.6035,-3.6035,-3.6035,-3.6035,-3.6035,-3.6035,-3.6035,-3.6336,-3.6674,-3.6991,-3.7909,-3.9364,-4.0495,-4.1357,-4.2061,-4.2633,-4.2696,-4.2949,-4.3365,-4.3615,-4.374,-4.4051,-4.4546,-4.4816,-4.5,-4.5061,-4.5184,-4.5061,-4.4976,-4.5245,-4.5489,-4.5611,-4.5671,-4.5793,-4.6059,-4.612,-4.618,-4.6326,-5.1229,-5.1229,-5.1229,-5.1229,-5.1229,-5.1229,-5.1229,-5.1349,-5.1917,-5.2725,-5.3147,-5.2417,-5.2184,-5.1839,-5.0646,-4.9658,-5.0732,-5.0572,-5.0543,-5.2946,-5.2997,-5.3976,-5.4687,-5.4798,-5.4687,-5.4958,-5.4958,-5.4196,-5.1998,-5.119,-4.9578,-4.784,-4.6988,-4.6614,-4.6535,-4.6535,-4.6535,-4.6535,-4.6535,-4.6535,-4.6535,-4.6535,-4.6535,-4.6535,-4.6535,-4.6535,-4.646,-4.6223,-4.575,-4.4331,-4.3095,-4.1602,-3.9997,-3.894,-3.8111,-3.7884,-3.7855,-3.8029,-3.8379,-3.8438,-3.8061,-3.7482,-3.6795,-3.636,-3.6112,-3.5976,-3.5996,-3.6016,-3.6035,-3.6035,-3.6035,-3.6035,-3.6035,-3.6035,-3.6035,-3.6035,-3.6035,-3.6035,-3.6035,-3.6035,-3.6035,-3.6035,-3.6035,-3.6035,-3.6152,-3.6355,-3.6606,-3.7595,-3.8507,-3.9561,-4.0625,-4.1421,-4.2061,-4.2379,-4.2506,-4.2696,-4.2886,-4.2949,-4.3365,-4.3927,-4.4113,-4.4323,-4.4299,-4.4299,-4.4422,-4.4546,-4.4484,-4.4607,-4.4853,-4.5037,-4.5184,-4.5489,-4.5878,-4.5939,-4.5939,-5.1229,-5.1229,-5.1229,-5.1229,-5.1229,-5.1229,-5.1229,-5.1259,-5.1858,-5.2187,-5.2229,-5.2142,-5.2267,-5.2046,-5.1171,-5.1052,-5.135,-5.2268,-5.2807,-5.3187,-5.3486,-5.4306,-5.4416,-5.4196,-5.4497,-5.4908,-5.4768,-5.3596,-5.119,-5.0463,-4.8962,-4.7306,-4.6642,-4.6616,-4.6643,-4.6698,-4.6643,-4.6589,-4.6535,-4.6589,-4.6698,-4.6618,-4.6727,-4.6781,-4.6862,-4.6835,-4.6784,-4.6598,-4.5721,-4.4786,-4.3904,-4.2136,-4.0787,-4.0075,-3.9204,-3.8689,-3.8575,-3.875,-3.884,-3.8786,-3.868,-3.827,-3.7746,-3.7003,-3.6467,-3.6219,-3.6219,-3.6103,-3.6035,-3.6035,-3.6035,-3.6035,-3.6035,-3.6035,-3.6035,-3.6035,-3.6035,-3.6035,-3.6035,-3.6035,-3.6035,-3.6035,-3.6035,-3.6035,-3.6035,-3.6084,-3.6355,-3.6606,-3.7595,-3.8441,-3.9495,-4.056,-4.1293,-4.1998,-4.2189,-4.2212,-4.2529,-4.2633,-4.2886,-4.3326,-4.3514,-4.3639,-4.3576,-4.3678,-4.3989,-4.4051,-4.374,-4.3864,-4.4175,-4.436,-4.4422,-4.473,-4.5123,-4.5245,-4.5306,-5.1229,-5.1229,-5.1229,-5.1229,-5.1229,-5.1229,-5.1229,-5.1259,-5.1468,-5.1738,-5.2169,-5.2126,-5.2545,-5.3407,-5.2264,-5.2696,-5.3149,-5.3516,-5.3816,-5.4086,-5.4167,-5.4717,-5.4827,-5.4658,-5.4848,-5.4607,-5.4167,-5.3136,-5.1918,-5.0623,-4.8454,-4.6801,-4.6616,-4.6779,-4.7024,-4.716,-4.6915,-4.6752,-4.6645,-4.6835,-4.7025,-4.716,-4.7269,-4.7486,-4.7568,-4.7568,-4.7514,-4.7244,-4.6423,-4.5521,-4.3821,-4.2099,-4.1044,-3.9824,-3.881,-3.8791,-3.9034,-3.934,-3.9427,-3.9584,-3.9563,-3.902,-3.8364,-3.7632,-3.7038,-3.6674,-3.6491,-3.6152,-3.6035,-3.6035,-3.6035,-3.6035,-3.6035,-3.6035,-3.6035,-3.6035,-3.6035,-3.6035,-3.6035,-3.6035,-3.6035,-3.6035,-3.6035,-3.6035,-3.6035,-3.6035,-3.6084,-3.6287,-3.6742,-3.7709,-3.8441,-3.9495,-4.0453,-4.11,-4.1531,-4.1682,-4.202,-4.2402,-4.2431,-4.2581,-4.2783,-4.2909,-4.2886,-4.2949,-4.3075,-4.3012,-4.2822,-4.3075,-4.3576,-4.3553,-4.3678,-4.4051,-4.436,-4.4484,-4.4607,-5.1229,-5.1229,-5.1229,-5.1229,-5.1229,-5.1229,-5.1229,-5.1229,-5.1229,-5.1468,-5.1828,-5.2049,-5.2665,-5.3107,-5.2763,-5.3159,-5.443,-5.3941,-5.409,-5.4687,-5.4687,-5.4768,-5.4878,-5.4687,-5.4196,-5.3976,-5.3377,-5.2348,-5.1161,-4.931,-4.7174,-4.7022,-4.6808,-4.7188,-4.7541,-4.7676,-4.7541,-4.7351,-4.7269,-4.7405,-4.7568,-4.7703,-4.7975,-4.8137,-4.8219,-4.8246,-4.8192,-4.7839,-4.72,-4.6238,-4.4435,-4.3068,-4.1715,-4.0052,-3.9382,-3.9384,-3.9646,-3.9821,-3.9886,-4.0061,-3.9975,-3.9604,-3.8925,-3.8262,-3.7461,-3.6876,-3.6491,-3.6084,-3.6035,-3.6035,-3.6035,-3.6035,-3.6035,-3.6035,-3.6035,-3.6035,-3.6035,-3.6035,-3.6035,-3.6035,-3.6035,-3.6035,-3.6035,-3.6035,-3.6035,-3.6035,-3.6035,-3.6084,-3.6539,-3.726,-3.7775,-3.8507,-3.9407,-4.0236,-4.0627,-4.1042,-4.1412,-4.1611,-4.1506,-4.168,-4.1949,-4.218,-4.2207,-4.2116,-4.202,-4.2043,-4.2239,-4.2529,-4.2886,-4.2949,-4.2949,-4.3137,-4.3428,-4.3678,-4.3802,-5.1229,-5.1229,-5.1229,-5.1229,-5.1229,-5.1229,-5.1229,-5.1229,-5.1229,-5.1229,-5.1379,-5.1828,-5.2157,-5.2468,-5.264,-5.3296,-5.4132,-5.4102,-5.4321,-5.5149,-5.4387,-5.4387,-5.4577,-5.4006,-5.3896,-5.3296,-5.2377,-5.119,-4.883,-4.7551,-4.7264,-4.7404,-4.7486,-4.7731,-4.8219,-4.83,-4.83,-4.8436,-4.8355,-4.8409,-4.8246,-4.8273,-4.83,-4.8408,-4.8435,-4.8435,-4.8381,-4.8189,-4.7798,-4.6898,-4.5725,-4.4168,-4.2017,-4.0516,-4.0122,-3.9995,-4.0126,-4.0148,-4.0213,-4.0301,-4.0323,-4.0018,-3.9625,-3.888,-3.8083,-3.7146,-3.6559,-3.6084,-3.6035,-3.6035,-3.6035,-3.6035,-3.6035,-3.6035,-3.6035,-3.6035,-3.6035,-3.6035,-3.6035,-3.6035,-3.6035,-3.6035,-3.6035,-3.6035,-3.6035,-3.6035,-3.6035,-3.6035,-3.6287,-3.6876,-3.7294,-3.7697,-3.8516,-3.9396,-3.9805,-4.0246,-4.0646,-4.0798,-4.0746,-4.0995,-4.144,-4.1571,-4.1571,-4.1461,-4.1351,-4.1627,-4.184,-4.2097,-4.2285,-4.2466,-4.2402,-4.2275,-4.2529,-4.2886,-4.3012,-5.1229,-5.1229,-5.1229,-5.1229,-5.1229,-5.1229,-5.1229,-5.1229,-5.1229,-5.1229,-5.1259,-5.1409,-5.1738,-5.2157,-5.2306,-5.2995,-5.3952,-5.4102,-5.4581,-5.4999,-5.4607,-5.4577,-5.5069,-5.4497,-5.3816,-5.2866,-5.1648,-4.9846,-4.7898,-4.7157,-4.7241,-4.7486,-4.7758,-4.8327,-4.887,-4.8869,-4.9005,-4.9331,-4.9359,-4.9169,-4.8896,-4.895,-4.9005,-4.9331,-4.9494,-4.944,-4.9276,-4.9003,-4.7894,-4.656,-4.526,-4.3307,-4.0899,-4.0406,-4.0213,-4.0257,-4.0344,-4.0344,-4.0344,-4.0344,-4.0344,-4.0084,-3.9691,-3.9276,-3.8549,-3.7482,-3.6694,-3.6287,-3.6035,-3.6035,-3.6035,-3.6035,-3.6035,-3.6035,-3.6035,-3.6035,-3.6035,-3.6035,-3.6035,-3.6035,-3.6035,-3.6035,-3.6035,-3.6035,-3.6035,-3.6035,-3.6035,-3.6035,-3.6055,-3.6414,-3.6779,-3.7228,-3.7882,-3.8588,-3.9013,-3.9515,-3.9925,-4.0308,-4.0341,-4.0647,-4.0904,-4.0772,-4.0705,-4.0767,-4.0813,-4.0999,-4.1243,-4.1549,-4.1698,-4.1865,-4.1942,-4.1795,-4.1833,-4.2171,-4.2212,-5.0994,-5.1182,-5.1229,-5.1229,-5.1229,-5.1229,-5.1229,-5.1229,-5.1229,-5.1229,-5.1229,-5.1259,-5.1439,-5.1768,-5.1768,-5.2546,-5.3623,-5.3713,-5.4371,-5.491,-5.5209,-5.5149,-5.5069,-5.4577,-5.3136,-5.1918,-4.9846,-4.8003,-4.7075,-4.7187,-4.7513,-4.8002,-4.8545,-4.8897,-4.9413,-4.9549,-4.9657,-4.9983,-5.001,-4.9793,-4.9494,-4.9549,-4.963,-4.9956,-5.001,-5.001,-4.9759,-4.9319,-4.8116,-4.6314,-4.4646,-4.2615,-4.0882,-4.0366,-4.0323,-4.0344,-4.0344,-4.0344,-4.0344,-4.0344,-4.0344,-4.0084,-3.9625,-3.921,-3.9012,-3.8017,-3.728,-3.6809,-3.6152,-3.6016,-3.6035,-3.6035,-3.6035,-3.6035,-3.6035,-3.6035,-3.6035,-3.6035,-3.6035,-3.6035,-3.6035,-3.6035,-3.6035,-3.6035,-3.6035,-3.6035,-3.6035,-3.6035,-3.6035,-3.6191,-3.6484,-3.6857,-3.7519,-3.7777,-3.8017,-3.8606,-3.9228,-3.9548,-3.9889,-3.9917,-4.0042,-3.9902,-3.9819,-4.0087,-4.0272,-4.0218,-4.0455,-4.0883,-4.104,-4.1131,-4.1243,-4.1326,-4.1432,-4.1537,-4.1833,-5.0562,-5.0845,-5.0845,-5.0832,-5.0773,-5.0743,-5.0803,-5.0909,-5.0986,-5.1046,-5.1229,-5.1229,-5.1229,-5.1229,-5.1409,-5.2247,-5.2995,-5.3563,-5.4251,-5.491,-5.5179,-5.5209,-5.4687,-5.3786,-5.2297,-5.0355,-4.8187,-4.7691,-4.7323,-4.7541,-4.8056,-4.8924,-4.9304,-4.9494,-4.9847,-4.9983,-5.001,-5.001,-5.001,-5.001,-4.9983,-5.001,-4.9983,-4.9983,-5.001,-5.001,-4.97,-4.9244,-4.8294,-4.6355,-4.4264,-4.2287,-4.0991,-4.0409,-4.0344,-4.0344,-4.0344,-4.0344,-4.0344,-4.0344,-4.0344,-4.0149,-3.9625,-3.9276,-3.9144,-3.8681,-3.7996,-3.7415,-3.6694,-3.6152,-3.6152,-3.6084,-3.6084,-3.6084,-3.6084,-3.6016,-3.6016,-3.6035,-3.6035,-3.6035,-3.6035,-3.6035,-3.6035,-3.6035,-3.6035,-3.6035,-3.6035,-3.6035,-3.6094,-3.6328,-3.6601,-3.6875,-3.733,-3.7468,-3.7622,-3.8102,-3.8877,-3.8957,-3.9282,-3.92,-3.918,-3.9172,-3.9342,-3.9708,-3.9785,-3.9695,-3.9938,-4.0246,-4.0409,-4.055,-4.032,-4.0423,-4.1001,-4.1199,-4.1691,-4.9646,-4.9143,-4.919,-4.8927,-4.8594,-4.8536,-4.8958,-4.9787,-4.9846,-5.027,-5.0969,-5.1182,-5.1229,-5.1259,-5.1828,-5.2516,-5.3114,-5.3623,-5.4371,-5.5089,-5.5179,-5.5209,-5.4497,-5.2917,-5.1299,-4.931,-4.7496,-4.713,-4.7541,-4.7948,-4.8409,-4.9142,-4.9684,-4.9874,-4.9901,-5.001,-5.001,-5.001,-5.001,-5.001,-5.001,-5.001,-5.001,-5.001,-5.001,-5.001,-4.9897,-4.984,-4.8726,-4.6798,-4.4312,-4.2356,-4.1164,-4.0604,-4.0344,-4.0344,-4.0344,-4.0344,-4.0344,-4.0344,-4.0344,-4.0279,-3.9953,-3.9953,-3.9735,-3.9407,-3.8814,-3.8482,-3.775,-3.6742,-3.6491,-3.6355,-3.6287,-3.6219,-3.6219,-3.6152,-3.6152,-3.6084,-3.6035,-3.6035,-3.6035,-3.6035,-3.6035,-3.6035,-3.6035,-3.6035,-3.6035,-3.6035,-3.6172,-3.6445,-3.6758,-3.7051,-3.7344,-3.7832,-3.8334,-3.8256,-3.8701,-3.8728,-3.8747,-3.8833,-3.8813,-3.8747,-3.895,-3.9262,-3.9211,-3.9129,-3.9344,-3.9684,-3.9938,-3.9973,-3.9488,-3.9467,-4.018,-4.0841,-4.1199]},{"header":{"parameterUnit":"m.s-1","parameterCategory":1,"la1":31.0,"la2":29.5877,"lo1":-88.7671,"lo2":-86.6584,"dy":0.0162,"dx":0.0185,"nx":115,"ny":88,"refTime":"2024-03-02T06:00:00:Z","depth":0,"parameterNumber":3,"parameterNumberName":"V-component_of_WINDS"},"data":[0.0,0.0,0.0,0.0,0.0,0.0,0.0,0.0,0.0,0.0,0.0,0.0,0.0,0.0,0.0,0.0,0.0,0.0,0.0,0.0,0.0,0.0,0.0,0.0,0.0,0.0,0.0,0.0,0.0,0.0,0.0,0.0,0.0,0.0,0.0,0.0,0.0,0.0,0.0,0.0,0.0,0.0,0.0,0.0,0.0,0.0,0.0,0.0,0.0,0.0,0.0,0.0,0.0,0.0,0.0,0.0,0.0,0.0,0.0,0.0,0.0,0.0,0.0,0.0,0.0,0.0,0.0,0.0,0.0,0.0,0.0,0.0,0.0,0.0,0.0,0.0,0.0,0.0,0.0,0.0,0.0,0.0,0.0,0.0,0.0,0.0,0.0,0.0,0.0,0.0,0.0,0.0,0.0,0.0,0.0,0.0,0.0,0.0,0.0,0.0,0.0,0.0,0.0,0.0,0.0,0.0,0.0,0.0,0.0,0.0,0.0,0.0,0.0,0.0,0.0,0.0,0.0,0.0,0.0,0.0,0.0,0.0,0.0,0.0,0.0,0.0,0.0,0.0,0.0,0.0,0.0,0.0,0.0,0.0,0.0,0.0,0.0,0.0,0.0,0.0,0.0,0.0,0.0,0.0,0.0,0.0,0.0,0.0,0.0,0.0,0.0,0.0,0.0,0.0,0.0,0.0,0.0,0.0,0.0,0.0,0.0,0.0,0.0,0.0,0.0,0.0,0.0,0.0,0.0,0.0,0.0,0.0,0.0,0.0,0.0,0.0,0.0,0.0,0.0,0.0,0.0,0.0,0.0,0.0,0.0,0.0,0.0,0.0,0.0,0.0,0.0,0.0,0.0,0.0,0.0,0.0,0.0,0.0,0.0,0.0,0.0,0.0,0.0,0.0,0.0,0.0,0.0,0.0,0.0,0.0,0.0,0.0,0.0,0.0,0.0,0.0,0.0,0.0,0.0,0.0,0.0,0.0,0.0,0.0,0.0,0.0,0.0,0.0,0.0,0.0,0.0,0.0,0.0,0.0,0.0,0.0,0.0,0.0,0.0,0.0,0.0,0.0,0.0,0.0,0.0,0.0,0.0,0.0,0.0,0.0,0.0,0.0,0.0,0.0,0.0,0.0,0.0,0.0,0.0,0.0,0.0,0.0,0.0,0.0,0.0,0.0,0.0,0.0,0.0,0.0,0.0,0.0,0.0,0.0,0.0,0.0,0.0,0.0,0.0,0.0,0.0,0.0,0.0,0.0,0.0,0.0,0.0,0.0,0.0,0.0,0.0,0.0,0.0,0.0,0.0,0.0,0.0,0.0,0.0,0.0,0.0,0.0,0.0,0.0,0.0,0.0,0.0,0.0,0.0,0.0,0.0,0.0,0.0,0.0,0.0,0.0,0.0,0.0,0.0,0.0,0.0,0.0,0.0,0.0,0.0,0.0,0.0,0.0,0.0,0.0,0.0,0.0,0.0,0.0,0.0,0.0,0.0,0.0,0.0,0.0,0.0,0.0,0.0,0.0,0.0,0.0,0.0,0.0,0.0,0.0,0.0,0.0,0.0,0.0,0.0,0.0,0.0,0.0,0.0,0.0,0.0,0.0,0.0,0.0,0.0,0.0,0.0,0.0,0.0,0.0,0.0,0.0,0.0,0.0,0.0,0.0,0.0,0.0,0.0,0.0,0.0,0.0,0.0,0.0,0.0,0.0,0.0,0.0,0.0,0.0,0.0,0.0,0.0,0.0,0.0,0.0,0.0,0.0,0.0,0.0,0.0,0.0,0.0,0.0,0.0,0.0,0.0,0.0,0.0,0.0,0.0,0.0,0.0,0.0,0.0,0.0,0.0,0.0,0.0,0.0,0.0,0.0,0.0,0.0,0.0,0.0,0.0,0.0,0.0,0.0,0.0,0.0,0.0,0.0,0.0,0.0,0.0,0.0,0.0,0.0,0.0,0.0,0.0,0.0,0.0,0.0,0.0,0.0,0.0,0.0,0.0,0.0,0.0,0.0,0.0,0.0,0.0,0.0,0.0,0.0,0.0,0.0,0.0,0.0,0.0,0.0,0.0,0.0,0.0,0.0,0.0,0.0,0.0,0.0,0.0,0.0,0.0,0.0,0.0,0.0,0.0,0.0,0.0,0.0,0.0,0.0,0.0,0.0,0.0,0.0,0.0,0.0,0.0,0.0,0.0,0.0,0.0,0.0,0.0,0.0,0.0,0.0,0.0,0.0,0.0,0.0,0.0,0.0,0.0,0.0,0.0,0.0,0.0,0.0,0.0,0.0,0.0,0.0,0.0,0.0,0.0,0.0,0.0,0.0,0.0,0.0,0.0,0.0,0.0,0.0,0.0,0.0,0.0,0.0,0.0,0.0,0.0,0.0,0.0,0.0,0.0,0.0,0.0,0.0,0.0,0.0,0.0,0.0,0.0,0.0,0.0,0.0,0.0,0.0,0.0,0.0,0.0,0.0,0.0,0.0,0.0,0.0,0.0,0.0,0.0,0.0,0.0,0.0,0.0,0.0,0.0,0.0,0.0,0.0,0.0,0.0,0.0,0.0,0.0,0.0,0.0,0.0,0.0,0.0,0.0,0.0,0.0,0.0,0.0,0.0,0.0,0.0,0.0,0.0,0.0,0.0,0.0,0.0,0.0,0.0,0.0,0.0,0.0,0.0,0.0,0.0,0.0,0.0,0.0,0.0,0.0,0.0,0.0,0.0,0.0,0.0,0.0,0.0,0.0,0.0,0.0,0.0,0.0,0.0,0.0,0.0,0.0,0.0,0.0,0.0,0.0,0.0,0.0,0.0,0.0,0.0,0.0,0.0,0.0,0.0,0.0,0.0,0.0,0.0,0.0,0.0,0.0,0.0,0.0,0.0,0.0,0.0,0.0,0.0,0.0,0.0,0.0,0.0,0.0,0.0,0.0,0.0,0.0,0.0,0.0,0.0,0.0,0.0,0.0,0.0,0.0,0.0,0.0,0.0,0.0,0.0,0.0,0.0,0.0,0.0,0.0,0.0,0.0,0.0,0.0,0.0,0.0,0.0,0.0,0.0,0.0,0.0,0.0,0.0,0.0,0.0,0.0,0.0,0.0,0.0,0.0,0.0,0.0,0.0,0.0,0.0,0.0,0.0,0.0,0.0,0.0,0.0,0.0,0.0,0.0,0.0,0.0,0.0,0.0,0.0,0.0,0.0,0.0,0.0,0.0,0.0,0.0,0.0,0.0,0.0,0.0,0.0,0.0,0.0,0.0,0.0,0.0,0.0,0.0,0.0,0.0,0.0,0.0,0.0,0.0,0.0,0.0,0.0,0.0,0.0,0.0,0.0,0.0,0.0,0.0,0.0,0.0,0.0,0.0,0.0,0.0,0.0,0.0,0.0,0.0,0.0,0.0,0.0,0.0,0.0,0.0,0.0,0.0,0.0,0.0,0.0,0.0,0.0,0.0,0.0,0.0,0.0,0.0,0.0,0.0,0.0,0.0,0.0,0.0,0.0,0.0,0.0,0.0,0.0,0.0,0.0,0.0,0.0,0.0,0.0,0.0,0.0,0.0,0.0,0.0,0.0,0.0,0.0,0.0,0.0,0.0,0.0,0.0,0.0,0.0,0.0,0.0,0.0,0.0,0.0,0.0,0.0,0.0,0.0,0.0,0.0,0.0,0.0,0.0,0.0,0.0,0.0,0.0,0.0,0.0,0.0,0.0,0.0,0.0,0.0,0.0,0.0,0.0,0.0,0.0,0.0,0.0,0.0,0.0,0.0,0.0,0.0,0.0,0.0,0.0,0.0,0.0,0.0,0.0,0.0,0.0,0.0,0.0,0.0,0.0,0.0,0.0,0.0,0.0,0.0,0.0,0.0,0.0,0.0,0.0,0.0,0.0,0.0,0.0,0.0,0.0,0.0,0.0,0.0,0.0,0.0,0.0,0.0,0.0,0.0,0.0,0.0,0.0,0.0,0.0,0.0,0.0,0.0,0.0,0.0,0.0,0.0,0.0,0.0,0.0,0.0,0.0,0.0,0.0,0.0,0.0,0.0,0.0,0.0,0.0,0.0,0.0,0.0,0.0,0.0,0.0,0.0,0.0,0.0,0.0,0.0,0.0,0.0,0.0,0.0,0.0,0.0,0.0,0.0,0.0,0.0,0.0,0.0,0.0,0.0,0.0,0.0,0.0,0.0,0.0,0.0,0.0,0.0,0.0,0.0,0.0,0.0,0.0,0.0,0.0,0.0,0.0,0.0,0.0,0.0,0.0,0.0,0.0,0.0,0.0,0.0,1.999,0.0,0.0,0.0,0.0,0.0,0.0,0.0,0.0,0.0,0.0,0.0,0.0,0.0,0.0,0.0,0.0,0.0,0.0,0.0,0.0,0.0,0.0,0.0,0.0,0.0,0.0,0.0,0.0,0.0,0.0,0.0,0.0,0.0,0.0,0.0,0.0,0.0,0.0,0.0,0.0,0.0,0.0,0.0,0.0,0.0,0.0,0.0,0.0,0.0,0.0,0.0,0.0,0.0,0.0,0.0,0.0,0.0,0.0,0.0,0.0,0.0,0.0,0.0,0.0,0.0,0.0,0.0,0.0,0.0,0.0,0.0,0.0,0.0,0.0,0.0,0.0,0.0,0.0,0.0,0.0,0.0,0.0,0.0,0.0,0.0,0.0,0.0,0.0,0.0,0.0,0.0,0.0,0.0,0.0,0.0,0.0,0.0,0.0,0.0,0.0,0.0,0.0,0.0,0.0,0.0,0.0,0.0,0.0,0.0,0.0,2.0195,2.0195,2.0195,2.0169,2.0118,0.0,0.0,0.0,0.0,0.0,0.0,0.0,0.0,0.0,0.0,0.0,0.0,0.0,0.0,0.0,0.0,0.0,0.0,0.0,0.0,0.0,0.0,0.0,0.0,0.0,0.0,0.0,0.0,0.0,0.0,0.0,0.0,0.0,0.0,0.0,0.0,0.0,0.0,0.0,0.0,0.0,0.0,0.0,0.0,0.0,0.0,0.0,0.0,0.0,0.0,0.0,0.0,0.0,0.0,0.0,0.0,0.0,0.0,0.0,0.0,0.0,0.0,0.0,0.0,0.0,0.0,0.0,0.0,0.0,0.0,0.0,0.0,0.0,0.0,0.0,0.0,0.0,0.0,0.0,0.0,0.0,0.0,0.0,0.0,0.0,0.0,0.0,0.0,0.0,0.0,0.0,0.0,0.0,0.0,0.0,0.0,0.0,0.0,0.0,0.0,0.0,0.0,0.0,0.0,0.0,0.0,0.0,0.0,0.0,0.0,0.0,0.0,2.0372,2.0347,2.0271,0.0,0.0,0.0,0.0,0.0,0.0,0.0,0.0,0.0,0.0,0.0,0.0,0.0,0.0,0.0,0.0,0.0,0.0,0.0,0.0,0.0,0.0,0.0,0.0,0.0,0.0,0.0,0.0,0.0,0.0,0.0,0.0,0.0,0.0,0.0,0.0,0.0,0.0,0.0,0.0,0.0,0.0,0.0,0.0,0.0,0.0,0.0,0.0,0.0,0.0,0.0,0.0,0.0,0.0,0.0,0.0,0.0,0.0,0.0,0.0,0.0,0.0,0.0,0.0,0.0,0.0,0.0,0.0,0.0,0.0,0.0,0.0,0.0,0.0,0.0,0.0,0.0,0.0,0.0,0.0,0.0,0.0,0.0,0.0,0.0,0.0,0.0,0.0,0.0,0.0,0.0,0.0,0.0,0.0,0.0,0.0,0.0,0.0,0.0,0.0,0.0,0.0,0.0,0.0,0.0,0.0,0.0,0.0,0.0,0.0,2.0923,2.0923,2.0875,0.0,2.0473,0.0,0.0,0.0,0.0,0.0,0.0,0.0,0.0,0.0,0.0,0.0,0.0,0.0,0.0,0.0,0.0,0.0,0.0,0.0,0.0,0.0,0.0,0.0,0.0,0.0,0.0,0.0,0.0,0.0,0.0,0.0,0.0,0.0,0.0,0.0,0.0,0.0,0.0,0.0,0.0,0.0,0.0,0.0,0.0,0.0,0.0,0.0,0.0,0.0,0.0,0.0,0.0,0.0,0.0,0.0,0.0,0.0,0.0,0.0,0.0,0.0,0.0,0.0,0.0,0.0,0.0,0.0,0.0,0.0,0.0,0.0,0.0,0.0,0.0,0.0,0.0,0.0,0.0,0.0,0.0,0.0,0.0,0.0,0.0,0.0,0.0,0.0,0.0,0.0,0.0,0.0,0.0,0.0,0.0,0.0,0.0,0.0,0.0,0.0,0.0,0.0,0.0,0.0,0.0,0.0,0.0,0.0,0.0,0.0,0.0,2.0997,2.0997,2.0924,2.0775,0.0,0.0,0.0,0.0,0.0,0.0,0.0,0.0,0.0,0.0,0.0,0.0,0.0,0.0,0.0,0.0,0.0,0.0,0.0,0.0,0.0,0.0,0.0,0.0,0.0,0.0,0.0,0.0,0.0,0.0,0.0,0.0,0.0,0.0,0.0,0.0,0.0,0.0,0.0,0.0,0.0,0.0,0.0,0.0,0.0,0.0,0.0,0.0,0.0,0.0,0.0,0.0,0.0,0.0,0.0,0.0,0.0,0.0,0.0,0.0,0.0,0.0,0.0,0.0,0.0,0.0,0.0,0.0,0.0,0.0,0.0,0.0,0.0,0.0,0.0,0.0,0.0,0.0,0.0,0.0,0.0,0.0,0.0,0.0,0.0,0.0,0.0,0.0,0.0,0.0,0.0,0.0,0.0,0.0,0.0,0.0,0.0,0.0,0.0,0.0,0.0,0.0,0.0,0.0,0.0,0.0,0.0,0.0,0.0,0.0,2.1215,2.1193,2.112,2.1073,2.0923,2.0699,0.0,0.0,0.0,0.0,0.0,0.0,0.0,0.0,0.0,0.0,0.0,0.0,0.0,0.0,0.0,0.0,0.0,0.0,0.0,0.0,0.0,0.0,0.0,0.0,0.0,0.0,0.0,0.0,0.0,0.0,0.0,0.0,0.0,0.0,0.0,0.0,0.0,0.0,0.0,0.0,0.0,0.0,0.0,0.0,0.0,0.0,0.0,0.0,0.0,0.0,0.0,0.0,0.0,0.0,0.0,0.0,0.0,0.0,0.0,0.0,0.0,0.0,0.0,0.0,0.0,0.0,0.0,0.0,0.0,0.0,0.0,0.0,0.0,0.0,0.0,0.0,0.0,0.0,0.0,0.0,0.0,0.0,0.0,0.0,0.0,0.0,0.0,0.0,0.0,0.0,0.0,0.0,0.0,0.0,0.0,0.0,0.0,0.0,0.0,0.0,0.0,0.0,0.0,0.0,0.0,0.0,0.0,0.0,2.1746,2.1746,2.1626,2.1412,2.1361,2.1218,0.0,0.0,0.0,0.0,0.0,0.0,0.0,0.0,0.0,0.0,0.0,0.0,0.0,0.0,0.0,0.0,0.0,0.0,0.0,0.0,0.0,0.0,0.0,0.0,0.0,0.0,0.0,0.0,0.0,0.0,0.0,0.0,0.0,0.0,0.0,0.0,0.0,0.0,0.0,0.0,0.0,0.0,0.0,0.0,0.0,0.0,0.0,0.0,0.0,0.0,0.0,0.0,0.0,0.0,0.0,0.0,0.0,0.0,0.0,0.0,0.0,0.0,0.0,0.0,0.0,0.0,0.0,0.0,0.0,0.0,0.0,0.0,0.0,0.0,0.0,0.0,0.0,0.0,0.0,0.0,0.0,0.0,0.0,0.0,0.0,0.0,0.0,0.0,0.0,0.0,0.0,0.0,0.0,0.0,0.0,0.0,0.0,0.0,0.0,0.0,0.0,0.0,0.0,0.0,0.0,0.0,0.0,0.0,0.0,2.1821,2.218,2.2517,2.2828,2.2349,2.1984,0.0,0.0,0.0,0.0,0.0,0.0,0.0,0.0,0.0,0.0,0.0,0.0,0.0,0.0,0.0,0.0,0.0,0.0,0.0,0.0,0.0,0.0,0.0,0.0,0.0,0.0,0.0,0.0,0.0,0.0,0.0,0.0,0.0,0.0,0.0,0.0,0.0,0.0,0.0,0.0,0.0,0.0,0.0,0.0,0.0,0.0,0.0,0.0,0.0,0.0,0.0,0.0,0.0,0.0,0.0,0.0,0.0,0.0,0.0,0.0,0.0,0.0,0.0,0.0,0.0,0.0,0.0,0.0,0.0,0.0,0.0,0.0,0.0,0.0,0.0,0.0,0.0,0.0,0.0,0.0,0.0,0.0,0.0,0.0,0.0,0.0,0.0,0.0,0.0,0.0,0.0,0.0,0.0,0.0,0.0,0.0,0.0,0.0,0.0,0.0,0.0,0.0,0.0,0.0,0.0,0.0,0.0,0.0,0.0,2.262,0.0,2.3479,2.3847,2.3282,2.2803,0.0,0.0,0.0,0.0,0.0,0.0,0.0,0.0,0.0,0.0,0.0,0.0,0.0,0.0,0.0,0.0,0.0,0.0,0.0,0.0,0.0,0.0,0.0,0.0,0.0,0.0,0.0,0.0,0.0,0.0,0.0,0.0,0.0,0.0,0.0,0.0,0.0,0.0,0.0,0.0,0.0,0.0,0.0,0.0,0.0,0.0,0.0,0.0,0.0,0.0,0.0,0.0,0.0,0.0,0.0,0.0,0.0,0.0,0.0,0.0,0.0,0.0,0.0,0.0,0.0,0.0,0.0,0.0,0.0,0.0,0.0,0.0,0.0,0.0,0.0,0.0,0.0,0.0,0.0,0.0,0.0,0.0,0.0,0.0,0.0,0.0,0.0,0.0,0.0,0.0,0.0,0.0,0.0,0.0,0.0,0.0,0.0,0.0,0.0,0.0,0.0,0.0,0.0,0.0,0.0,0.0,0.0,0.0,2.3537,2.428,2.4462,2.4547,2.439,2.4239,2.3677,0.0,0.0,0.0,0.0,0.0,0.0,0.0,0.0,0.0,0.0,0.0,0.0,0.0,0.0,0.0,0.0,0.0,0.0,0.0,0.0,0.0,0.0,0.0,0.0,0.0,0.0,0.0,0.0,0.0,0.0,0.0,0.0,0.0,0.0,0.0,0.0,0.0,0.0,0.0,0.0,0.0,0.0,0.0,0.0,0.0,0.0,0.0,0.0,0.0,0.0,0.0,0.0,0.0,0.0,0.0,0.0,0.0,0.0,0.0,0.0,0.0,0.0,0.0,0.0,0.0,0.0,0.0,0.0,0.0,0.0,0.0,0.0,0.0,0.0,0.0,0.0,0.0,0.0,0.0,0.0,0.0,0.0,0.0,0.0,0.0,0.0,0.0,0.0,0.0,0.0,0.0,0.0,0.0,0.0,0.0,0.0,0.0,0.0,0.0,0.0,0.0,0.0,0.0,0.0,0.0,0.0,0.0,0.0,0.0,2.5873,2.6409,2.6868,2.7268,2.6248,2.5497,0.0,0.0,0.0,0.0,0.0,0.0,0.0,0.0,0.0,0.0,0.0,0.0,0.0,0.0,0.0,0.0,0.0,0.0,0.0,0.0,0.0,0.0,0.0,0.0,0.0,0.0,0.0,0.0,0.0,0.0,0.0,0.0,0.0,0.0,0.0,0.0,0.0,0.0,0.0,0.0,0.0,0.0,0.0,0.0,0.0,0.0,0.0,0.0,0.0,0.0,0.0,0.0,0.0,0.0,0.0,0.0,0.0,0.0,0.0,0.0,0.0,0.0,0.0,0.0,0.0,0.0,0.0,0.0,0.0,0.0,0.0,0.0,0.0,0.0,0.0,0.0,0.0,0.0,0.0,0.0,0.0,0.0,0.0,0.0,0.0,0.0,0.0,0.0,0.0,0.0,0.0,0.0,0.0,0.0,0.0,0.0,0.0,0.0,0.0,0.0,0.0,0.0,0.0,0.0,0.0,0.0,0.0,0.0,0.0,2.8812,2.8754,2.8983,2.9478,2.8464,2.7405,2.6445,0.0,0.0,0.0,0.0,0.0,0.0,0.0,0.0,0.0,0.0,0.0,0.0,0.0,0.0,0.0,0.0,0.0,0.0,0.0,0.0,0.0,0.0,0.0,0.0,0.0,0.0,0.0,0.0,0.0,0.0,0.0,0.0,0.0,0.0,0.0,0.0,0.0,0.0,0.0,0.0,0.0,0.0,0.0,0.0,0.0,0.0,0.0,0.0,0.0,0.0,0.0,0.0,0.0,0.0,0.0,0.0,0.0,0.0,0.0,0.0,0.0,0.0,0.0,0.0,0.0,0.0,0.0,0.0,0.0,0.0,0.0,0.0,0.0,0.0,0.0,0.0,0.0,0.0,0.0,0.0,0.0,0.0,0.0,0.0,0.0,0.0,0.0,0.0,0.0,0.0,0.0,0.0,0.0,0.0,0.0,0.0,0.0,0.0,0.0,0.0,0.0,0.0,0.0,0.0,0.0,0.0,0.0,0.0,3.2765,3.1593,3.1076,3.1182,3.0756,2.9468,0.0,0.0,0.0,0.0,0.0,0.0,0.0,0.0,0.0,0.0,0.0,0.0,0.0,0.0,0.0,0.0,0.0,0.0,0.0,0.0,0.0,0.0,0.0,0.0,0.0,0.0,0.0,0.0,0.0,0.0,0.0,0.0,0.0,0.0,0.0,0.0,0.0,0.0,0.0,0.0,0.0,0.0,0.0,0.0,0.0,0.0,0.0,0.0,0.0,0.0,0.0,0.0,0.0,0.0,0.0,0.0,0.0,0.0,0.0,0.0,0.0,0.0,0.0,0.0,0.0,0.0,0.0,0.0,0.0,0.0,0.0,0.0,0.0,0.0,0.0,0.0,0.0,0.0,0.0,0.0,0.0,0.0,0.0,0.0,0.0,0.0,0.0,0.0,0.0,0.0,0.0,0.0,0.0,0.0,0.0,0.0,0.0,0.0,0.0,0.0,0.0,0.0,0.0,0.0,0.0,0.0,0.0,0.0,0.0,3.5001,3.5492,3.5247,3.4326,3.2968,3.1653,0.0,0.0,0.0,0.0,0.0,0.0,0.0,0.0,0.0,0.0,0.0,0.0,0.0,0.0,0.0,0.0,0.0,0.0,0.0,0.0,0.0,0.0,0.0,0.0,0.0,0.0,0.0,0.0,0.0,0.0,0.0,0.0,0.0,0.0,0.0,0.0,0.0,0.0,0.0,0.0,0.0,0.0,0.0,0.0,0.0,0.0,0.0,0.0,0.0,0.0,0.0,0.0,0.0,0.0,0.0,0.0,0.0,0.0,0.0,0.0,0.0,0.0,0.0,0.0,0.0,0.0,0.0,0.0,0.0,0.0,0.0,0.0,0.0,0.0,0.0,0.0,0.0,0.0,0.0,0.0,0.0,0.0,0.0,0.0,0.0,0.0,0.0,0.0,0.0,0.0,0.0,0.0,0.0,0.0,0.0,0.0,0.0,0.0,0.0,0.0,0.0,0.0,0.0,0.0,0.0,0.0,0.0,0.0,3.4211,3.66,3.8277,3.8752,3.7984,3.5676,3.3573,0.0,0.0,0.0,0.0,0.0,0.0,0.0,0.0,0.0,0.0,0.0,0.0,0.0,0.0,0.0,0.0,0.0,0.0,0.0,0.0,0.0,0.0,0.0,0.0,0.0,0.0,0.0,0.0,0.0,0.0,0.0,0.0,0.0,0.0,0.0,0.0,0.0,0.0,0.0,0.0,0.0,0.0,0.0,0.0,0.0,0.0,0.0,0.0,0.0,0.0,0.0,0.0,0.0,0.0,0.0,0.0,0.0,0.0,0.0,0.0,0.0,0.0,0.0,0.0,0.0,0.0,0.0,0.0,0.0,0.0,0.0,0.0,0.0,0.0,0.0,0.0,0.0,0.0,0.0,0.0,0.0,0.0,0.0,0.0,0.0,0.0,0.0,0.0,0.0,0.0,0.0,0.0,0.0,0.0,0.0,0.0,0.0,0.0,0.0,0.0,0.0,0.0,0.0,0.0,0.0,0.0,0.0,0.0,3.6,3.7717,4.0147,4.1413,4.1309,3.8292,3.5339,0.0,0.0,0.0,0.0,0.0,0.0,0.0,0.0,0.0,0.0,0.0,0.0,0.0,0.0,0.0,0.0,0.0,0.0,0.0,0.0,0.0,0.0,0.0,0.0,0.0,0.0,0.0,0.0,0.0,0.0,0.0,0.0,0.0,0.0,0.0,0.0,0.0,0.0,0.0,0.0,0.0,0.0,0.0,0.0,0.0,0.0,0.0,0.0,0.0,0.0,0.0,0.0,0.0,0.0,0.0,0.0,0.0,0.0,0.0,0.0,0.0,0.0,0.0,0.0,0.0,0.0,0.0,0.0,0.0,0.0,0.0,0.0,0.0,0.0,0.0,0.0,0.0,0.0,0.0,0.0,0.0,0.0,0.0,0.0,0.0,0.0,0.0,0.0,0.0,0.0,0.0,0.0,0.0,0.0,0.0,0.0,0.0,0.0,0.0,0.0,0.0,0.0,0.0,0.0,0.0,0.0,0.0,0.0,3.7128,3.9209,4.091,4.1587,4.1069,3.897,3.6989,0.0,0.0,0.0,0.0,0.0,0.0,0.0,0.0,0.0,0.0,0.0,0.0,0.0,0.0,0.0,0.0,0.0,0.0,0.0,0.0,0.0,0.0,0.0,0.0,0.0,0.0,0.0,0.0,0.0,0.0,0.0,0.0,0.0,0.0,0.0,0.0,0.0,0.0,0.0,0.0,0.0,0.0,0.0,0.0,0.0,0.0,0.0,0.0,2.9804,0.0,0.0,0.0,0.0,0.0,0.0,0.0,0.0,0.0,0.0,0.0,0.0,0.0,0.0,0.0,0.0,0.0,0.0,0.0,0.0,0.0,0.0,0.0,0.0,0.0,0.0,0.0,0.0,0.0,0.0,0.0,0.0,0.0,0.0,0.0,0.0,0.0,0.0,0.0,0.0,0.0,0.0,0.0,0.0,0.0,0.0,0.0,0.0,0.0,0.0,0.0,0.0,0.0,0.0,0.0,0.0,0.0,0.0,0.0,3.8089,4.0277,4.1783,4.238,4.2023,4.0294,3.8196,0.0,0.0,0.0,0.0,0.0,0.0,0.0,0.0,0.0,0.0,0.0,0.0,0.0,0.0,0.0,0.0,0.0,0.0,0.0,0.0,0.0,0.0,0.0,0.0,0.0,0.0,0.0,0.0,0.0,0.0,0.0,0.0,0.0,0.0,0.0,0.0,0.0,0.0,0.0,0.0,0.0,0.0,0.0,0.0,0.0,0.0,0.0,0.0,0.0,0.0,0.0,0.0,0.0,0.0,0.0,0.0,0.0,0.0,0.0,0.0,0.0,0.0,0.0,0.0,0.0,0.0,0.0,0.0,0.0,0.0,0.0,0.0,0.0,0.0,0.0,0.0,0.0,0.0,0.0,0.0,0.0,0.0,0.0,0.0,0.0,0.0,0.0,0.0,0.0,0.0,0.0,0.0,0.0,0.0,0.0,0.0,0.0,0.0,0.0,0.0,0.0,0.0,0.0,0.0,0.0,0.0,0.0,3.6247,3.8944,4.1216,4.2623,4.3279,4.3157,4.143,3.8975,3.5737,0.0,0.0,0.0,0.0,0.0,0.0,0.0,0.0,0.0,0.0,0.0,0.0,0.0,0.0,0.0,0.0,0.0,0.0,0.0,0.0,0.0,0.0,0.0,0.0,0.0,0.0,0.0,0.0,0.0,0.0,0.0,0.0,0.0,0.0,0.0,0.0,0.0,0.0,2.3537,2.6321,0.0,0.0,0.0,0.0,0.0,0.0,0.0,0.0,3.3801,0.0,0.0,0.0,0.0,0.0,0.0,0.0,0.0,0.0,0.0,0.0,0.0,0.0,0.0,0.0,0.0,0.0,0.0,0.0,0.0,0.0,0.0,0.0,0.0,0.0,0.0,0.0,0.0,0.0,0.0,0.0,0.0,0.0,0.0,0.0,0.0,0.0,0.0,0.0,0.0,0.0,0.0,0.0,0.0,0.0,0.0,0.0,0.0,0.0,0.0,0.0,0.0,0.0,0.0,0.0,0.0,3.4744,3.7193,3.9697,4.2094,4.2901,4.3064,4.2585,4.0933,3.8804,3.6259,0.0,0.0,0.0,0.0,0.0,0.0,0.0,0.0,0.0,0.0,0.0,0.0,0.0,0.0,0.0,0.0,0.0,0.0,0.0,0.0,0.0,0.0,0.0,0.0,0.0,0.0,0.0,0.0,0.0,0.0,0.0,0.0,0.0,0.0,0.0,0.0,0.0,0.0,0.0,2.8867,3.0858,0.0,0.0,0.0,0.0,0.0,0.0,0.0,0.0,3.591,0.0,0.0,0.0,0.0,0.0,0.0,0.0,0.0,0.0,0.0,0.0,0.0,0.0,0.0,0.0,0.0,0.0,0.0,0.0,0.0,0.0,0.0,0.0,0.0,0.0,0.0,0.0,0.0,0.0,0.0,0.0,0.0,0.0,0.0,0.0,0.0,0.0,0.0,0.0,0.0,0.0,0.0,0.0,0.0,0.0,0.0,0.0,0.0,0.0,0.0,0.0,0.0,0.0,0.0,0.0,3.6092,3.8289,4.0537,4.2791,4.311,4.3187,4.291,4.109,3.9094,0.0,0.0,0.0,0.0,0.0,0.0,0.0,0.0,0.0,0.0,0.0,0.0,0.0,0.0,0.0,0.0,0.0,0.0,0.0,0.0,0.0,0.0,0.0,0.0,0.0,0.0,0.0,0.0,0.0,0.0,0.0,0.0,0.0,0.0,0.0,0.0,0.0,0.0,0.0,0.0,3.0946,3.3056,3.606,0.0,0.0,0.0,0.0,0.0,0.0,3.801,3.7542,0.0,0.0,0.0,0.0,0.0,0.0,0.0,0.0,0.0,0.0,0.0,0.0,0.0,0.0,0.0,0.0,0.0,0.0,0.0,0.0,0.0,0.0,0.0,0.0,0.0,0.0,0.0,0.0,0.0,0.0,0.0,0.0,0.0,0.0,0.0,0.0,0.0,0.0,0.0,0.0,0.0,0.0,0.0,0.0,0.0,0.0,0.0,0.0,0.0,0.0,0.0,0.0,0.0,0.0,0.0,3.7092,3.9092,4.1135,4.32,4.329,4.3269,4.3169,4.1205,3.9152,0.0,0.0,0.0,0.0,0.0,0.0,0.0,0.0,0.0,0.0,0.0,0.0,0.0,0.0,0.0,0.0,0.0,0.0,0.0,0.0,0.0,0.0,0.0,0.0,0.0,0.0,0.0,0.0,0.0,0.0,0.0,0.0,0.0,0.0,0.0,0.0,0.0,0.0,0.0,0.0,0.0,3.5302,3.8069,3.8627,0.0,0.0,0.0,0.0,3.9676,3.9689,0.0,0.0,0.0,0.0,0.0,0.0,0.0,0.0,0.0,0.0,0.0,0.0,0.0,0.0,0.0,0.0,0.0,0.0,0.0,0.0,0.0,0.0,0.0,0.0,0.0,0.0,0.0,0.0,0.0,0.0,0.0,0.0,0.0,0.0,0.0,0.0,0.0,0.0,0.0,0.0,0.0,0.0,0.0,0.0,0.0,0.0,0.0,0.0,0.0,0.0,0.0,0.0,0.0,0.0,0.0,0.0,3.7266,3.9158,4.1135,4.317,4.329,4.3187,4.2932,4.0516,3.843,0.0,0.0,0.0,0.0,0.0,0.0,0.0,0.0,0.0,0.0,0.0,0.0,0.0,0.0,0.0,0.0,0.0,0.0,0.0,0.0,0.0,0.0,0.0,0.0,0.0,0.0,0.0,0.0,0.0,0.0,0.0,0.0,0.0,0.0,0.0,0.0,0.0,0.0,0.0,0.0,0.0,3.7287,4.0077,4.0958,4.1106,0.0,0.0,0.0,4.1772,4.2684,0.0,0.0,0.0,0.0,0.0,0.0,0.0,0.0,0.0,0.0,0.0,0.0,0.0,0.0,0.0,0.0,0.0,0.0,0.0,0.0,0.0,0.0,0.0,0.0,0.0,0.0,0.0,0.0,0.0,0.0,0.0,0.0,0.0,0.0,0.0,0.0,0.0,0.0,0.0,0.0,0.0,0.0,0.0,0.0,0.0,0.0,0.0,0.0,0.0,0.0,0.0,0.0,0.0,0.0,0.0,3.4577,3.782,3.9869,4.1667,4.323,4.329,4.3219,4.3145,4.0636,3.8484,0.0,0.0,0.0,0.0,0.0,0.0,0.0,0.0,0.0,0.0,0.0,0.0,0.0,0.0,0.0,0.0,0.0,0.0,0.0,0.0,0.0,0.0,0.0,0.0,0.0,0.0,0.0,0.0,0.0,0.0,0.0,0.0,0.0,0.0,0.0,0.0,0.0,0.0,0.0,0.0,0.0,0.0,4.0498,4.1892,0.0,0.0,0.0,4.2902,4.33,0.0,0.0,0.0,0.0,0.0,0.0,0.0,0.0,0.0,0.0,0.0,0.0,0.0,0.0,0.0,0.0,0.0,0.0,0.0,0.0,0.0,0.0,0.0,0.0,0.0,0.0,0.0,0.0,0.0,0.0,0.0,0.0,0.0,0.0,0.0,0.0,0.0,0.0,0.0,0.0,0.0,0.0,0.0,0.0,0.0,0.0,0.0,0.0,0.0,0.0,0.0,0.0,0.0,0.0,0.0,0.0,0.0,3.8323,4.0359,4.2013,4.323,4.329,4.32,4.306,4.0621,0.0,0.0,0.0,0.0,0.0,0.0,0.0,0.0,0.0,0.0,0.0,0.0,0.0,0.0,0.0,0.0,0.0,0.0,0.0,0.0,0.0,0.0,0.0,0.0,0.0,0.0,0.0,2.1719,0.0,0.0,0.0,0.0,0.0,0.0,0.0,0.0,0.0,0.0,0.0,0.0,0.0,0.0,3.9412,4.1057,4.2912,4.4047,0.0,0.0,4.4157,4.4496,4.4463,4.4032,0.0,0.0,0.0,0.0,0.0,0.0,0.0,0.0,0.0,0.0,0.0,0.0,0.0,0.0,0.0,0.0,0.0,0.0,0.0,0.0,0.0,0.0,0.0,0.0,0.0,0.0,0.0,0.0,0.0,0.0,0.0,0.0,0.0,0.0,0.0,0.0,0.0,0.0,0.0,0.0,0.0,0.0,0.0,0.0,0.0,0.0,0.0,0.0,0.0,0.0,0.0,0.0,0.0,0.0,0.0,3.8546,4.0434,4.2013,4.323,4.329,4.306,4.244,4.0271,3.8424,0.0,0.0,0.0,0.0,0.0,0.0,0.0,0.0,0.0,0.0,0.0,0.0,0.0,0.0,0.0,0.0,0.0,0.0,0.0,0.0,0.0,0.0,0.0,0.0,0.0,0.0,0.0,0.0,0.0,0.0,0.0,0.0,0.0,0.0,0.0,0.0,0.0,0.0,0.0,0.0,0.0,4.1186,4.2372,4.4596,4.5903,0.0,0.0,4.5933,4.5334,4.6741,4.6761,4.3271,0.0,0.0,0.0,0.0,0.0,0.0,0.0,0.0,0.0,0.0,0.0,0.0,0.0,0.0,0.0,0.0,0.0,0.0,0.0,0.0,0.0,0.0,0.0,0.0,0.0,0.0,0.0,0.0,0.0,0.0,0.0,0.0,0.0,0.0,0.0,0.0,0.0,0.0,0.0,0.0,0.0,0.0,0.0,0.0,0.0,0.0,0.0,0.0,0.0,0.0,0.0,0.0,0.0,3.5648,3.8546,4.0048,4.1414,4.2641,4.2342,4.2013,4.1811,4.0173,3.8603,0.0,0.0,0.0,0.0,0.0,0.0,0.0,0.0,0.0,0.0,0.0,0.0,0.0,0.0,0.0,0.0,0.0,0.0,0.0,0.0,0.0,0.0,0.0,0.0,0.0,0.0,0.0,0.0,2.9777,3.0619,3.0342,0.0,0.0,0.0,0.0,0.0,0.0,0.0,0.0,0.0,0.0,4.2444,4.3915,4.5364,0.0,0.0,4.6411,4.6381,4.6501,4.6471,4.5938,4.4395,4.3016,0.0,0.0,0.0,0.0,0.0,0.0,0.0,0.0,0.0,0.0,0.0,0.0,0.0,0.0,0.0,0.0,0.0,0.0,0.0,0.0,0.0,0.0,0.0,0.0,0.0,0.0,0.0,0.0,0.0,0.0,0.0,0.0,0.0,0.0,0.0,0.0,0.0,0.0,0.0,0.0,0.0,0.0,0.0,0.0,0.0,0.0,0.0,0.0,0.0,0.0,0.0,0.0,3.563,3.8385,3.9691,4.0935,4.2081,4.1662,4.1332,4.1055,4.0008,3.871,0.0,0.0,0.0,0.0,0.0,0.0,0.0,0.0,0.0,0.0,0.0,0.0,0.0,0.0,0.0,0.0,0.0,0.0,0.0,0.0,0.0,0.0,0.0,0.0,0.0,0.0,0.0,0.0,3.1094,3.1767,3.1441,0.0,0.0,0.0,0.0,0.0,0.0,0.0,0.0,0.0,0.0,4.3661,4.5119,4.6075,4.68,4.7249,4.692,4.6728,4.7219,4.6501,4.5801,4.534,0.0,0.0,0.0,0.0,0.0,0.0,0.0,0.0,0.0,0.0,0.0,0.0,0.0,0.0,0.0,0.0,0.0,0.0,0.0,0.0,0.0,0.0,0.0,0.0,0.0,0.0,0.0,0.0,0.0,0.0,2.2146,0.0,0.0,0.0,0.0,0.0,0.0,0.0,0.0,0.0,0.0,0.0,0.0,0.0,0.0,0.0,0.0,0.0,0.0,0.0,0.0,0.0,0.0,3.5525,3.7853,3.9556,4.0726,4.1422,4.1422,4.1055,4.0457,3.9768,3.8704,3.7223,0.0,0.0,0.0,0.0,0.0,0.0,0.0,0.0,0.0,0.0,0.0,0.0,0.0,0.0,0.0,0.0,0.0,0.0,0.0,0.0,0.0,0.0,0.0,0.0,0.0,0.0,2.9343,3.08,3.1911,0.0,0.0,0.0,0.0,0.0,0.0,0.0,0.0,0.0,0.0,4.316,4.4968,4.5832,4.6731,4.7279,4.7309,4.7279,4.7279,4.7309,4.7249,4.6954,0.0,0.0,0.0,0.0,0.0,0.0,0.0,0.0,0.0,0.0,0.0,0.0,0.0,0.0,0.0,0.0,0.0,0.0,0.0,0.0,0.0,0.0,0.0,0.0,0.0,0.0,0.0,2.3687,2.57,0.0,0.0,0.0,0.0,0.0,0.0,0.0,0.0,0.0,0.0,0.0,3.5205,3.6085,0.0,0.0,0.0,0.0,0.0,0.0,0.0,0.0,0.0,0.0,0.0,0.0,3.6142,3.786,3.9109,4.0068,4.0696,4.0307,4.0187,4.0397,3.9732,3.8674,3.7223,0.0,0.0,0.0,0.0,0.0,0.0,0.0,0.0,0.0,0.0,0.0,0.0,0.0,0.0,0.0,0.0,0.0,0.0,0.0,0.0,0.0,0.0,0.0,0.0,0.0,3.1358,0.0,0.0,0.0,0.0,0.0,0.0,0.0,0.0,0.0,0.0,0.0,4.1054,4.3231,4.4731,4.5862,4.6731,4.7116,4.7309,0.0,0.0,0.0,0.0,0.0,0.0,0.0,0.0,0.0,0.0,0.0,0.0,0.0,0.0,4.0188,3.7528,3.7135,3.736,3.7799,0.0,0.0,0.0,0.0,0.0,0.0,0.0,0.0,0.0,0.0,0.0,0.0,0.0,0.0,0.0,0.0,2.9477,0.0,0.0,0.0,0.0,0.0,0.0,0.0,0.0,3.6716,3.784,3.7906,3.8561,3.8767,0.0,3.6793,3.4787,0.0,0.0,0.0,0.0,0.0,0.0,0.0,0.0,3.6369,3.7606,3.8817,3.9582,4.0008,3.9612,3.9619,4.0038,3.9409,3.8799,3.834,3.7198,3.5807,0.0,0.0,0.0,0.0,0.0,0.0,0.0,0.0,0.0,0.0,0.0,0.0,0.0,0.0,0.0,0.0,0.0,0.0,0.0,0.0,0.0,0.0,0.0,3.2687,0.0,0.0,0.0,0.0,0.0,0.0,0.0,0.0,0.0,3.865,4.1007,4.3319,4.4951,4.5892,4.6672,4.7206,0.0,0.0,0.0,0.0,0.0,0.0,0.0,4.7578,4.8207,4.7835,4.7688,4.8253,4.7674,4.6933,4.6253,0.0,0.0,4.1342,4.086,4.1056,4.1469,4.1765,4.2296,4.3537,4.398,4.4406,0.0,0.0,0.0,0.0,0.0,0.0,0.0,0.0,3.0669,3.1103,0.0,3.2387,0.0,0.0,0.0,0.0,0.0,3.5024,0.0,0.0,3.9275,4.0345,4.0226,4.0812,4.0812,4.0196,3.9299,3.8538,3.7801,3.4301,0.0,0.0,0.0,0.0,0.0,0.0,3.6261,3.7283,3.871,3.9403,3.9469,3.9433,3.9433,3.9499,3.8871,3.911,4.0247,3.84,3.7283,3.7193,3.4394,0.0,0.0,0.0,0.0,0.0,0.0,0.0,0.0,0.0,0.0,0.0,0.0,0.0,0.0,0.0,0.0,0.0,0.0,0.0,0.0,3.2061,0.0,0.0,0.0,0.0,0.0,0.0,0.0,0.0,0.0,0.0,4.0304,4.3012,4.528,4.5934,0.0,0.0,0.0,0.0,4.7578,4.8237,4.8327,4.8596,4.9239,4.9359,4.9523,5.0136,0.0,0.0,5.0887,5.0394,4.977,4.9145,4.8551,4.7466,4.5352,4.479,4.4702,4.479,4.5234,4.5752,4.587,4.6357,4.6815,3.0874,0.0,0.0,0.0,0.0,2.9181,3.1034,3.3891,3.3983,3.4499,3.5204,3.5409,0.0,0.0,0.0,0.0,0.0,0.0,3.7912,3.881,4.0698,4.165,4.1765,4.2384,4.2583,4.2315,4.1211,4.0785,4.0972,3.8115,3.6089,3.5044,0.0,0.0,0.0,0.0,3.7629,3.7972,3.8919,3.9612,4.0098,4.0127,4.0367,4.0816,4.0636,4.0487,4.0397,3.9822,3.9002,3.7942,3.6615,0.0,0.0,0.0,0.0,0.0,0.0,0.0,0.0,0.0,0.0,0.0,0.0,0.0,0.0,0.0,0.0,0.0,0.0,0.0,3.3731,3.5126,3.598,0.0,0.0,0.0,0.0,0.0,0.0,0.0,0.0,0.0,4.2957,4.421,4.5639,0.0,0.0,4.7459,4.7938,4.7997,4.8237,4.894,0.0,0.0,0.0,5.0361,5.087,5.1528,5.2037,5.2396,5.2528,5.236,5.2181,5.1972,5.1434,5.0777,5.0133,4.8089,4.6867,4.7135,4.7434,4.7881,4.8671,4.9058,4.9342,3.6391,3.3964,3.2021,3.1799,3.2775,3.2764,3.4386,3.7018,3.6939,3.7135,3.755,3.7658,3.6822,3.5346,3.5346,0.0,0.0,0.0,3.9761,4.0822,4.2288,4.3031,4.318,4.3539,4.3529,4.326,4.2282,4.2141,4.2701,4.0606,3.9175,3.8328,0.0,0.0,3.7092,3.7801,3.8513,3.9056,3.9582,4.0127,4.0756,4.0786,4.0965,4.1354,4.1145,4.1055,4.1175,4.0935,4.036,3.951,3.8543,3.6793,0.0,0.0,0.0,0.0,0.0,0.0,0.0,0.0,0.0,0.0,0.0,2.8225,0.0,0.0,0.0,0.0,3.2954,3.4268,3.5922,3.696,0.0,0.0,0.0,0.0,0.0,0.0,0.0,4.1087,4.3205,4.4686,4.4775,4.5538,4.6501,4.7549,4.7698,4.7908,4.8596,0.0,4.8985,4.9912,5.0361,5.0764,5.1319,5.1738,5.2217,5.2875,5.3533,5.3952,5.3982,5.3982,5.3892,5.3593,5.3025,5.2516,5.2247,5.0331,4.8955,4.9374,4.9464,4.9823,5.081,5.0973,5.1199,4.1369,4.0,3.4789,3.4281,3.6835,3.6063,3.7214,3.9532,3.9369,3.9178,3.8986,3.9191,3.8783,3.799,3.7962,0.0,3.7872,4.0065,4.1598,4.2736,4.3805,4.4306,4.4377,4.4377,4.4077,4.3439,4.2821,4.2821,4.329,4.2102,4.1841,4.2351,3.9175,3.8085,3.9126,3.8716,3.9086,4.0367,4.0457,4.0786,4.1444,4.1504,4.1504,4.1474,4.0876,4.1153,4.2261,4.1782,4.1444,4.1354,4.0047,3.8389,3.6416,0.0,0.0,0.0,0.0,0.0,0.0,0.0,0.0,0.0,0.0,0.0,0.0,0.0,0.0,0.0,3.5548,0.0,3.755,3.8162,0.0,0.0,0.0,4.0347,4.0958,4.1647,4.2503,4.3685,0.0,0.0,4.5888,0.0,4.7608,4.8267,4.8386,4.8596,4.9299,4.9449,4.9883,5.1079,5.1409,5.1887,5.2935,5.3264,5.3533,5.4102,5.479,5.5089,5.5089,5.5119,5.491,5.4281,5.3683,5.3054,5.2396,5.1738,5.1379,5.1349,5.1289,5.1439,5.1977,5.2157,5.2366,4.1365,4.1053,3.969,3.913,3.9053,3.8848,3.9382,4.0365,4.0351,4.0055,3.9605,3.9647,3.9309,3.8677,3.8677,3.8887,3.9307,4.0155,4.141,4.2927,4.3531,4.4299,4.5035,4.5065,4.4975,4.4796,4.4167,4.3928,4.4018,4.28,4.2462,4.297,4.1287,4.0263,4.0114,4.0479,4.0539,4.0397,4.0905,4.1512,4.2171,4.2611,4.2641,4.2171,4.2021,4.1841,4.1692,4.1991,4.1931,4.1384,4.0569,3.939,3.7788,3.5477,0.0,0.0,0.0,0.0,0.0,0.0,0.0,0.0,0.0,3.1771,3.2881,0.0,3.5505,0.0,3.7471,3.8919,3.9649,4.0689,0.0,0.0,4.1852,4.2515,4.2935,4.3749,4.4365,4.4662,4.5752,4.6446,4.6267,4.7296,4.8297,4.9,4.909,4.9284,4.9912,5.0451,5.102,5.1858,5.2785,5.3593,5.3892,5.4401,5.473,5.494,5.5089,5.5179,5.5209,5.5209,5.497,5.4371,5.4102,5.3713,5.3084,5.2815,5.2695,5.2695,5.2306,5.2007,5.2187,5.2606,5.2995,4.1071,4.11,4.11,4.0774,4.021,4.021,4.0378,4.0716,4.0716,4.0519,4.021,4.0182,3.9845,3.9352,3.9605,3.9704,3.9858,4.0857,4.1822,4.2738,4.3494,4.428,4.5013,4.5042,4.5138,4.5274,4.4915,4.4766,4.4706,4.3718,4.3419,4.3708,4.2761,4.1923,4.1362,4.1392,4.1474,4.1683,4.2073,4.2432,4.2791,4.2851,4.2581,4.1991,4.1692,4.1324,4.0965,4.1294,4.1324,4.0965,4.0606,3.9762,3.8376,3.6832,3.533,0.0,0.0,0.0,0.0,0.0,0.0,0.0,0.0,0.0,0.0,0.0,3.755,3.8012,3.9702,4.0876,4.1235,4.2462,4.32,4.3081,4.3945,4.462,4.4852,4.5531,4.6032,4.6032,4.6774,4.716,4.686,4.7908,4.8835,4.9269,4.9763,5.0272,5.0631,5.1229,5.1887,5.2546,5.3533,5.4341,5.4581,5.494,5.5209,5.5209,5.5209,5.5209,5.5209,5.5209,5.5059,5.47,5.4431,5.4102,5.3713,5.3354,5.3174,5.3174,5.3144,5.3084,5.3114,5.3384,5.3683,4.0716,4.0716,4.0716,4.0716,4.0716,4.0716,4.0716,4.0716,4.0716,4.0716,4.0716,4.0716,4.0407,3.9929,4.0463,4.0407,4.0027,4.1497,4.2253,4.2453,4.3358,4.4078,4.4621,4.4579,4.479,4.5138,4.5221,4.5161,4.5072,4.4635,4.4407,4.4287,4.3798,4.3299,4.277,4.2162,4.2342,4.329,4.329,4.329,4.329,4.2791,4.2171,4.1414,4.0905,4.0576,4.0397,4.0487,4.0546,4.0516,4.0457,3.9858,3.8721,3.7804,3.6807,0.0,3.5351,0.0,0.0,0.0,0.0,0.0,0.0,0.0,0.0,3.8048,3.9439,4.0666,4.1893,4.268,4.277,4.3838,4.4586,4.4586,4.5693,4.6441,4.6429,4.695,4.7309,4.7309,4.7309,4.7309,4.7339,4.8446,4.9299,4.9389,5.0331,5.1079,5.1259,5.1828,5.2516,5.3114,5.3832,5.4581,5.5029,5.5179,5.5209,5.5209,5.5209,5.5209,5.5209,5.5209,5.5149,5.4999,5.464,5.4341,5.4251,5.3773,5.3503,5.3582,5.3952,5.4221,5.4132,5.4102,5.4431,4.0716,4.0716,4.0716,4.0716,4.0716,4.0716,4.0716,4.0716,4.0716,4.0716,4.0716,4.0716,4.0631,4.0547,4.0631,4.0631,4.0547,4.0858,4.1554,4.2424,4.2625,4.3199,4.4093,4.4122,4.4165,4.4294,4.4663,4.4536,4.4004,4.475,4.4825,4.4347,4.4736,4.4855,4.4736,0.0,0.0,0.0,4.329,4.329,4.329,4.317,4.2581,4.1482,4.1811,0.0,4.0487,4.0905,4.1205,4.1212,4.0696,0.0,0.0,0.0,0.0,0.0,0.0,0.0,0.0,0.0,0.0,0.0,3.9261,3.9172,3.9393,4.0771,4.1923,4.2662,4.3509,4.4167,4.4706,4.5454,4.5891,4.592,4.6651,4.713,4.713,4.7249,4.7309,4.7309,4.7309,4.7309,4.7459,4.8446,4.9299,4.9419,5.0391,5.1169,5.1229,5.2187,5.2995,5.3234,5.4192,5.4999,5.5179,5.5209,5.5209,5.5209,5.5209,5.5209,5.5209,5.5209,5.497,5.4581,5.473,5.482,5.4341,5.4521,5.473,5.479,5.488,5.485,5.4341,5.4221,5.4401,4.0716,0.0,4.0716,4.0716,0.0,4.0716,4.0716,4.0716,4.0716,4.0716,4.0716,4.0716,4.0716,4.0716,4.0716,4.0716,4.0716,4.0716,4.0985,4.1554,4.1554,4.2153,4.3228,4.3228,4.3459,4.3964,4.4251,4.4464,4.4647,4.4887,4.5096,4.5304,4.5304,4.5274,4.5274,4.5274,4.4796,4.3768,4.3439,4.329,4.329,4.303,4.2521,4.1931,0.0,0.0,0.0,0.0,0.0,0.0,0.0,0.0,0.0,0.0,0.0,3.9301,3.949,3.9512,3.9215,3.978,4.0591,4.162,4.2276,4.2365,4.1739,4.2722,4.3599,4.4257,4.4915,4.5412,4.5783,4.6411,4.6758,4.683,4.71,4.7309,4.7309,4.7309,4.7459,4.7698,4.7489,4.7519,4.8207,4.8805,4.9419,4.9733,5.0571,5.1229,5.1319,5.2037,5.2875,5.3563,5.4491,5.5179,5.5209,5.5209,5.5209,5.5209,5.5209,5.5209,5.5209,5.5209,5.5059,5.479,5.497,5.5059,5.482,5.497,5.5209,5.5209,5.5209,5.5119,5.476,5.47,5.467,4.0716,4.0716,4.0716,4.0716,4.0716,4.0716,4.0716,4.0716,0.0,0.0,0.0,4.0716,4.0716,4.0716,4.0716,4.0716,4.0716,4.0716,4.0716,4.0716,4.0716,4.1184,4.2081,4.2124,4.2553,4.343,4.3632,4.4108,4.4862,4.4857,4.526,4.5913,4.5741,4.5633,4.5633,4.5544,4.5214,4.4676,4.3858,4.3409,4.329,4.2821,4.25,4.241,4.1871,4.1235,4.0606,4.0576,4.0337,3.9798,3.9768,4.0008,4.0516,4.0696,4.0756,4.0756,4.1474,4.1624,4.0995,4.1654,4.2521,4.3559,4.4796,4.4975,4.3738,4.4287,4.4885,4.5424,4.6112,4.6459,4.6459,4.698,4.7309,4.7309,4.7309,4.7309,4.7309,4.7309,4.7549,4.8087,4.7818,4.7908,4.909,4.9389,4.9613,5.0136,5.0734,5.1289,5.1439,5.2037,5.2875,5.3952,5.473,5.5209,5.5209,5.5209,5.5209,5.5209,5.5209,5.5209,5.5209,5.5209,5.5209,5.5149,5.5179,5.5179,5.5179,5.5179,5.5209,5.5209,5.5209,5.5209,5.5209,5.5179,5.497,4.0716,4.0716,4.0716,4.0716,4.0716,4.0716,4.0716,4.0716,4.0716,4.0716,4.0716,4.0716,4.0716,4.0716,4.0716,4.0716,4.0716,4.0716,4.0716,0.0,4.0716,4.0787,4.0914,4.0957,4.1013,4.1255,4.2153,4.2396,4.2265,4.4352,4.5296,4.5158,4.633,4.698,4.698,4.6471,4.6142,4.6022,4.4825,4.3858,4.3319,4.32,4.291,4.244,4.2321,4.1961,4.1294,4.1302,4.1205,4.1115,4.1115,4.1145,4.1265,4.1811,4.2141,4.2201,4.324,4.3599,4.2961,4.4047,4.4825,4.5035,4.5753,4.5801,4.5125,4.5663,4.604,4.616,4.677,4.716,4.7189,4.7249,4.7309,4.7309,4.7309,4.7309,4.7309,4.7339,4.7608,4.8237,4.8237,4.8461,4.9269,4.9763,5.0046,5.0255,5.0794,5.1409,5.1977,5.2636,5.3324,5.4072,5.476,5.5149,5.5209,5.5209,5.5209,5.5209,5.5209,5.5209,5.5209,5.5209,5.5209,5.5209,5.5209,5.5209,5.5209,5.5209,5.5209,5.5209,5.5209,5.5209,5.5179,5.5179,5.494,4.0716,4.0716,4.0716,4.0716,4.0716,4.0716,4.0716,4.0701,4.0618,4.065,4.0716,4.0716,4.0716,4.0716,4.0716,4.0716,4.0716,4.0716,4.0716,4.0716,4.0716,4.0716,4.0716,4.0716,4.0716,4.0759,4.1212,4.1639,4.2081,4.3285,4.4021,4.4352,4.5707,4.6705,4.7206,4.701,4.6638,4.6279,4.5334,4.4526,4.3858,4.3828,4.3539,4.291,4.288,4.2761,4.2462,4.2462,4.2462,4.2462,4.2432,4.2611,4.294,4.291,4.306,4.3389,4.3629,4.3808,4.3828,4.5095,4.5873,4.5873,4.6471,4.6741,4.6411,4.6681,4.686,4.686,4.713,4.7309,4.7309,4.7309,4.7309,4.7309,4.7309,4.7309,4.7339,4.7668,4.8087,4.8686,4.888,4.9194,5.0212,5.0272,5.0375,5.0644,5.1033,5.1468,5.2127,5.2755,5.3414,5.4102,5.476,5.5149,5.5209,5.5209,5.5209,5.5209,5.5209,5.5209,5.5209,5.5209,5.5209,5.5209,5.5209,5.5209,5.5209,5.5209,5.5209,5.5209,5.5209,5.5209,5.5179,5.494,5.4431,4.1109,4.1109,4.0969,4.0828,4.0716,4.0856,4.0826,4.0637,4.0673,4.0763,4.0833,4.0752,4.0709,4.0864,4.0742,4.0772,4.0884,4.0912,4.0828,4.0716,4.0856,4.0828,4.0716,4.0716,4.0716,4.0716,4.0716,4.1155,4.1953,4.2253,4.2955,4.3993,4.5081,4.6016,4.6897,4.7206,4.704,4.6518,4.6022,4.5364,4.4586,4.4556,4.4186,4.3559,4.3529,4.3499,4.3539,4.3449,4.3509,4.3708,4.3589,4.3798,4.4466,4.4157,4.4186,4.4646,4.4396,4.4396,4.4975,4.5771,4.6339,4.6561,4.701,4.7309,4.7309,4.7309,4.7309,4.7309,4.7309,4.7309,4.7309,4.7309,4.7309,4.7309,4.7309,4.7399,4.7549,4.7967,4.8626,4.9284,4.9464,4.9942,5.081,5.0734,5.0644,5.1079,5.1349,5.1708,5.2336,5.2995,5.3653,5.4311,5.488,5.5149,5.5209,5.5209,5.5209,5.5209,5.5209,5.5209,5.5209,5.5209,5.5209,5.5209,5.5209,5.5209,5.5209,5.5209,5.5209,5.5209,5.5209,5.5209,5.5179,5.485,5.4102,4.2402,4.2317,4.1711,4.1193,4.0813,4.129,4.1118,4.0666,4.1078,4.1315,4.1233,4.0758,4.084,4.1205,4.0888,4.0982,4.1474,4.1531,4.125,4.0828,4.1278,4.125,4.08,4.0716,4.0716,4.0716,4.0716,4.0787,4.1013,4.1853,4.2926,4.3993,4.5081,4.565,4.5884,4.6764,4.7249,4.7219,4.716,4.6501,4.5304,4.5214,4.4915,4.4257,4.4227,4.4186,4.4257,4.3618,4.3898,4.4945,4.4556,4.4526,4.5155,4.5723,4.601,4.607,4.6591,4.698,4.695,4.6548,4.6591,4.713,4.7249,4.7309,4.7309,4.7309,4.7309,4.7309,4.7309,4.7309,4.7309,4.7309,4.7309,4.7309,4.7309,4.7519,4.8057,4.8267,4.8775,4.9986,5.0076,5.0375,5.105,5.1109,5.1109,5.1199,5.1678,5.2217,5.2905,5.3563,5.4251,5.485,5.5179,5.5179,5.5209,5.5209,5.5209,5.5209,5.5209,5.5209,5.5209,5.5209,5.5209,5.5209,5.5209,5.5209,5.5209,5.5209,5.5209,5.5209,5.5209,5.5209,5.5209,5.5089,5.4401,4.1692,4.1684,4.1544,4.1532,4.1635,4.1677,4.1403,4.0831,4.1307,4.135,4.1059,4.1112,4.151,4.2046,4.1401,4.1285,4.1599,4.2008,4.184,4.1334,4.1896,4.2064,4.1812,4.139,4.1221,4.1193,4.0884,4.0716,4.0787,4.1184,4.1953,4.3056,4.4167,4.4936,4.565,4.6734,4.7309,4.7309,4.7309,4.704,4.6501,4.6112,4.5574,4.4975,4.4885,4.5095,4.5394,4.4855,4.5095,4.6322,4.5843,4.5813,4.6441,4.6381,4.6279,4.6309,4.6561,4.6711,4.6711,4.683,4.701,4.7309,4.7309,4.7309,4.7309,4.7309,4.7309,4.7309,4.7309,4.7309,4.7309,4.7309,4.7309,4.7309,4.7309,4.7578,4.8207,4.87,4.9254,5.0076,5.0524,5.0853,5.1139,5.1229,5.1229,5.1289,5.1798,5.2456,5.3114,5.3773,5.4461,5.5029,5.5209,5.5209,5.5209,5.5209,5.5209,5.5209,5.5209,5.5209,5.5209,5.5209,5.5209,5.5209,5.5209,5.5209,5.5209,5.5209,5.5209,5.5209,5.5209,5.5209,5.5209,5.5209,5.4461,4.1758,4.175,4.1794,4.1903,4.2106,4.2088,4.1693,4.1258,4.1645,4.1621,4.1311,4.144,4.2042,4.2681,4.1778,4.1379,4.1532,4.1937,4.1827,4.1328,4.1882,4.2213,4.2199,4.1781,4.1647,4.1739,4.125,4.0969,4.094,4.094,4.1367,4.2281,4.3546,4.4544,4.5242,4.6529,4.7309,4.7309,4.7309,4.7309,4.7219,4.683,4.6262,4.5633,4.5574,4.5813,4.6219,4.5663,4.5933,4.7189,4.6681,4.6621,4.7219,4.683,4.6591,4.6548,4.6591,4.6548,4.6548,4.704,4.7309,4.7309,4.7309,4.7309,4.7309,4.7309,4.7309,4.7309,4.7459,4.7549,4.7309,4.7309,4.7309,4.7309,4.7429,4.7848,4.8506,4.9134,4.9793,5.0375,5.0883,5.1229,5.1229,5.1229,5.1289,5.1528,5.2067,5.2725,5.3384,5.4072,5.467,5.5119,5.5179,5.5209,5.5209,5.5209,5.5209,5.5209,5.5209,5.5209,5.5209,5.5209,5.5209,5.5209,5.5209,5.5209,5.5209,5.5209,5.5209,5.5209,5.5209,5.5209,5.5209,5.5209,5.482,4.3588,4.3431,4.2977,4.2369,4.1868,4.2454,4.2312,4.1595,4.2215,4.2422,4.2212,4.1679,4.2185,4.34,4.1785,4.1085,4.1176,4.1277,4.1031,4.0502,4.1057,4.1315,4.1452,4.1443,4.1837,4.2486,4.1896,4.1587,4.1587,4.1559,4.1587,4.1759,4.3746,4.4574,4.4457,4.6221,4.7279,4.7206,4.7236,4.7309,4.7309,4.7249,4.692,4.6352,4.6292,4.6279,4.6249,4.5663,4.5933,4.7279,4.6681,4.6621,4.7219,4.7279,4.7219,4.7219,4.7249,4.7249,4.7219,4.7279,4.7309,4.7309,4.7309,4.7309,4.7309,4.7309,4.7339,4.7339,4.7848,4.7938,4.7549,4.7459,4.7399,4.7429,4.7878,4.8491,4.9209,4.9733,5.0421,5.096,5.1169,5.1229,5.1229,5.1229,5.1498,5.2007,5.2695,5.3324,5.3952,5.467,5.5059,5.5149,5.5179,5.5179,5.5179,5.5179,5.5179,5.5099,5.5069,5.5149,5.5179,5.5209,5.5149,5.5209,5.5209,5.5209,5.5209,5.5209,5.5209,5.5209,5.5209,5.5209,5.5209,5.5209,5.488,4.2809,4.2919,4.2548,4.2524,4.2814,4.2883,4.2585,4.2036,4.2569,4.2595,4.2392,4.2318,4.2511,4.2697,4.1696,4.1334,4.1652,4.2069,4.1723,4.1,4.1935,4.2481,4.2575,4.2685,4.2887,4.3031,4.2542,4.2233,4.2177,4.184,4.1615,4.19,4.3523,4.3991,4.3589,4.558,4.6666,4.6353,4.6897,4.7309,4.7309,4.7309,4.7189,4.698,4.695,4.695,4.695,4.6322,4.6381,4.7279,4.6681,4.6578,4.7219,4.7309,4.7309,4.7309,4.7309,4.7309,4.7309,4.7309,4.7309,4.7309,4.7309,4.7309,4.7309,4.7309,4.7459,4.7878,4.8117,4.8267,4.8476,4.8177,4.7938,4.7967,4.8147,4.8745,4.9613,5.0076,5.0465,5.105,5.1229,5.1229,5.1229,5.1229,5.1468,5.2097,5.2755,5.3443,5.4102,5.476,5.5209,5.5209,5.5179,5.4878,5.3786,5.4687,5.5099,5.4848,5.4687,5.4658,5.4658,5.4167,5.3976,5.5069,5.5209,5.5209,5.5209,5.5209,5.5209,5.5209,5.5209,5.5209,5.5209,5.5209,5.497,4.2536,4.2636,4.2532,4.2739,4.3201,4.3063,4.276,4.2514,4.2811,4.2816,4.259,4.2811,4.2816,4.2409,4.2032,4.1889,4.1981,4.2109,4.1744,4.1272,4.2004,4.2579,4.3036,4.3046,4.3287,4.3648,4.316,4.2879,4.2823,4.243,4.2233,4.2362,4.3771,4.3881,4.3285,4.5156,4.6079,4.5886,4.6561,4.7135,4.7266,4.7309,4.7309,4.7309,4.7309,4.7309,4.7309,4.689,4.6787,4.716,4.689,4.686,4.7249,4.7309,4.7309,4.7309,4.7309,4.7309,4.7309,4.7309,4.7309,4.7309,4.7309,4.7309,4.7309,4.7489,4.7848,4.8207,4.8745,4.9105,4.9134,4.9045,4.8835,4.8716,4.8775,4.9254,5.0046,5.0375,5.0704,5.1109,5.1229,5.1229,5.1259,5.1439,5.1858,5.2426,5.3084,5.3773,5.4431,5.488,5.5209,5.5209,5.5209,5.4878,5.4357,5.4878,5.4006,5.3516,5.3816,5.3896,5.4006,5.3406,5.3516,5.4687,5.5209,5.5209,5.5209,5.5209,5.5209,5.5209,5.5209,5.5209,5.5209,5.5209,5.5029,4.2992,4.2942,4.2986,4.2967,4.3022,4.3017,4.3017,4.2936,4.2961,4.2936,4.2886,4.2986,4.2936,4.2911,4.2735,4.2645,4.2149,4.137,4.1119,4.1324,4.1045,4.1672,4.2908,4.2574,4.3081,4.4238,4.375,4.3469,4.3497,4.3357,4.3301,4.3617,4.4362,4.4276,4.3253,4.4844,4.574,4.5741,4.6299,4.6844,4.7222,4.7309,4.7309,4.7309,4.7309,4.7309,4.7309,4.7279,4.7249,4.7279,4.7279,4.7279,4.7279,4.7309,4.7309,4.7309,4.7309,4.7309,4.7309,4.7309,4.7309,4.7396,4.7352,4.7396,4.7542,4.7979,4.8325,4.8625,4.9344,4.9972,4.9583,4.9853,4.9883,4.9434,4.9703,5.0016,5.0315,5.0764,5.1199,5.1229,5.1229,5.1229,5.1349,5.1708,5.2306,5.2965,5.3653,5.4311,5.488,5.5149,5.5179,5.5209,5.5179,5.4878,5.4988,5.4988,5.3275,5.2027,5.2566,5.2917,5.3435,5.3296,5.3516,5.4467,5.5179,5.5209,5.5209,5.5209,5.5209,5.5209,5.5209,5.5209,5.5209,5.5209,5.5209,4.2986,4.2986,4.2986,4.2986,4.2986,4.2986,4.2986,4.2986,4.2986,4.2986,4.2986,4.2986,4.2986,4.2886,4.261,4.259,4.2715,4.2011,4.1676,4.1616,4.1771,4.224,4.2964,4.3313,4.3788,4.4228,4.3807,4.3722,4.3975,4.3722,4.3497,4.3656,4.4255,4.398,4.3053,4.4452,4.5248,4.5274,4.6124,4.68,4.7266,4.7309,4.7309,4.7309,4.7309,4.7309,4.7309,4.7309,4.7309,4.7309,4.7309,4.7309,4.7309,4.7309,4.7309,4.7309,4.7309,4.7309,4.7309,4.7352,4.7482,4.7666,4.7794,4.7922,4.8194,4.8486,4.8887,4.9265,4.9915,5.0242,5.0571,5.078,5.0554,5.0002,5.0076,5.0405,5.0764,5.1033,5.1199,5.1229,5.1229,5.1229,5.1349,5.1828,5.2516,5.3144,5.3832,5.4491,5.4999,5.5209,5.5209,5.5209,5.5099,5.4908,5.4687,5.4577,5.3626,5.2216,5.2107,5.2647,5.3055,5.2946,5.3275,5.4226,5.4908,5.5209,5.5209,5.5209,5.5209,5.5209,5.5209,5.5209,5.5209,5.5209,5.5209,4.2986,4.2986,4.2986,4.2986,4.2986,4.2986,4.2986,4.2986,4.2986,4.2986,4.2986,4.2986,4.2986,4.2911,4.2665,4.2715,4.2992,4.2665,4.2446,4.2291,4.2285,4.271,4.3249,4.3813,4.4145,4.4232,4.4004,4.4031,4.4369,4.4059,4.3863,4.3947,4.4228,4.3919,4.3121,4.4157,4.4778,4.4815,4.5696,4.6535,4.6931,4.7222,4.7309,4.7309,4.7309,4.7309,4.7309,4.7309,4.7309,4.7309,4.7309,4.7309,4.7309,4.7309,4.7309,4.7309,4.7309,4.7396,4.7624,4.7709,4.7794,4.8091,4.826,4.8301,4.8477,4.8785,4.9382,4.9789,5.0231,5.0649,5.105,5.1229,5.0973,5.0614,5.0554,5.0734,5.1169,5.1229,5.1229,5.1229,5.1229,5.1319,5.1648,5.2157,5.2815,5.3473,5.4132,5.464,5.5089,5.5179,5.5209,5.5209,5.5179,5.4798,5.4167,5.3926,5.3816,5.2785,5.1866,5.2486,5.3106,5.2107,5.1866,5.4036,5.5179,5.5209,5.5209,5.5209,5.5209,5.5209,5.5209,5.5209,5.5209,5.5209,5.5209,4.2986,4.2986,4.2986,4.2986,4.2986,4.2986,4.2986,4.2986,4.2986,4.2986,4.2986,4.2986,4.2986,4.2986,4.2967,4.2936,4.2961,4.2936,4.2996,4.2917,4.2703,4.2687,4.3363,4.3899,4.4129,4.418,4.4283,4.435,4.4397,4.434,4.4425,4.4369,4.434,4.4144,4.375,4.4144,4.4422,4.4571,4.5351,4.6106,4.6624,4.7092,4.7309,4.7309,4.7309,4.7309,4.7309,4.7309,4.7309,4.7309,4.7309,4.7309,4.7309,4.7309,4.7439,4.7482,4.7396,4.7794,4.8187,4.8313,4.8396,4.8521,4.8944,4.8811,4.8644,4.9427,4.9959,5.0018,5.0437,5.091,5.1086,5.1173,5.1126,5.1199,5.1109,5.1169,5.1199,5.1229,5.1229,5.1229,5.1259,5.1439,5.2037,5.2665,5.3354,5.4012,5.464,5.5059,5.5149,5.5209,5.5209,5.5209,5.5209,5.5069,5.4547,5.4357,5.4196,5.3816,5.2785,5.2836,5.3435,5.2515,5.2027,5.4036,5.5209,5.5209,5.5209,5.5209,5.5209,5.5209,5.5209,5.5209,5.5209,5.5209,5.5209,4.2986,4.2986,4.2986,4.2986,4.2986,4.2986,4.2986,4.2986,4.2986,4.2986,4.2986,4.2986,4.2986,4.2986,4.2986,4.2986,4.2986,4.2986,4.2992,4.3063,4.2927,4.3105,4.3545,4.3922,4.4187,4.4308,4.4349,4.4425,4.4425,4.4425,4.4425,4.4425,4.4425,4.434,4.4228,4.4312,4.4545,4.491,4.545,4.6016,4.6535,4.7048,4.7309,4.7309,4.7309,4.7309,4.7309,4.7309,4.7309,4.7309,4.7309,4.7309,4.7439,4.7752,4.8007,4.8091,4.8396,4.8738,4.8934,4.9015,4.9138,4.9524,5.0405,5.0525,4.9836,5.0844,5.1006,5.0599,5.0513,5.075,5.097,5.1046,5.109,5.1186,5.1229,5.1229,5.1229,5.1229,5.1229,5.1229,5.1229,5.1588,5.2187,5.2845,5.3503,5.4162,5.473,5.5209,5.5209,5.5209,5.5209,5.5209,5.5209,5.5209,5.5069,5.4878,5.4768,5.4687,5.4006,5.3406,5.4086,5.4196,5.4226,5.5099,5.5179,5.5209,5.5209,5.5209,5.5209,5.5209,5.5209,5.5209,5.5209,5.5209,5.5209,4.2986,4.2986,4.2986,4.2986,4.2986,4.2986,4.2986,4.2986,4.2986,4.2986,4.2986,4.2986,4.2986,4.2986,4.2986,4.2986,4.2986,4.2986,4.2986,4.2986,4.2961,4.3172,4.3494,4.3787,4.407,4.4296,4.4396,4.4378,4.4425,4.4425,4.4425,4.4425,4.4425,4.4425,4.4397,4.4425,4.449,4.4833,4.5247,4.5747,4.6269,4.6756,4.7135,4.7222,4.7309,4.7309,4.7309,4.7309,4.7439,4.7624,4.7752,4.7837,4.8061,4.8187,4.8396,4.8646,4.878,4.9159,5.0176,5.0359,5.0715,5.1396,5.2275,5.2211,5.1745,5.2044,5.1685,5.1338,5.0798,5.074,5.1114,5.1273,5.1379,5.1435,5.1293,5.1229,5.1229,5.1229,5.1229,5.1259,5.1468,5.1858,5.2546,5.3174,5.3862,5.4491,5.494,5.5149,5.5209,5.5209,5.5209,5.5209,5.5209,5.5209,5.4908,5.4607,5.4798,5.4848,5.4798,5.4196,5.4277,5.4958,5.5099,5.5179,5.5179,5.5209,5.5209,5.5209,5.5209,5.5209,5.5209,5.5209,5.5209,5.5209,5.5209,4.2986,4.2986,4.2986,4.2986,4.2986,4.2986,4.2986,4.2986,4.2986,4.2986,4.2986,4.2986,4.2986,4.2986,4.2986,4.2986,4.2986,4.2986,4.2986,4.2986,4.2992,4.3136,4.3357,4.3596,4.3879,4.4102,4.4299,4.4359,4.4425,4.4425,4.4425,4.4425,4.4425,4.4425,4.4425,4.4425,4.4425,4.4537,4.4926,4.5338,4.5792,4.6358,4.68,4.7092,4.7266,4.7309,4.7309,4.7352,4.7598,4.8351,4.829,4.8313,4.8738,4.8438,4.8687,4.9107,4.9097,4.9801,5.1307,5.1675,5.2262,5.3095,5.3808,5.4048,5.3394,5.2929,5.2695,5.2405,5.1294,5.1225,5.1524,5.1848,5.1957,5.1941,5.1618,5.1416,5.1276,5.1229,5.1229,5.1319,5.1887,5.2456,5.3204,5.3832,5.4431,5.479,5.5119,5.5149,5.5209,5.5209,5.5209,5.5209,5.5209,5.5209,5.4768,5.4277,5.4607,5.4878,5.5069,5.4768,5.4277,5.4658,5.5069,5.5209,5.5209,5.5209,5.5209,5.5209,5.5209,5.5209,5.5209,5.5209,5.5209,5.5209,5.5209,4.2986,4.2986,4.2986,4.2986,4.2986,4.2986,4.2986,4.2986,4.2986,4.2986,4.2986,4.2986,4.3011,4.3011,4.3037,4.2986,4.3011,4.3011,4.2986,4.2986,4.2986,4.3132,4.3327,4.3598,4.3835,4.4114,4.4327,4.4378,4.4425,4.4425,4.4425,4.4425,4.4425,4.4425,4.4425,4.4425,4.4425,4.4472,4.4862,4.511,4.5384,4.609,4.6609,4.6859,4.7122,4.7296,4.7309,4.7309,4.7865,4.845,4.817,4.786,4.8194,4.8707,4.9087,4.943,5.0097,5.073,5.1383,5.2172,5.2828,5.3344,5.4692,5.5244,5.4227,5.4632,5.4382,5.3791,5.2875,5.2327,5.2352,5.2445,5.262,5.2637,5.2518,5.2246,5.1834,5.1463,5.1503,5.1845,5.2174,5.2636,5.3743,5.4042,5.4551,5.5059,5.5209,5.5209,5.5209,5.5209,5.5209,5.5209,5.5209,5.5209,5.5069,5.4607,5.4768,5.4988,5.5099,5.5179,5.4687,5.4577,5.5069,5.5209,5.5209,5.5209,5.5209,5.5209,5.5209,5.5209,5.5209,5.5209,5.5209,5.5209,5.5209,4.2986,4.2986,4.2986,4.2986,4.2986,4.2986,4.2986,4.2986,4.2986,4.2986,4.3037,4.3237,4.3363,4.3363,4.3363,4.3363,4.3288,4.3087,4.2986,4.2986,4.3042,4.3284,4.3607,4.3598,4.3694,4.4075,4.4201,4.4308,4.4368,4.4378,4.4425,4.4425,4.4425,4.4425,4.4425,4.4425,4.4425,4.4397,4.463,4.4862,4.5201,4.5595,4.6429,4.6948,4.7348,4.7614,4.8237,4.8237,4.8593,4.889,4.8651,4.8551,4.8979,4.9438,4.977,5.0231,5.0367,5.1276,5.1891,5.2604,5.3358,5.4357,5.5599,5.5977,5.5762,5.6033,5.5576,5.4873,5.4076,5.3413,5.3524,5.3427,5.3558,5.3856,5.3728,5.3486,5.3172,5.2444,5.1848,5.2222,5.2627,5.323,5.3875,5.4439,5.472,5.528,5.5179,5.5209,5.5209,5.5209,5.5209,5.5209,5.5209,5.5209,5.5209,5.5099,5.5069,5.5149,5.5179,5.5209,5.4988,5.5069,5.5179,5.5209,5.5209,5.5209,5.5209,5.5209,5.5209,5.5209,5.5209,5.5209,5.5209,5.5209,5.5209,4.2986,4.2986,4.2986,4.3011,4.3087,4.3037,4.3112,4.3263,4.3137,4.3237,4.3313,4.374,4.3915,4.3915,4.3915,4.3915,4.379,4.3413,4.3212,4.3413,4.3237,4.3655,4.3976,4.3813,4.3702,4.408,4.4085,4.4123,4.4308,4.4349,4.433,4.4359,4.4425,4.4425,4.4425,4.4425,4.4425,4.4425,4.4472,4.4583,4.4954,4.5138,4.5974,4.7256,4.7583,4.8149,4.8805,4.912,4.9284,4.9434,4.9434,5.0064,5.0653,5.0632,5.0434,5.096,5.0866,5.1577,5.2584,5.3325,5.4357,5.6151,5.6462,5.6878,5.7291,5.6905,5.6449,5.6025,5.545,5.4892,5.5103,5.502,5.5063,5.5357,5.5229,5.5087,5.492,5.4103,5.3685,5.2963,5.3462,5.404,5.4564,5.5115,5.523,5.5381,5.528,5.5229,5.5229,5.5179,5.5229,5.5179,5.5209,5.5209,5.5209,5.5209,5.5209,5.5209,5.5209,5.5209,5.5209,5.5209,5.5209,5.5209,5.5209,5.5209,5.5209,5.5209,5.5209,5.5209,5.5209,5.5209,5.5209,5.5209,5.5209,4.2986,4.2986,4.2986,4.3237,4.3539,4.3187,4.3514,4.4192,4.384,4.394,4.4292,4.4443,4.4493,4.4493,4.4493,4.4493,4.4292,4.3915,4.3865,4.4066,4.389,4.4042,4.439,4.4035,4.3951,4.4012,4.4017,4.4061,4.4129,4.4145,4.4288,4.4387,4.4425,4.4425,4.4425,4.4425,4.4425,4.4425,4.4425,4.4518,4.463,4.4936,4.5895,4.7372,4.7625,4.8326,4.9134,4.9359,4.9524,4.9995,5.0039,5.0491,5.0897,5.0589,5.0407,5.0714,5.1649,5.241,5.2974,5.4531,5.5495,5.6325,5.6945,5.7499,5.7811,5.7775,5.7628,5.7551,5.7415,5.7017,5.5929,5.6319,5.6645,5.6784,5.6825,5.683,5.6977,5.6872,5.6411,5.5484,5.5209,5.4866,5.5367,5.5743,5.5883,5.5849,5.5651,5.5581,5.5481,5.5381,5.5229,5.5229,5.5209,5.5209,5.5209,5.5209,5.5209,5.5209,5.5209,5.5209,5.5209,5.5209,5.5209,5.5209,5.5209,5.5209,5.5209,5.5209,5.5209,5.5209,5.5209,5.5209,5.5209,5.5209,5.5209,4.2986,4.2986,4.2986,4.3288,4.3689,4.3539,4.3865,4.4518,4.4342,4.4367,4.4644,4.492,4.507,4.507,4.507,4.492,4.4593,4.4392,4.4392,4.4518,4.4367,4.4604,4.5081,4.4547,4.4458,4.4535,4.4513,4.425,4.4146,4.4242,4.4335,4.4368,4.4425,4.4425,4.4425,4.4425,4.4425,4.4425,4.4425,4.4425,4.4425,4.4676,4.5734,4.7165,4.7809,4.8601,4.9954,5.0272,5.0411,5.0678,5.0689,5.0898,5.0982,5.0968,5.0715,5.1025,5.21,5.2905,5.3072,5.446,5.5392,5.6221,5.711,5.7901,5.8383,5.8795,5.893,5.9025,5.9051,5.8873,5.8269,5.8183,5.8316,5.8607,5.8688,5.8738,5.8913,5.9127,5.8613,5.793,5.7478,5.6933,5.6185,5.6429,5.6546,5.6378,5.6115,5.5948,5.58,5.5551,5.5431,5.5229,5.5209,5.5209,5.5209,5.5209,5.5209,5.5209,5.5209,5.5209,5.5209,5.5209,5.5209,5.5209,5.5209,5.5209,5.5209,5.5209,5.5209,5.5209,5.5209,5.5209,5.5209,5.5209,5.5209,4.2986,4.2986,4.2986,4.3363,4.389,4.384,4.4267,4.4844,4.4869,4.4895,4.502,4.5422,4.5648,4.5648,4.5632,4.5405,4.4969,4.4984,4.5016,4.5117,4.4965,4.5285,4.561,4.533,4.4954,4.5184,4.5111,4.4731,4.4211,4.4346,4.4478,4.4434,4.4425,4.4425,4.4425,4.4425,4.4425,4.4425,4.4425,4.4425,4.4425,4.4528,4.5326,4.7218,4.7456,4.8448,5.0305,5.0517,5.0788,5.0981,5.1177,5.1251,5.1366,5.1391,5.1435,5.1732,5.2573,5.298,5.346,5.4854,5.6196,5.6854,5.7502,5.8294,5.8954,5.9607,5.9979,6.0114,6.0279,6.0144,5.9717,5.9755,5.9856,6.0112,6.0326,6.0525,6.0585,6.0638,6.0529,5.9999,5.9559,5.895,5.8173,5.7677,5.79,5.7496,5.7244,5.6651,5.6457,5.5918,5.5651,5.533,5.5209,5.5209,5.5209,5.5209,5.5209,5.5209,5.5209,5.5209,5.5209,5.5209,5.5209,5.5209,5.5209,5.5209,5.5209,5.5209,5.5209,5.5209,5.5209,5.5209,5.5209,5.5209,5.5209,4.2986,4.2986,4.2986,4.3564,4.4367,4.4016,4.4719,4.5924,4.5573,4.5673,4.5974,4.6125,4.615,4.616,4.615,4.6239,4.6199,4.5936,4.5873,4.6039,4.5822,4.5962,4.6354,4.5758,4.5552,4.568,4.5542,4.4705,4.4364,4.4743,4.4782,4.462,4.4621,4.4481,4.4706,4.4706,4.4425,4.4453,4.4481,4.4509,4.4537,4.4537,4.5261,4.6138,4.6659,4.763,4.9675,5.01,5.0393,5.1154,5.127,5.1527,5.1945,5.2056,5.2476,5.2961,5.348,5.3782,5.4131,5.6027,5.7511,5.8035,5.8968,5.9663,6.0114,6.0216,6.0351,6.0114,6.0723,6.0892,6.0622,6.0748,6.0984,6.1086,6.1182,6.1509,6.1779,6.1553,6.1475,6.1428,6.0828,6.0564,6.002,5.9577,5.9202,5.8741,5.8194,5.7621,5.694,5.6311,5.5869,5.5551,5.5229,5.5209,5.5209,5.5209,5.5209,5.5209,5.5209,5.5209,5.5209,5.5209,5.5209,5.5209,5.5209,5.5209,5.5209,5.5209,5.5209,5.5209,5.5209,5.5209,5.5209,5.5209,5.5209,4.2986,4.2986,4.2986,4.3614,4.4543,4.4367,4.5045,4.605,4.6075,4.6075,4.6276,4.6301,4.6364,4.6493,4.6364,4.6425,4.6618,4.6487,4.6367,4.6506,4.6399,4.6399,4.6332,4.6112,4.5994,4.5964,4.6125,4.6009,4.5432,4.5381,4.5595,4.5481,4.5436,4.5549,4.5352,4.5436,4.5493,4.5521,4.5493,4.5464,4.5493,4.5569,4.5986,4.7052,4.7081,4.8,4.9193,5.0316,5.0726,5.1452,5.1876,5.247,5.2707,5.2803,5.3013,5.324,5.3844,5.4242,5.4782,5.7072,5.8079,5.8806,5.978,6.0888,6.1231,6.1298,6.1298,6.14,6.1704,6.167,6.1434,6.1704,6.1839,6.1907,6.1806,6.1975,6.2245,6.2313,6.2156,6.2189,6.211,6.1676,6.1309,6.0861,6.0032,5.9113,5.8651,5.8133,5.7244,5.6262,5.5918,5.575,5.5431,5.5209,5.5209,5.5209,5.5209,5.5209,5.5209,5.5209,5.5209,5.5209,5.5209,5.5209,5.5209,5.5209,5.5209,5.5209,5.5209,5.5209,5.5209,5.5209,5.5209,5.5209,5.5209,4.2986,4.2986,4.2986,4.3539,4.4418,4.4568,4.5171,4.605,4.6225,4.6301,4.6311,4.6364,4.655,4.6714,4.6663,4.674,4.6957,4.6952,4.6746,4.6695,4.6637,4.6611,4.6501,4.6323,4.6222,4.6093,4.676,4.6759,4.663,4.6545,4.6652,4.6335,4.6111,4.6195,4.6251,4.6167,4.6139,4.6139,4.6139,4.6167,4.6195,4.6223,4.672,4.7247,4.7698,4.8121,4.9242,5.0252,5.0851,5.1572,5.2527,5.3169,5.3406,5.352,5.3751,5.4017,5.451,5.4792,5.5621,5.706,5.8191,5.9064,6.0117,6.1467,6.211,6.2313,6.2279,6.2144,6.2245,6.2347,6.2381,6.2347,6.2279,6.2279,6.2313,6.2381,6.2415,6.2381,6.2381,6.2341,6.2302,6.2341,6.1991,6.1756,6.0953,5.9686,5.9011,5.8592,5.7668,5.6603,5.6164,5.6017,5.575,5.5431,5.5229,5.5229,5.5229,5.5229,5.5229,5.5209,5.5209,5.5209,5.5209,5.5209,5.5209,5.5209,5.5209,5.5209,5.5209,5.5209,5.5209,5.5209,5.5209,5.5209,5.5209,4.2986,4.2986,4.2986,4.3313,4.3915,4.4418,4.497,4.5573,4.6075,4.6276,4.6345,4.6576,4.6788,4.7077,4.711,4.7232,4.7593,4.7646,4.7347,4.7169,4.7142,4.6887,4.6623,4.6417,4.6391,4.6579,4.6987,4.724,4.7452,4.7466,4.7091,4.6476,4.6645,4.642,4.6448,4.6616,4.6588,4.6588,4.656,4.6532,4.6504,4.6476,4.6581,4.6553,4.6651,4.6987,4.8101,4.9522,5.0592,5.146,5.2838,5.3765,5.4168,5.4259,5.4527,5.4859,5.5021,5.5191,5.5799,5.7139,5.8535,5.9318,6.0354,6.1704,6.2279,6.1772,6.1772,6.2313,6.2381,6.2415,6.2415,6.2415,6.2415,6.2415,6.2415,6.2415,6.2415,6.2415,6.2381,6.2415,6.2415,6.2415,6.2415,6.2144,6.1676,6.0492,5.9499,5.9043,5.8257,5.7275,5.67,5.636,5.6066,5.575,5.5381,5.533,5.5431,5.533,5.528,5.5229,5.5209,5.5209,5.5209,5.5209,5.5209,5.5209,5.5209,5.5209,5.5209,5.5209,5.5209,5.5209,5.5209,5.5209,5.5209,4.2986,4.2986,4.2986,4.3288,4.3815,4.4016,4.4443,4.4995,4.5547,4.6024,4.6311,4.6616,4.6887,4.7142,4.7205,4.735,4.7671,4.7669,4.7377,4.7142,4.7017,4.6908,4.6609,4.6408,4.6451,4.6669,4.6856,4.7232,4.7616,4.7843,4.7787,4.7427,4.7319,4.7431,4.7431,4.7291,4.7347,4.7375,4.7375,4.7403,4.7431,4.7431,4.7431,4.7403,4.7403,4.7566,4.8311,4.9968,5.0867,5.1917,5.3423,5.4322,5.4804,5.4902,5.5069,5.5345,5.5409,5.5409,5.5621,5.6996,5.8375,6.0077,6.1155,6.2042,6.2313,6.2076,6.2076,6.2313,6.2415,6.2415,6.2415,6.2415,6.2415,6.2415,6.2415,6.2415,6.2415,6.2415,6.2415,6.2415,6.2415,6.2415,6.2415,6.2381,6.1911,6.1276,6.0355,5.9399,5.8669,5.798,5.7417,5.6892,5.6554,5.6311,5.5998,5.58,5.5651,5.5551,5.5431,5.5381,5.533,5.5209,5.5209,5.5209,5.5209,5.5209,5.5209,5.5209,5.5209,5.5209,5.5209,5.5209,5.5209,5.5209,5.5209,4.2986,4.2986,4.2986,4.3187,4.3564,4.374,4.4016,4.4443,4.497,4.5547,4.6119,4.6592,4.6983,4.7203,4.7433,4.7566,4.7768,4.7747,4.7376,4.7113,4.6922,4.6766,4.6476,4.6311,4.6399,4.6583,4.6714,4.7047,4.7487,4.7619,4.7782,4.7936,4.8083,4.805,4.805,4.8083,4.8083,4.8083,4.8083,4.8083,4.8027,4.8027,4.7999,4.7971,4.7943,4.8021,4.8685,5.0076,5.1374,5.236,5.3667,5.5055,5.5343,5.5365,5.5392,5.5409,5.5409,5.5409,5.5685,5.6605,5.8195,6.0184,6.0768,6.1616,6.2172,6.2245,6.1975,6.2381,6.2415,6.2415,6.2415,6.2415,6.2415,6.2415,6.2415,6.2415,6.2415,6.2415,6.2415,6.2415,6.2415,6.2415,6.2415,6.2381,6.1991,6.1521,6.0986,6.0054,5.9165,5.8532,5.8026,5.7511,5.7084,5.6892,5.6651,5.6409,5.6164,5.6017,5.5899,5.5601,5.5451,5.5381,5.5229,5.5209,5.5209,5.5209,5.5209,5.5259,5.5259,5.5209,5.5209,5.5209,5.5209,5.5209,5.5209,4.2986,4.2986,4.2986,4.3011,4.3112,4.3564,4.379,4.389,4.4418,4.4995,4.5708,4.6616,4.7086,4.7237,4.7591,4.7837,4.7812,4.7718,4.746,4.7113,4.6825,4.6583,4.6374,4.6336,4.6371,4.639,4.6568,4.6846,4.7205,4.746,4.7768,4.7973,4.8037,4.8083,4.8083,4.8083,4.8083,4.8083,4.8083,4.8083,4.8083,4.8083,4.8083,4.8083,4.8083,4.8083,4.859,5.009,5.1254,5.2018,5.379,5.4979,5.5375,5.5384,5.5401,5.5409,5.5409,5.5409,5.5547,5.6605,5.8221,6.0038,6.0522,6.1127,6.193,6.1975,6.1806,6.2347,6.2415,6.2415,6.2415,6.2415,6.2415,6.2415,6.2415,6.2415,6.2415,6.2415,6.2415,6.2415,6.2415,6.2415,6.2415,6.2302,6.203,6.1676,6.1399,6.0694,5.9739,5.9017,5.8518,5.8058,5.759,5.7448,5.7227,5.6892,5.6651,5.6554,5.636,5.6017,5.5849,5.575,5.5581,5.533,5.5481,5.57,5.5481,5.5259,5.533,5.5431,5.5229,5.5209,5.5209,5.5209,5.5209,4.2986,4.2986,4.2986,4.2986,4.3011,4.3162,4.3263,4.3338,4.3865,4.4593,4.5456,4.6171,4.6543,4.6948,4.746,4.7718,4.7567,4.7745,4.7487,4.6917,4.6746,4.6517,4.6364,4.6336,4.6301,4.6336,4.6417,4.6565,4.683,4.7262,4.7568,4.7741,4.8042,4.8083,4.8083,4.8083,4.8083,4.8083,4.8083,4.8083,4.8083,4.8083,4.8083,4.8083,4.8083,4.8083,4.8162,4.9823,5.0822,5.1725,5.3528,5.4535,5.5225,5.5416,5.5425,5.5401,5.5442,5.5668,5.6122,5.7051,5.8019,5.9344,6.0577,6.1329,6.2279,6.2212,6.2245,6.2313,6.2381,6.2415,6.2415,6.2415,6.2415,6.2415,6.2415,6.2415,6.2415,6.2415,6.2415,6.2415,6.2415,6.2415,6.2415,6.2415,6.215,6.1951,6.1716,6.1111,6.0184,5.9476,5.8927,5.8427,5.8011,5.7965,5.7778,5.7417,5.7227,5.7132,5.6892,5.6506,5.6342,5.6195,5.6145,5.6047,5.6145,5.6164,5.5998,5.58,5.57,5.5651,5.5551,5.5381,5.533,5.528,5.5209,4.2986,4.2986,4.2986,4.2986,4.2986,4.2986,4.2986,4.3087,4.3564,4.4242,4.4893,4.5565,4.6068,4.6573,4.7125,4.7433,4.7205,4.7262,4.7235,4.674,4.6682,4.6509,4.6399,4.639,4.6399,4.632,4.632,4.6493,4.6922,4.7113,4.746,4.784,4.8024,4.806,4.8083,4.8083,4.8083,4.8083,4.8083,4.8083,4.8083,4.8083,4.8083,4.8083,4.8083,4.8083,4.8427,4.9244,5.0477,5.1676,5.2863,5.4095,5.5051,5.5613,5.5712,5.5771,5.6122,5.6381,5.6899,5.78,5.8609,5.9119,6.0786,6.1728,6.2234,6.2313,6.2347,6.2381,6.2415,6.2415,6.2415,6.2415,6.2415,6.2415,6.2415,6.2415,6.2415,6.2415,6.2415,6.2415,6.2415,6.2415,6.2415,6.2415,6.2302,6.2183,6.1991,6.135,6.0736,6.0054,5.9387,5.8882,5.8427,5.8197,5.8104,5.7965,5.7825,5.7778,5.7417,5.6988,5.6844,5.673,5.67,5.67,5.6603,5.6506,5.6554,5.6457,5.6262,5.6115,5.6047,5.58,5.5531,5.5481,5.5481,4.2986,4.2986,4.2986,4.2986,4.2986,4.2986,4.2986,4.3011,4.3514,4.379,4.3922,4.5226,4.5737,4.6047,4.6787,4.7089,4.7054,4.6856,4.672,4.6643,4.6597,4.6485,4.6476,4.6493,4.6442,4.638,4.6364,4.659,4.7113,4.7264,4.7593,4.793,4.8088,4.8167,4.8195,4.8252,4.8195,4.8139,4.8083,4.8139,4.8252,4.8274,4.8387,4.8443,4.8527,4.8499,4.8765,4.9319,5.0556,5.1748,5.2906,5.4175,5.5247,5.6054,5.6381,5.6689,5.7191,5.745,5.7719,5.86,5.9137,5.9497,5.9969,6.0979,6.1755,6.2263,6.2263,6.2375,6.2415,6.2415,6.2415,6.2415,6.2415,6.2415,6.2415,6.2415,6.2415,6.2415,6.2415,6.2415,6.2415,6.2415,6.2415,6.2415,6.2415,6.2341,6.2183,6.1991,6.135,6.0778,6.0098,5.9431,5.8972,5.8473,5.8335,5.8367,5.8136,5.8011,5.7825,5.7495,5.7353,5.7258,5.7306,5.718,5.694,5.6892,5.7132,5.7036,5.6796,5.6651,5.6603,5.636,5.6096,5.5998,5.5948,4.2986,4.2986,4.2986,4.2986,4.2986,4.2986,4.2986,4.3011,4.3187,4.3413,4.3872,4.4225,4.4878,4.5613,4.6036,4.6315,4.6508,4.6623,4.6576,4.6501,4.6467,4.6424,4.6415,4.6374,4.633,4.6433,4.6467,4.6701,4.6952,4.7207,4.772,4.8042,4.8167,4.8336,4.8588,4.8729,4.8476,4.8308,4.8302,4.8499,4.8696,4.8729,4.8949,4.9174,4.9258,4.9258,4.9418,4.9244,5.0551,5.2713,5.2923,5.4006,5.6752,5.714,5.7268,5.7375,5.7871,5.8324,5.8453,5.9101,5.9632,5.9942,6.0364,6.0961,6.1642,6.1951,6.2104,6.2302,6.2415,6.2415,6.2415,6.2415,6.2415,6.2415,6.2415,6.2415,6.2415,6.2415,6.2415,6.2415,6.2415,6.2415,6.2415,6.2415,6.2415,6.2415,6.2341,6.2223,6.1911,6.1235,6.0778,6.0098,5.9552,5.9107,5.8901,5.8842,5.8504,5.8228,5.8401,5.834,5.7949,5.7856,5.7825,5.7778,5.7684,5.7731,5.7871,5.7684,5.7306,5.7275,5.718,5.6892,5.6651,5.6554,5.6457,4.2986,4.2986,4.2986,4.2986,4.2986,4.2986,4.2986,4.2986,4.2986,4.3187,4.3489,4.3771,4.4192,4.4759,4.5164,4.5603,4.5977,4.607,4.6197,4.6399,4.6399,4.6364,4.6355,4.6399,4.6493,4.6509,4.6604,4.6825,4.7086,4.7514,4.8005,4.8481,4.8471,4.8864,4.923,4.937,4.923,4.9033,4.8949,4.9089,4.9258,4.9398,4.9679,4.9957,5.0041,5.0069,5.0013,4.9539,5.0949,5.3074,5.3073,5.4387,5.6892,5.76,5.8249,5.8389,5.8777,5.9036,5.9134,5.9393,5.9827,6.012,6.0515,6.0936,6.1432,6.183,6.2104,6.2341,6.2415,6.2415,6.2415,6.2415,6.2415,6.2415,6.2415,6.2415,6.2415,6.2415,6.2415,6.2415,6.2415,6.2415,6.2415,6.2415,6.2415,6.2415,6.2415,6.2341,6.203,6.1554,6.1193,6.0736,6.0249,5.9793,5.9669,5.9717,5.9556,5.9703,6.0251,5.9941,5.9083,5.8727,5.8899,5.8772,5.8504,5.8536,5.8539,5.8136,5.7825,5.7778,5.7778,5.7637,5.737,5.718,5.7084,4.2986,4.2986,4.2986,4.2986,4.2986,4.2986,4.2986,4.2986,4.2986,4.2986,4.3112,4.3489,4.3765,4.4123,4.4464,4.5019,4.5422,4.57,4.5986,4.6276,4.6451,4.6451,4.6408,4.6535,4.6542,4.6637,4.6851,4.7113,4.7672,4.8073,4.8518,4.8981,4.9066,4.9426,4.9932,5.0016,5.0016,5.0157,5.0073,5.0129,5.0069,5.0097,5.0125,5.0238,5.0266,5.0266,5.021,5.0449,5.1033,5.2544,5.3774,5.4909,5.6912,5.8133,5.8927,5.9295,5.949,5.9522,5.9478,5.9608,5.964,5.9892,6.0152,6.0591,6.1094,6.1669,6.2064,6.2341,6.2415,6.2415,6.2415,6.2415,6.2415,6.2415,6.2415,6.2415,6.2415,6.2415,6.2415,6.2415,6.2415,6.2415,6.2415,6.2415,6.2415,6.2415,6.2415,6.2415,6.2223,6.183,6.1762,6.1517,6.1192,6.0955,6.1295,6.124,6.0975,6.1203,6.1706,6.1353,6.0296,6.0064,6.0064,6.0045,6.0026,5.9311,5.9065,5.8882,5.8603,5.8182,5.8228,5.8321,5.8136,5.7825,5.7731,4.2986,4.2986,4.2986,4.2986,4.2986,4.2986,4.2986,4.2986,4.2986,4.2986,4.3011,4.3137,4.3413,4.3765,4.389,4.4468,4.5271,4.5397,4.5799,4.615,4.6433,4.6408,4.6311,4.6442,4.6576,4.6772,4.7017,4.7406,4.8003,4.8514,4.8813,4.9066,4.9454,5.0045,5.0607,5.0716,5.0857,5.1084,5.1112,5.0916,5.0744,5.08,5.0857,5.1084,5.1253,5.1197,5.1138,5.0966,5.2382,5.4036,5.4419,5.6184,5.8819,5.9206,5.9478,5.9684,5.9673,5.9673,5.9673,5.9673,5.9673,5.9848,6.0109,6.0335,6.0802,6.1465,6.1984,6.2223,6.2415,6.2415,6.2415,6.2415,6.2415,6.2415,6.2415,6.2415,6.2415,6.2415,6.2415,6.2415,6.2415,6.2415,6.2415,6.2415,6.2415,6.2415,6.2415,6.2415,6.2448,6.2285,6.275,6.2575,6.2274,6.2206,6.2586,6.2779,6.2519,6.2366,6.2716,6.2145,6.1508,6.1454,6.1499,6.1739,6.1662,6.0927,6.029,6.0032,5.969,5.9238,5.8801,5.9001,5.8783,5.8444,5.8367,4.3265,4.3042,4.2986,4.2986,4.2986,4.2986,4.2986,4.2986,4.2986,4.2986,4.2986,4.3011,4.3162,4.3438,4.3438,4.4091,4.4995,4.507,4.5623,4.6075,4.6326,4.6276,4.6311,4.6408,4.6701,4.6952,4.7406,4.7898,4.843,4.8757,4.9094,4.9707,5.0269,5.0635,5.1169,5.1309,5.1421,5.1759,5.1787,5.1562,5.1253,5.1309,5.1393,5.1731,5.1787,5.1787,5.1866,5.1745,5.2972,5.4708,5.5628,5.7198,5.9068,5.9564,5.964,5.9673,5.9673,5.9673,5.9673,5.9673,5.9673,5.9848,6.0152,6.0378,6.0506,6.1136,6.1588,6.187,6.2302,6.2381,6.2415,6.2415,6.2415,6.2415,6.2415,6.2415,6.2415,6.2415,6.2415,6.2415,6.2415,6.2415,6.2415,6.2415,6.2415,6.2415,6.2415,6.2415,6.2415,6.2685,6.3193,6.3518,6.3221,6.334,6.3742,6.3935,6.4014,6.3909,6.3835,6.3726,6.3462,6.3089,6.2957,6.2925,6.276,6.2377,6.1851,6.1475,6.1276,6.0979,6.029,5.9711,5.9447,5.9183,5.8783,4.3471,4.3139,4.3139,4.3033,4.2982,4.2957,4.3008,4.3002,4.2972,4.3022,4.2986,4.2986,4.2986,4.2986,4.3137,4.384,4.4468,4.4945,4.5522,4.6075,4.6301,4.6326,4.6399,4.655,4.6882,4.7265,4.7768,4.8319,4.8897,4.923,4.9764,5.0663,5.1056,5.1253,5.1618,5.1759,5.1787,5.1787,5.1787,5.1787,5.1759,5.1787,5.1759,5.1759,5.1787,5.1787,5.203,5.2462,5.3285,5.4878,5.6528,5.807,5.9088,5.9628,5.9673,5.9673,5.9673,5.9673,5.9673,5.9673,5.9673,5.9804,6.0152,6.0335,6.042,6.0717,6.1103,6.1506,6.1984,6.2302,6.2302,6.2341,6.2341,6.2341,6.2341,6.2381,6.2381,6.2415,6.2415,6.2415,6.2415,6.2415,6.2415,6.2415,6.2415,6.2415,6.2415,6.2415,6.2516,6.2922,6.3396,6.3869,6.4011,6.4248,6.4836,6.5008,6.5185,6.5319,6.5216,6.5402,6.5368,6.4872,6.4357,6.3856,6.367,6.368,6.3297,6.287,6.2672,6.2441,6.1939,6.1217,6.0643,6.0225,5.9266,4.3156,4.3669,4.3616,4.3382,4.2993,4.2941,4.2935,4.2994,4.3045,4.303,4.3053,4.3042,4.2986,4.3011,4.3489,4.4066,4.4568,4.4995,4.5623,4.6225,4.6301,4.6326,4.6442,4.6714,4.711,4.7514,4.8017,4.8486,4.923,4.9651,5.0129,5.0888,5.145,5.1646,5.1674,5.1787,5.1787,5.1787,5.1787,5.1787,5.1787,5.1787,5.1787,5.1787,5.1787,5.1787,5.1896,5.195,5.2943,5.4552,5.659,5.8165,5.9062,5.9496,5.9673,5.9673,5.9673,5.9673,5.9673,5.9673,5.9673,5.9716,5.9935,5.9935,6.0033,6.0249,6.0633,6.0844,6.1301,6.1911,6.2104,6.2183,6.2223,6.2263,6.2263,6.2302,6.2302,6.2341,6.2415,6.2415,6.2415,6.2415,6.2415,6.2415,6.2415,6.2415,6.2415,6.2415,6.2651,6.3125,6.3666,6.4174,6.4681,6.5527,6.6229,6.6094,6.6196,6.6407,6.6441,6.6255,6.6221,6.6441,6.596,6.5182,6.5258,6.5444,6.4996,6.4285,6.3759,6.3506,6.3348,6.2855,6.2169,6.1268,6.0367]}]]